[[{"header":{"parameterUnit":"m.s-1","parameterCategory":1,"la1":31.0,"la2":29.5877,"lo1":-88.7671,"lo2":-86.6584,"dy":0.0162,"dx":0.0185,"nx":115,"ny":88,"refTime":"2026-04-06T00:00:00:Z","depth":0,"parameterNumber":2,"parameterNumberName":"U-component_of_WINDS"},"data":[0.0,0.0,0.0,0.0,0.0,0.0,0.0,0.0,0.0,0.0,0.0,0.0,0.0,0.0,0.0,0.0,0.0,0.0,0.0,0.0,0.0,0.0,0.0,0.0,0.0,0.0,0.0,0.0,0.0,0.0,0.0,0.0,0.0,0.0,0.0,0.0,0.0,0.0,0.0,0.0,0.0,0.0,0.0,0.0,0.0,0.0,0.0,0.0,0.0,0.0,0.0,0.0,0.0,0.0,0.0,0.0,0.0,0.0,0.0,0.0,0.0,0.0,0.0,0.0,0.0,0.0,0.0,0.0,0.0,0.0,0.0,0.0,0.0,0.0,0.0,0.0,0.0,0.0,0.0,0.0,0.0,0.0,0.0,0.0,0.0,0.0,0.0,0.0,0.0,0.0,0.0,0.0,0.0,0.0,0.0,0.0,0.0,0.0,0.0,0.0,0.0,0.0,0.0,0.0,0.0,0.0,0.0,0.0,0.0,0.0,0.0,0.0,0.0,0.0,0.0,0.0,0.0,0.0,0.0,0.0,0.0,0.0,0.0,0.0,0.0,0.0,0.0,0.0,0.0,0.0,0.0,0.0,0.0,0.0,0.0,0.0,0.0,0.0,0.0,0.0,0.0,0.0,0.0,0.0,0.0,0.0,0.0,0.0,0.0,0.0,0.0,0.0,0.0,0.0,0.0,0.0,0.0,0.0,0.0,0.0,0.0,0.0,0.0,0.0,0.0,0.0,0.0,0.0,0.0,0.0,0.0,0.0,0.0,0.0,0.0,0.0,0.0,0.0,0.0,0.0,0.0,0.0,0.0,0.0,0.0,0.0,0.0,0.0,0.0,0.0,0.0,0.0,0.0,0.0,0.0,0.0,0.0,0.0,0.0,0.0,0.0,0.0,0.0,0.0,0.0,0.0,0.0,0.0,0.0,0.0,0.0,0.0,0.0,0.0,0.0,0.0,0.0,0.0,0.0,0.0,0.0,0.0,0.0,0.0,0.0,0.0,0.0,0.0,0.0,0.0,0.0,0.0,0.0,0.0,0.0,0.0,0.0,0.0,0.0,0.0,0.0,0.0,0.0,0.0,0.0,0.0,0.0,0.0,0.0,0.0,0.0,0.0,0.0,0.0,0.0,0.0,0.0,0.0,0.0,0.0,0.0,0.0,0.0,0.0,0.0,0.0,0.0,0.0,0.0,0.0,0.0,0.0,0.0,0.0,0.0,0.0,0.0,0.0,0.0,0.0,0.0,0.0,0.0,0.0,0.0,0.0,0.0,0.0,0.0,0.0,0.0,0.0,0.0,0.0,0.0,0.0,0.0,0.0,0.0,0.0,0.0,0.0,0.0,0.0,0.0,0.0,0.0,0.0,0.0,0.0,0.0,0.0,0.0,0.0,0.0,0.0,0.0,0.0,0.0,0.0,0.0,0.0,0.0,0.0,0.0,0.0,0.0,0.0,0.0,0.0,0.0,0.0,0.0,0.0,0.0,0.0,0.0,0.0,0.0,0.0,0.0,0.0,0.0,0.0,0.0,0.0,0.0,0.0,0.0,0.0,0.0,0.0,0.0,0.0,0.0,0.0,0.0,0.0,0.0,0.0,0.0,0.0,0.0,0.0,0.0,0.0,0.0,0.0,0.0,0.0,0.0,0.0,0.0,0.0,0.0,0.0,0.0,0.0,0.0,0.0,0.0,0.0,0.0,0.0,0.0,0.0,0.0,0.0,0.0,0.0,0.0,0.0,0.0,0.0,0.0,0.0,0.0,0.0,0.0,0.0,0.0,0.0,0.0,0.0,0.0,0.0,0.0,0.0,0.0,0.0,0.0,0.0,0.0,0.0,0.0,0.0,0.0,0.0,0.0,0.0,0.0,0.0,0.0,0.0,0.0,0.0,0.0,0.0,0.0,0.0,0.0,0.0,0.0,0.0,0.0,0.0,0.0,0.0,0.0,0.0,0.0,0.0,0.0,0.0,0.0,0.0,0.0,0.0,0.0,0.0,0.0,0.0,0.0,0.0,0.0,0.0,0.0,0.0,0.0,0.0,0.0,0.0,0.0,0.0,0.0,0.0,0.0,0.0,0.0,0.0,0.0,0.0,0.0,0.0,0.0,0.0,0.0,0.0,0.0,0.0,0.0,0.0,0.0,0.0,0.0,0.0,0.0,0.0,0.0,0.0,0.0,0.0,0.0,0.0,0.0,0.0,0.0,0.0,0.0,0.0,0.0,0.0,0.0,0.0,0.0,0.0,0.0,0.0,0.0,0.0,0.0,0.0,0.0,0.0,0.0,0.0,0.0,0.0,0.0,0.0,0.0,0.0,0.0,0.0,0.0,0.0,0.0,0.0,0.0,0.0,0.0,0.0,0.0,0.0,0.0,0.0,0.0,0.0,0.0,0.0,0.0,0.0,0.0,0.0,0.0,0.0,0.0,0.0,0.0,0.0,0.0,0.0,0.0,0.0,0.0,0.0,0.0,0.0,0.0,0.0,0.0,0.0,0.0,0.0,0.0,0.0,0.0,0.0,0.0,0.0,0.0,0.0,0.0,0.0,0.0,0.0,0.0,0.0,0.0,0.0,0.0,0.0,0.0,0.0,0.0,0.0,0.0,0.0,0.0,0.0,0.0,0.0,0.0,0.0,0.0,0.0,0.0,0.0,0.0,0.0,0.0,0.0,0.0,0.0,0.0,0.0,0.0,0.0,0.0,0.0,0.0,0.0,0.0,0.0,0.0,0.0,0.0,0.0,0.0,0.0,0.0,0.0,0.0,0.0,0.0,0.0,0.0,0.0,0.0,0.0,0.0,0.0,0.0,0.0,0.0,0.0,0.0,0.0,0.0,0.0,0.0,0.0,0.0,0.0,0.0,0.0,0.0,0.0,0.0,0.0,0.0,0.0,0.0,0.0,0.0,0.0,0.0,0.0,0.0,0.0,0.0,0.0,0.0,0.0,0.0,0.0,0.0,0.0,0.0,0.0,0.0,0.0,0.0,0.0,0.0,0.0,0.0,0.0,0.0,0.0,0.0,0.0,0.0,0.0,0.0,0.0,0.0,0.0,0.0,0.0,0.0,0.0,0.0,0.0,0.0,0.0,0.0,0.0,0.0,0.0,0.0,0.0,0.0,0.0,0.0,0.0,0.0,0.0,0.0,0.0,0.0,0.0,0.0,0.0,0.0,0.0,0.0,0.0,0.0,0.0,0.0,0.0,0.0,0.0,0.0,0.0,0.0,0.0,0.0,0.0,0.0,0.0,0.0,0.0,0.0,0.0,0.0,0.0,0.0,0.0,0.0,0.0,0.0,0.0,0.0,0.0,0.0,0.0,0.0,0.0,0.0,0.0,0.0,0.0,0.0,0.0,0.0,0.0,0.0,0.0,0.0,0.0,0.0,0.0,0.0,0.0,0.0,0.0,0.0,0.0,0.0,0.0,0.0,0.0,0.0,0.0,0.0,0.0,0.0,0.0,0.0,0.0,0.0,0.0,0.0,0.0,0.0,0.0,0.0,0.0,0.0,0.0,0.0,0.0,0.0,0.0,0.0,0.0,0.0,0.0,0.0,0.0,0.0,0.0,0.0,0.0,0.0,0.0,0.0,0.0,0.0,0.0,0.0,0.0,0.0,0.0,0.0,0.0,0.0,0.0,0.0,0.0,0.0,0.0,0.0,0.0,0.0,0.0,0.0,0.0,0.0,0.0,0.0,0.0,0.0,0.0,0.0,0.0,0.0,0.0,0.0,0.0,0.0,0.0,0.0,0.0,0.0,0.0,0.0,0.0,0.0,0.0,0.0,0.0,0.0,0.0,0.0,0.0,0.0,0.0,0.0,0.0,0.0,0.0,0.0,0.0,0.0,0.0,0.0,0.0,0.0,0.0,0.0,0.0,0.0,0.0,0.0,0.0,0.0,0.0,0.0,0.0,0.0,0.0,0.0,0.0,0.0,0.0,0.0,0.0,0.0,0.0,0.0,0.0,0.0,0.0,0.0,0.0,0.0,0.0,0.0,0.0,0.0,0.0,0.0,0.0,0.0,0.0,0.0,0.0,0.0,0.0,0.0,0.0,0.0,0.0,0.0,0.0,0.0,0.0,0.0,0.0,0.0,0.0,0.0,0.0,0.0,0.0,0.0,0.0,0.0,0.0,0.0,0.0,0.0,0.0,0.0,0.0,0.0,0.0,0.0,0.0,0.0,0.0,0.0,0.0,0.0,0.0,0.0,0.0,0.0,0.0,0.0,0.0,0.0,0.0,0.0,0.0,0.0,0.0,0.0,0.0,0.0,0.0,0.0,0.0,4.7007,0.0,0.0,0.0,0.0,0.0,0.0,0.0,0.0,0.0,0.0,0.0,0.0,0.0,0.0,0.0,0.0,0.0,0.0,0.0,0.0,0.0,0.0,0.0,0.0,0.0,0.0,0.0,0.0,0.0,0.0,0.0,0.0,0.0,0.0,0.0,0.0,0.0,0.0,0.0,0.0,0.0,0.0,0.0,0.0,0.0,0.0,0.0,0.0,0.0,0.0,0.0,0.0,0.0,0.0,0.0,0.0,0.0,0.0,0.0,0.0,0.0,0.0,0.0,0.0,0.0,0.0,0.0,0.0,0.0,0.0,0.0,0.0,0.0,0.0,0.0,0.0,0.0,0.0,0.0,0.0,0.0,0.0,0.0,0.0,0.0,0.0,0.0,0.0,0.0,0.0,0.0,0.0,0.0,0.0,0.0,0.0,0.0,0.0,0.0,0.0,0.0,0.0,0.0,0.0,0.0,0.0,0.0,0.0,0.0,0.0,5.1615,5.195,5.088,4.9255,4.7186,0.0,0.0,0.0,0.0,0.0,0.0,0.0,0.0,0.0,0.0,0.0,0.0,0.0,0.0,0.0,0.0,0.0,0.0,0.0,0.0,0.0,0.0,0.0,0.0,0.0,0.0,0.0,0.0,0.0,0.0,0.0,0.0,0.0,0.0,0.0,0.0,0.0,0.0,0.0,0.0,0.0,0.0,0.0,0.0,0.0,0.0,0.0,0.0,0.0,0.0,0.0,0.0,0.0,0.0,0.0,0.0,0.0,0.0,0.0,0.0,0.0,0.0,0.0,0.0,0.0,0.0,0.0,0.0,0.0,0.0,0.0,0.0,0.0,0.0,0.0,0.0,0.0,0.0,0.0,0.0,0.0,0.0,0.0,0.0,0.0,0.0,0.0,0.0,0.0,0.0,0.0,0.0,0.0,0.0,0.0,0.0,0.0,0.0,0.0,0.0,0.0,0.0,0.0,0.0,0.0,0.0,0.0,0.0,0.0,0.0,0.0,0.0,5.1499,4.9806,4.7191,0.0,0.0,0.0,0.0,0.0,0.0,0.0,0.0,0.0,0.0,0.0,0.0,0.0,0.0,0.0,0.0,0.0,0.0,0.0,0.0,0.0,0.0,0.0,0.0,0.0,0.0,0.0,0.0,0.0,0.0,0.0,0.0,0.0,0.0,0.0,0.0,0.0,0.0,0.0,0.0,0.0,0.0,0.0,0.0,0.0,0.0,0.0,0.0,0.0,0.0,0.0,0.0,0.0,0.0,0.0,0.0,0.0,0.0,0.0,0.0,0.0,0.0,0.0,0.0,0.0,0.0,0.0,0.0,0.0,0.0,0.0,0.0,0.0,0.0,0.0,0.0,0.0,0.0,0.0,0.0,0.0,0.0,0.0,0.0,0.0,0.0,0.0,0.0,0.0,0.0,0.0,0.0,0.0,0.0,0.0,0.0,0.0,0.0,0.0,0.0,0.0,0.0,0.0,0.0,0.0,0.0,0.0,0.0,0.0,0.0,5.1604,5.3031,5.227,0.0,4.7337,0.0,0.0,0.0,0.0,0.0,0.0,0.0,0.0,0.0,0.0,0.0,0.0,0.0,0.0,0.0,0.0,0.0,0.0,0.0,0.0,0.0,0.0,0.0,0.0,0.0,0.0,0.0,0.0,0.0,0.0,0.0,0.0,0.0,0.0,0.0,0.0,0.0,0.0,0.0,0.0,0.0,0.0,0.0,0.0,0.0,0.0,0.0,0.0,0.0,0.0,0.0,0.0,0.0,0.0,0.0,0.0,0.0,0.0,0.0,0.0,0.0,0.0,0.0,0.0,0.0,0.0,0.0,0.0,0.0,0.0,0.0,0.0,0.0,0.0,0.0,0.0,0.0,0.0,0.0,0.0,0.0,0.0,0.0,0.0,0.0,0.0,0.0,0.0,0.0,0.0,0.0,0.0,0.0,0.0,0.0,0.0,0.0,0.0,0.0,0.0,0.0,0.0,0.0,0.0,0.0,0.0,0.0,0.0,0.0,0.0,0.0,5.2454,5.0765,4.8957,0.0,0.0,0.0,0.0,0.0,0.0,0.0,0.0,0.0,0.0,0.0,0.0,0.0,0.0,0.0,0.0,0.0,0.0,0.0,0.0,0.0,0.0,0.0,0.0,0.0,0.0,0.0,0.0,0.0,0.0,0.0,0.0,0.0,0.0,0.0,0.0,0.0,0.0,0.0,0.0,0.0,0.0,0.0,0.0,0.0,0.0,0.0,0.0,0.0,0.0,0.0,0.0,0.0,0.0,0.0,0.0,0.0,0.0,0.0,0.0,0.0,0.0,0.0,0.0,0.0,0.0,0.0,0.0,0.0,0.0,0.0,0.0,0.0,0.0,0.0,0.0,0.0,0.0,0.0,0.0,0.0,0.0,0.0,0.0,0.0,0.0,0.0,0.0,0.0,0.0,0.0,0.0,0.0,0.0,0.0,0.0,0.0,0.0,0.0,0.0,0.0,0.0,0.0,0.0,0.0,0.0,0.0,0.0,0.0,0.0,5.1017,0.0,5.1541,4.9921,4.8301,4.6828,0.0,0.0,0.0,0.0,0.0,0.0,0.0,0.0,0.0,0.0,0.0,0.0,0.0,0.0,0.0,0.0,0.0,0.0,0.0,0.0,0.0,0.0,0.0,0.0,0.0,0.0,0.0,0.0,0.0,0.0,0.0,0.0,0.0,0.0,0.0,0.0,0.0,0.0,0.0,0.0,0.0,0.0,0.0,0.0,0.0,0.0,0.0,0.0,0.0,0.0,0.0,0.0,0.0,0.0,0.0,0.0,0.0,0.0,0.0,0.0,0.0,0.0,0.0,0.0,0.0,0.0,0.0,0.0,0.0,0.0,0.0,0.0,0.0,0.0,0.0,0.0,0.0,0.0,0.0,0.0,0.0,0.0,0.0,0.0,0.0,0.0,0.0,0.0,0.0,0.0,0.0,0.0,0.0,0.0,0.0,0.0,0.0,0.0,0.0,0.0,0.0,0.0,0.0,0.0,0.0,0.0,0.0,0.0,0.0,5.1563,5.0797,5.0875,5.0729,4.9182,0.0,0.0,0.0,0.0,0.0,0.0,0.0,0.0,0.0,0.0,0.0,0.0,0.0,0.0,0.0,0.0,0.0,0.0,0.0,0.0,0.0,0.0,0.0,0.0,0.0,0.0,0.0,0.0,0.0,0.0,0.0,0.0,0.0,0.0,0.0,0.0,0.0,0.0,0.0,0.0,0.0,0.0,0.0,0.0,0.0,0.0,0.0,0.0,0.0,0.0,0.0,0.0,0.0,0.0,0.0,0.0,0.0,0.0,0.0,0.0,0.0,0.0,0.0,0.0,0.0,0.0,0.0,0.0,0.0,0.0,0.0,0.0,0.0,0.0,0.0,0.0,0.0,0.0,0.0,0.0,0.0,0.0,0.0,0.0,0.0,0.0,0.0,0.0,0.0,0.0,0.0,0.0,0.0,0.0,0.0,0.0,0.0,0.0,0.0,0.0,0.0,0.0,0.0,0.0,0.0,0.0,0.0,0.0,0.0,5.0021,5.0031,5.0518,5.1431,4.9544,4.8113,0.0,0.0,0.0,0.0,0.0,0.0,0.0,0.0,0.0,0.0,0.0,0.0,0.0,0.0,0.0,0.0,0.0,0.0,0.0,0.0,0.0,0.0,0.0,0.0,0.0,0.0,0.0,0.0,0.0,0.0,0.0,0.0,0.0,0.0,0.0,0.0,0.0,0.0,0.0,0.0,0.0,0.0,0.0,0.0,0.0,0.0,0.0,0.0,0.0,0.0,0.0,0.0,0.0,0.0,0.0,0.0,0.0,0.0,0.0,0.0,0.0,0.0,0.0,0.0,0.0,0.0,0.0,0.0,0.0,0.0,0.0,0.0,0.0,0.0,0.0,0.0,0.0,0.0,0.0,0.0,0.0,0.0,0.0,0.0,0.0,0.0,0.0,0.0,0.0,0.0,0.0,0.0,0.0,0.0,0.0,0.0,0.0,0.0,0.0,0.0,0.0,0.0,0.0,0.0,0.0,0.0,0.0,0.0,0.0,4.8746,0.0,5.0775,0.0,4.8925,4.753,0.0,0.0,0.0,0.0,0.0,0.0,0.0,0.0,0.0,0.0,0.0,0.0,0.0,0.0,0.0,0.0,0.0,0.0,0.0,0.0,0.0,0.0,0.0,0.0,0.0,0.0,0.0,0.0,0.0,0.0,0.0,0.0,0.0,0.0,0.0,0.0,0.0,0.0,0.0,0.0,0.0,0.0,0.0,0.0,0.0,0.0,0.0,0.0,0.0,0.0,0.0,0.0,0.0,0.0,0.0,0.0,0.0,0.0,0.0,0.0,0.0,0.0,0.0,0.0,0.0,0.0,0.0,0.0,0.0,0.0,0.0,0.0,0.0,0.0,0.0,0.0,0.0,0.0,0.0,0.0,0.0,0.0,0.0,0.0,0.0,0.0,0.0,0.0,0.0,0.0,0.0,0.0,0.0,0.0,0.0,0.0,0.0,0.0,0.0,0.0,0.0,0.0,0.0,0.0,0.0,0.0,0.0,0.0,4.8003,4.9605,5.1867,5.1599,4.8563,4.9118,4.7664,0.0,0.0,0.0,0.0,0.0,0.0,0.0,0.0,0.0,0.0,0.0,0.0,0.0,0.0,0.0,0.0,0.0,0.0,0.0,0.0,0.0,0.0,0.0,0.0,0.0,0.0,0.0,0.0,0.0,0.0,0.0,0.0,0.0,0.0,0.0,0.0,0.0,0.0,0.0,0.0,0.0,0.0,0.0,0.0,0.0,0.0,0.0,0.0,0.0,0.0,0.0,0.0,0.0,0.0,0.0,0.0,0.0,0.0,0.0,0.0,0.0,0.0,0.0,0.0,0.0,0.0,0.0,0.0,0.0,0.0,0.0,0.0,0.0,0.0,0.0,0.0,0.0,0.0,0.0,0.0,0.0,0.0,0.0,0.0,0.0,0.0,0.0,0.0,0.0,0.0,0.0,0.0,0.0,0.0,0.0,0.0,0.0,0.0,0.0,0.0,0.0,0.0,0.0,0.0,0.0,0.0,0.0,0.0,0.0,4.9647,5.1431,5.216,5.1599,4.9219,4.7834,0.0,0.0,0.0,0.0,0.0,0.0,0.0,0.0,0.0,0.0,0.0,0.0,0.0,0.0,0.0,0.0,0.0,0.0,0.0,0.0,0.0,0.0,0.0,0.0,0.0,0.0,0.0,0.0,0.0,0.0,0.0,0.0,0.0,0.0,0.0,0.0,0.0,0.0,0.0,0.0,0.0,0.0,0.0,0.0,0.0,0.0,0.0,0.0,0.0,0.0,0.0,0.0,0.0,0.0,0.0,0.0,0.0,0.0,0.0,0.0,0.0,0.0,0.0,0.0,0.0,0.0,0.0,0.0,0.0,0.0,0.0,0.0,0.0,0.0,0.0,0.0,0.0,0.0,0.0,0.0,0.0,0.0,0.0,0.0,0.0,0.0,0.0,0.0,0.0,0.0,0.0,0.0,0.0,0.0,0.0,0.0,0.0,0.0,0.0,0.0,0.0,0.0,0.0,0.0,0.0,0.0,0.0,0.0,0.0,5.1955,5.3419,5.4038,5.3654,5.0865,4.8994,4.8169,0.0,0.0,0.0,0.0,0.0,0.0,0.0,0.0,0.0,0.0,0.0,0.0,0.0,0.0,0.0,0.0,0.0,0.0,0.0,0.0,0.0,0.0,0.0,0.0,0.0,0.0,0.0,0.0,0.0,0.0,0.0,0.0,0.0,0.0,0.0,0.0,0.0,0.0,0.0,0.0,0.0,0.0,0.0,0.0,0.0,0.0,0.0,0.0,0.0,0.0,0.0,0.0,0.0,0.0,0.0,0.0,0.0,0.0,0.0,0.0,0.0,0.0,0.0,0.0,0.0,0.0,0.0,0.0,0.0,0.0,0.0,0.0,0.0,0.0,0.0,0.0,0.0,0.0,0.0,0.0,0.0,0.0,0.0,0.0,0.0,0.0,0.0,0.0,0.0,0.0,0.0,0.0,0.0,0.0,0.0,0.0,0.0,0.0,0.0,0.0,0.0,0.0,0.0,0.0,0.0,0.0,0.0,0.0,5.5952,5.7562,5.7262,5.4845,5.3733,5.1012,0.0,0.0,0.0,0.0,0.0,0.0,0.0,0.0,0.0,0.0,0.0,0.0,0.0,0.0,0.0,0.0,0.0,0.0,0.0,0.0,0.0,0.0,0.0,0.0,0.0,0.0,0.0,0.0,0.0,0.0,0.0,0.0,0.0,0.0,0.0,0.0,0.0,0.0,0.0,0.0,0.0,0.0,0.0,0.0,0.0,0.0,0.0,0.0,0.0,0.0,0.0,0.0,0.0,0.0,0.0,0.0,0.0,0.0,0.0,0.0,0.0,0.0,0.0,0.0,0.0,0.0,0.0,0.0,0.0,0.0,0.0,0.0,0.0,0.0,0.0,0.0,0.0,0.0,0.0,0.0,0.0,0.0,0.0,0.0,0.0,0.0,0.0,0.0,0.0,0.0,0.0,0.0,0.0,0.0,0.0,0.0,0.0,0.0,0.0,0.0,0.0,0.0,0.0,0.0,0.0,0.0,0.0,0.0,0.0,5.9985,6.2218,6.1918,5.8872,5.5159,5.2338,0.0,0.0,0.0,0.0,0.0,0.0,0.0,0.0,0.0,0.0,0.0,0.0,0.0,0.0,0.0,0.0,0.0,0.0,0.0,0.0,0.0,0.0,0.0,0.0,0.0,0.0,0.0,0.0,0.0,0.0,0.0,0.0,0.0,0.0,0.0,0.0,0.0,0.0,0.0,0.0,0.0,0.0,0.0,0.0,0.0,0.0,0.0,0.0,0.0,0.0,0.0,0.0,0.0,0.0,0.0,0.0,0.0,0.0,0.0,0.0,0.0,0.0,0.0,0.0,0.0,0.0,0.0,0.0,0.0,0.0,0.0,0.0,0.0,0.0,0.0,0.0,0.0,0.0,0.0,0.0,0.0,0.0,0.0,0.0,0.0,0.0,0.0,0.0,0.0,0.0,0.0,0.0,0.0,0.0,0.0,0.0,0.0,0.0,0.0,0.0,0.0,0.0,0.0,0.0,0.0,0.0,0.0,0.0,5.9061,6.2071,6.5185,6.5735,6.3509,5.9098,5.539,0.0,0.0,0.0,0.0,0.0,0.0,0.0,0.0,0.0,0.0,0.0,0.0,0.0,0.0,0.0,0.0,0.0,0.0,0.0,0.0,0.0,0.0,0.0,0.0,0.0,0.0,0.0,0.0,0.0,0.0,0.0,0.0,0.0,0.0,0.0,0.0,0.0,0.0,0.0,0.0,0.0,0.0,0.0,0.0,0.0,0.0,0.0,0.0,0.0,0.0,0.0,0.0,0.0,0.0,0.0,0.0,0.0,0.0,0.0,0.0,0.0,0.0,0.0,0.0,0.0,0.0,0.0,0.0,0.0,0.0,0.0,0.0,0.0,0.0,0.0,0.0,0.0,0.0,0.0,0.0,0.0,0.0,0.0,0.0,0.0,0.0,0.0,0.0,0.0,0.0,0.0,0.0,0.0,0.0,0.0,0.0,0.0,0.0,0.0,0.0,0.0,0.0,0.0,0.0,0.0,0.0,0.0,0.0,6.1441,6.3306,6.7056,6.8678,6.7847,6.3766,5.8951,0.0,0.0,0.0,0.0,0.0,0.0,0.0,0.0,0.0,0.0,0.0,0.0,0.0,0.0,0.0,0.0,0.0,0.0,0.0,0.0,0.0,0.0,0.0,0.0,0.0,0.0,0.0,0.0,0.0,0.0,0.0,0.0,0.0,0.0,0.0,0.0,0.0,0.0,0.0,0.0,0.0,0.0,0.0,0.0,0.0,0.0,0.0,0.0,0.0,0.0,0.0,0.0,0.0,0.0,0.0,0.0,0.0,0.0,0.0,0.0,0.0,0.0,0.0,0.0,0.0,0.0,0.0,0.0,0.0,0.0,0.0,0.0,0.0,0.0,0.0,0.0,0.0,0.0,0.0,0.0,0.0,0.0,0.0,0.0,0.0,0.0,0.0,0.0,0.0,0.0,0.0,0.0,0.0,0.0,0.0,0.0,0.0,0.0,0.0,0.0,0.0,0.0,0.0,0.0,0.0,0.0,0.0,0.0,6.3068,6.6592,6.8758,6.9743,6.9566,6.3796,5.8914,0.0,0.0,0.0,0.0,0.0,0.0,0.0,0.0,0.0,0.0,0.0,0.0,0.0,0.0,0.0,0.0,0.0,0.0,0.0,0.0,0.0,0.0,0.0,0.0,0.0,0.0,0.0,0.0,0.0,0.0,0.0,0.0,0.0,0.0,0.0,0.0,0.0,0.0,0.0,0.0,0.0,0.0,0.0,0.0,0.0,0.0,0.0,0.0,4.7966,0.0,0.0,0.0,0.0,0.0,0.0,0.0,0.0,0.0,0.0,0.0,0.0,0.0,0.0,0.0,0.0,0.0,0.0,0.0,0.0,0.0,0.0,0.0,0.0,0.0,0.0,0.0,0.0,0.0,0.0,0.0,0.0,0.0,0.0,0.0,0.0,0.0,0.0,0.0,0.0,0.0,0.0,0.0,0.0,0.0,0.0,0.0,0.0,0.0,0.0,0.0,0.0,0.0,0.0,0.0,0.0,0.0,0.0,0.0,6.4573,6.8171,6.9816,7.0477,6.997,6.5668,6.1233,0.0,0.0,0.0,0.0,0.0,0.0,0.0,0.0,0.0,0.0,0.0,0.0,0.0,0.0,0.0,0.0,0.0,0.0,0.0,0.0,0.0,0.0,0.0,0.0,0.0,0.0,0.0,0.0,0.0,0.0,0.0,0.0,0.0,0.0,0.0,0.0,0.0,0.0,0.0,0.0,0.0,0.0,0.0,0.0,0.0,0.0,0.0,0.0,0.0,0.0,0.0,0.0,0.0,0.0,0.0,0.0,0.0,0.0,0.0,0.0,0.0,0.0,0.0,0.0,0.0,0.0,0.0,0.0,0.0,0.0,0.0,0.0,0.0,0.0,0.0,0.0,0.0,0.0,0.0,0.0,0.0,0.0,0.0,0.0,0.0,0.0,0.0,0.0,0.0,0.0,0.0,0.0,0.0,0.0,0.0,0.0,0.0,0.0,0.0,0.0,0.0,0.0,0.0,0.0,0.0,0.0,0.0,6.1924,6.5785,6.9148,7.072,7.1057,7.0117,6.7877,6.3949,5.8259,0.0,0.0,0.0,0.0,0.0,0.0,0.0,0.0,0.0,0.0,0.0,0.0,0.0,0.0,0.0,0.0,0.0,0.0,0.0,0.0,0.0,0.0,0.0,0.0,0.0,0.0,0.0,0.0,0.0,0.0,0.0,0.0,0.0,0.0,0.0,0.0,0.0,0.0,4.7396,4.9026,0.0,0.0,0.0,0.0,0.0,0.0,0.0,0.0,4.9229,0.0,0.0,0.0,0.0,0.0,0.0,0.0,0.0,0.0,0.0,0.0,0.0,0.0,0.0,0.0,0.0,0.0,0.0,0.0,0.0,0.0,0.0,0.0,0.0,0.0,0.0,0.0,0.0,0.0,0.0,0.0,0.0,0.0,0.0,0.0,0.0,0.0,0.0,0.0,0.0,0.0,0.0,0.0,0.0,0.0,0.0,0.0,0.0,0.0,0.0,0.0,0.0,0.0,0.0,0.0,0.0,6.1728,6.3319,6.6299,7.0793,7.1828,7.1615,7.0153,6.8391,6.4506,5.8364,0.0,0.0,0.0,0.0,0.0,0.0,0.0,0.0,0.0,0.0,0.0,0.0,0.0,0.0,0.0,0.0,0.0,0.0,0.0,0.0,0.0,0.0,0.0,0.0,0.0,0.0,0.0,0.0,0.0,0.0,0.0,0.0,0.0,0.0,0.0,0.0,0.0,0.0,0.0,5.2545,5.3188,0.0,0.0,0.0,0.0,0.0,0.0,0.0,0.0,5.0119,0.0,0.0,0.0,0.0,0.0,0.0,0.0,0.0,0.0,0.0,0.0,0.0,0.0,0.0,0.0,0.0,0.0,0.0,0.0,0.0,0.0,0.0,0.0,0.0,0.0,0.0,0.0,0.0,0.0,0.0,0.0,0.0,0.0,0.0,0.0,0.0,0.0,0.0,0.0,0.0,0.0,0.0,0.0,0.0,0.0,0.0,0.0,0.0,0.0,0.0,0.0,0.0,0.0,0.0,0.0,6.3172,6.5925,6.9155,7.3032,7.3553,7.2562,7.0153,6.7724,6.3796,0.0,0.0,0.0,0.0,0.0,0.0,0.0,0.0,0.0,0.0,0.0,0.0,0.0,0.0,0.0,0.0,0.0,0.0,0.0,0.0,0.0,0.0,0.0,0.0,0.0,0.0,0.0,0.0,0.0,0.0,0.0,0.0,0.0,0.0,0.0,0.0,0.0,0.0,0.0,0.0,5.4281,5.5023,5.6613,0.0,0.0,0.0,0.0,0.0,0.0,5.0986,5.0624,0.0,0.0,0.0,0.0,0.0,0.0,0.0,0.0,0.0,0.0,0.0,0.0,0.0,0.0,0.0,0.0,0.0,0.0,0.0,0.0,0.0,0.0,0.0,0.0,0.0,0.0,0.0,0.0,0.0,0.0,0.0,0.0,0.0,0.0,0.0,0.0,0.0,0.0,0.0,0.0,0.0,0.0,0.0,0.0,0.0,0.0,0.0,0.0,0.0,0.0,0.0,0.0,0.0,0.0,0.0,6.4157,6.8134,7.1798,7.5197,7.505,7.359,7.0844,6.7247,6.3092,0.0,0.0,0.0,0.0,0.0,0.0,0.0,0.0,0.0,0.0,0.0,0.0,0.0,0.0,0.0,0.0,0.0,0.0,0.0,0.0,0.0,0.0,0.0,0.0,0.0,0.0,0.0,0.0,0.0,0.0,0.0,0.0,0.0,0.0,0.0,0.0,0.0,0.0,0.0,0.0,0.0,5.698,5.8064,5.5647,0.0,0.0,0.0,0.0,5.2407,5.2742,0.0,0.0,0.0,0.0,0.0,0.0,0.0,0.0,0.0,0.0,0.0,0.0,0.0,0.0,0.0,0.0,0.0,0.0,0.0,0.0,0.0,0.0,0.0,0.0,0.0,0.0,0.0,0.0,0.0,0.0,0.0,0.0,0.0,0.0,0.0,0.0,0.0,0.0,0.0,0.0,0.0,0.0,0.0,0.0,0.0,0.0,0.0,0.0,0.0,0.0,0.0,0.0,0.0,0.0,0.0,0.0,6.5001,6.8421,7.2342,7.6694,7.5637,7.4368,7.3237,6.8121,6.3343,0.0,0.0,0.0,0.0,0.0,0.0,0.0,0.0,0.0,0.0,0.0,0.0,0.0,0.0,0.0,0.0,0.0,0.0,0.0,0.0,0.0,0.0,0.0,0.0,0.0,0.0,0.0,0.0,0.0,0.0,0.0,0.0,0.0,0.0,0.0,0.0,0.0,0.0,0.0,0.0,0.0,5.9642,5.9123,5.6932,5.5506,0.0,0.0,5.58,5.7912,5.9428,0.0,0.0,0.0,0.0,0.0,0.0,0.0,0.0,0.0,0.0,0.0,0.0,0.0,0.0,0.0,0.0,0.0,0.0,0.0,0.0,0.0,0.0,0.0,0.0,0.0,0.0,0.0,0.0,0.0,0.0,0.0,0.0,0.0,0.0,0.0,0.0,0.0,0.0,0.0,0.0,0.0,0.0,0.0,0.0,0.0,0.0,0.0,0.0,0.0,0.0,0.0,0.0,0.0,0.0,0.0,6.0597,6.6592,7.1174,7.5219,7.8508,7.7105,7.5461,7.3751,6.7313,6.2426,0.0,0.0,0.0,0.0,0.0,0.0,0.0,0.0,0.0,0.0,0.0,0.0,0.0,0.0,0.0,0.0,0.0,0.0,0.0,0.0,0.0,0.0,0.0,0.0,0.0,0.0,0.0,0.0,0.0,0.0,0.0,0.0,0.0,0.0,0.0,0.0,0.0,0.0,0.0,0.0,0.0,0.0,6.056,5.9648,0.0,0.0,0.0,5.8364,5.8417,0.0,0.0,0.0,0.0,0.0,0.0,0.0,0.0,0.0,0.0,0.0,0.0,0.0,0.0,0.0,0.0,0.0,0.0,0.0,0.0,0.0,0.0,0.0,0.0,0.0,0.0,0.0,0.0,0.0,0.0,0.0,0.0,0.0,0.0,0.0,0.0,0.0,0.0,0.0,0.0,0.0,0.0,0.0,0.0,0.0,0.0,0.0,0.0,0.0,0.0,0.0,0.0,0.0,0.0,0.0,0.0,0.0,6.7958,7.3751,7.8002,8.0542,7.9095,7.7076,7.4588,6.8128,0.0,0.0,0.0,0.0,0.0,0.0,0.0,0.0,0.0,0.0,0.0,0.0,0.0,0.0,0.0,0.0,0.0,0.0,0.0,0.0,0.0,0.0,0.0,0.0,0.0,0.0,0.0,4.0932,0.0,0.0,0.0,0.0,0.0,0.0,0.0,0.0,0.0,0.0,0.0,0.0,0.0,0.0,6.0933,6.1533,6.1967,6.2224,0.0,0.0,6.0991,6.0099,6.1535,6.0798,0.0,0.0,0.0,0.0,0.0,0.0,0.0,0.0,0.0,0.0,0.0,0.0,0.0,0.0,0.0,0.0,0.0,0.0,0.0,0.0,0.0,0.0,0.0,0.0,0.0,0.0,0.0,0.0,0.0,0.0,0.0,0.0,0.0,0.0,0.0,0.0,0.0,0.0,0.0,0.0,0.0,0.0,0.0,0.0,0.0,0.0,0.0,0.0,0.0,0.0,0.0,0.0,0.0,0.0,0.0,6.8788,7.5175,7.9902,8.2977,8.1591,7.9564,7.7061,7.2232,6.6388,0.0,0.0,0.0,0.0,0.0,0.0,0.0,0.0,0.0,0.0,0.0,0.0,0.0,0.0,0.0,0.0,0.0,0.0,0.0,0.0,0.0,0.0,0.0,0.0,0.0,0.0,0.0,0.0,0.0,0.0,0.0,0.0,0.0,0.0,0.0,0.0,0.0,0.0,0.0,0.0,0.0,6.1563,6.16,6.2921,6.472,0.0,0.0,6.4264,6.5495,6.7649,6.6411,5.8085,0.0,0.0,0.0,0.0,0.0,0.0,0.0,0.0,0.0,0.0,0.0,0.0,0.0,0.0,0.0,0.0,0.0,0.0,0.0,0.0,0.0,0.0,0.0,0.0,0.0,0.0,0.0,0.0,0.0,0.0,0.0,0.0,0.0,0.0,0.0,0.0,0.0,0.0,0.0,0.0,0.0,0.0,0.0,0.0,0.0,0.0,0.0,0.0,0.0,0.0,0.0,0.0,0.0,6.2909,6.8855,7.4764,7.9308,8.2192,8.0359,7.8344,7.635,7.1559,6.6197,0.0,0.0,0.0,0.0,0.0,0.0,0.0,0.0,0.0,0.0,0.0,0.0,0.0,0.0,0.0,0.0,0.0,0.0,0.0,0.0,0.0,0.0,0.0,0.0,0.0,0.0,0.0,0.0,4.7177,4.7315,4.631,0.0,0.0,0.0,0.0,0.0,0.0,0.0,0.0,0.0,0.0,6.4604,6.6549,6.7797,0.0,0.0,6.9148,6.8182,6.7194,6.7891,6.6238,5.9521,5.6446,0.0,0.0,0.0,0.0,0.0,0.0,0.0,0.0,0.0,0.0,0.0,0.0,0.0,0.0,0.0,0.0,0.0,0.0,0.0,0.0,0.0,0.0,0.0,0.0,0.0,0.0,0.0,0.0,0.0,0.0,0.0,0.0,0.0,0.0,0.0,0.0,0.0,0.0,0.0,0.0,0.0,0.0,0.0,0.0,0.0,0.0,0.0,0.0,0.0,0.0,0.0,0.0,6.3686,6.9582,7.5417,7.9619,8.2086,8.0262,7.8207,7.5917,7.1898,6.705,0.0,0.0,0.0,0.0,0.0,0.0,0.0,0.0,0.0,0.0,0.0,0.0,0.0,0.0,0.0,0.0,0.0,0.0,0.0,0.0,0.0,0.0,0.0,0.0,0.0,0.0,0.0,0.0,4.8825,4.8416,4.7223,0.0,0.0,0.0,0.0,0.0,0.0,0.0,0.0,0.0,0.0,6.6799,6.9052,7.047,7.1197,7.0977,7.011,6.9012,6.7713,6.7151,6.5272,6.0678,0.0,0.0,0.0,0.0,0.0,0.0,0.0,0.0,0.0,0.0,0.0,0.0,0.0,0.0,0.0,0.0,0.0,0.0,0.0,0.0,0.0,0.0,0.0,0.0,0.0,0.0,0.0,4.6766,0.0,0.0,4.4642,0.0,0.0,0.0,0.0,0.0,0.0,0.0,0.0,0.0,0.0,0.0,0.0,0.0,0.0,0.0,0.0,0.0,0.0,0.0,0.0,0.0,0.0,6.4787,7.1197,7.7486,8.1518,8.2863,8.2121,7.9943,7.6531,7.4163,6.9691,6.2753,0.0,0.0,0.0,0.0,0.0,0.0,0.0,0.0,0.0,0.0,0.0,0.0,0.0,0.0,0.0,0.0,0.0,0.0,0.0,0.0,0.0,0.0,0.0,0.0,0.0,0.0,4.7337,4.7186,4.7149,0.0,0.0,0.0,0.0,0.0,0.0,0.0,0.0,0.0,0.0,6.3582,6.7707,6.7884,6.9853,7.1167,7.0403,6.7607,6.5973,6.7384,6.6154,6.4131,0.0,0.0,0.0,0.0,0.0,0.0,0.0,0.0,0.0,0.0,0.0,0.0,0.0,0.0,0.0,0.0,0.0,0.0,0.0,0.0,0.0,0.0,0.0,0.0,0.0,0.0,0.0,5.1183,5.0371,0.0,0.0,0.0,0.0,0.0,0.0,0.0,0.0,0.0,0.0,0.0,5.8839,5.9399,0.0,0.0,0.0,0.0,0.0,0.0,0.0,0.0,0.0,0.0,0.0,0.0,6.5925,7.1242,7.6494,8.0054,8.1826,7.9887,7.7743,7.5481,7.3156,6.7999,5.9788,0.0,0.0,0.0,0.0,0.0,0.0,0.0,0.0,0.0,0.0,0.0,0.0,0.0,0.0,0.0,0.0,0.0,0.0,0.0,0.0,0.0,0.0,0.0,0.0,0.0,4.905,0.0,0.0,0.0,0.0,0.0,0.0,0.0,0.0,0.0,0.0,0.0,5.9281,6.1753,6.6225,6.9867,7.1482,7.2826,7.3949,0.0,0.0,0.0,0.0,0.0,0.0,0.0,0.0,0.0,0.0,0.0,0.0,0.0,0.0,6.1995,5.4952,5.3859,5.4091,5.4259,0.0,0.0,0.0,0.0,0.0,0.0,0.0,0.0,0.0,0.0,0.0,0.0,0.0,0.0,5.5209,0.0,5.2942,0.0,0.0,0.0,0.0,0.0,0.0,0.0,0.0,6.0698,6.2566,6.3553,6.4367,6.3666,0.0,6.1419,5.8378,0.0,0.0,0.0,0.0,0.0,0.0,0.0,0.0,6.7139,7.1177,7.6252,7.9371,8.0296,7.8387,7.6633,7.5192,7.2155,6.7286,6.0462,5.6976,5.3106,0.0,0.0,0.0,0.0,0.0,0.0,0.0,0.0,0.0,0.0,0.0,0.0,0.0,0.0,0.0,0.0,0.0,0.0,0.0,0.0,0.0,0.0,0.0,5.0734,0.0,0.0,0.0,0.0,0.0,0.0,0.0,0.0,0.0,5.7011,6.0162,6.3649,6.6629,6.9779,7.2136,7.3127,0.0,0.0,0.0,0.0,0.0,0.0,0.0,6.633,6.6039,6.4696,6.4231,6.5872,6.8208,6.944,6.8132,0.0,0.0,6.0786,5.981,6.0195,6.0403,6.164,6.2753,6.3019,6.4918,6.6495,0.0,0.0,0.0,0.0,0.0,0.0,0.0,0.0,5.9844,5.9674,0.0,5.7442,0.0,0.0,0.0,0.0,0.0,5.743,0.0,0.0,6.7349,6.9428,6.821,6.8921,6.8527,6.7039,6.6326,6.4507,6.1663,5.8624,0.0,0.0,0.0,0.0,0.0,0.0,6.8447,7.1084,7.6878,7.9536,7.867,7.7719,7.6701,7.5556,7.1526,6.7861,6.4715,6.1129,5.7509,5.3822,5.1344,0.0,0.0,0.0,0.0,0.0,0.0,0.0,0.0,0.0,0.0,0.0,0.0,0.0,0.0,0.0,0.0,0.0,0.0,0.0,0.0,5.2297,0.0,0.0,0.0,0.0,0.0,0.0,0.0,0.0,0.0,0.0,6.2113,6.4695,6.8054,7.1865,0.0,0.0,0.0,0.0,7.3767,7.0746,6.8669,6.786,6.8558,6.7684,6.769,6.9913,0.0,0.0,6.9428,7.0567,7.0928,6.8673,7.0218,7.0996,6.9462,6.7684,6.7006,6.7689,6.6784,6.6739,6.8707,6.9584,7.0275,6.6958,0.0,0.0,0.0,0.0,6.3372,6.4691,6.6721,6.7127,6.6485,6.4918,6.3169,0.0,0.0,0.0,0.0,0.0,0.0,6.3343,6.6896,6.9178,7.1086,7.2687,7.3443,7.3308,7.2349,7.1616,7.0732,6.9689,6.7661,6.3094,5.6249,0.0,0.0,0.0,0.0,6.9551,7.2423,7.6186,7.8276,7.8568,7.7011,7.551,7.4165,7.2913,7.0331,6.6328,6.4613,6.1806,5.7602,5.5122,0.0,0.0,0.0,0.0,0.0,0.0,0.0,0.0,0.0,0.0,0.0,0.0,0.0,0.0,0.0,0.0,0.0,0.0,0.0,5.2297,5.344,5.3739,0.0,0.0,0.0,0.0,0.0,0.0,0.0,0.0,0.0,6.8831,6.9566,7.0353,0.0,0.0,7.367,7.2635,7.3705,7.4861,7.5601,7.3572,0.0,7.3723,7.1285,6.9617,7.084,7.2293,7.3443,7.3747,7.5067,7.5709,7.4492,7.483,7.4965,7.3928,7.1717,7.024,7.033,7.0795,7.1405,7.2165,7.3719,7.53,7.4131,7.0117,6.7489,6.6981,6.7963,6.8548,7.0003,7.1966,7.2259,7.1684,7.0432,6.8538,6.5967,6.2878,6.0825,0.0,0.0,0.0,6.6961,7.1298,7.2044,7.3646,7.5912,7.6678,7.6521,7.5495,7.474,7.4178,7.3761,7.2205,6.8381,6.2384,0.0,0.0,6.2243,6.7102,7.0681,7.2837,7.5653,7.7251,7.7434,7.6293,7.5281,7.4402,7.3827,7.2203,6.9553,6.7906,6.5527,6.2245,5.9298,5.5936,0.0,0.0,0.0,0.0,0.0,0.0,0.0,0.0,0.0,0.0,0.0,4.9087,0.0,0.0,0.0,0.0,5.0253,5.2585,5.5315,5.5454,0.0,0.0,0.0,0.0,0.0,0.0,0.0,6.409,6.7387,7.047,7.3114,7.3369,7.3428,7.3823,7.4165,7.4273,7.406,0.0,7.5724,7.7082,7.5816,7.4988,7.5831,7.4253,7.3105,7.3849,7.5528,7.678,7.7029,7.8044,7.8551,7.7976,7.7773,7.7524,7.677,7.5134,7.3837,7.36,7.4221,7.4977,7.5574,7.7068,7.8435,8.0479,7.8843,7.2721,7.0906,7.2112,7.3443,7.4492,7.5258,7.5879,7.5743,7.492,7.3443,7.1515,6.9282,6.6542,0.0,6.8538,6.8538,7.0804,7.4886,7.5574,7.6669,7.809,7.872,7.8336,7.7063,7.6251,7.5673,7.5258,7.3902,7.2449,7.0923,6.9066,6.7835,6.7349,6.9921,7.177,7.2668,7.5387,7.6454,7.5823,7.5709,7.5687,7.5574,7.4368,7.359,7.3319,7.0737,6.8561,6.6971,6.3543,5.9627,5.5356,0.0,0.0,0.0,0.0,0.0,0.0,0.0,0.0,0.0,0.0,0.0,0.0,0.0,0.0,0.0,5.3752,0.0,5.9204,5.8225,0.0,0.0,0.0,5.9281,6.1074,6.3967,6.673,6.8979,0.0,0.0,7.5369,7.6171,7.6871,7.7717,7.6537,7.5809,7.639,7.6491,7.6472,7.6533,7.6288,7.6209,7.6413,7.6591,7.6961,7.7515,7.9139,7.9498,7.8978,7.9363,7.9634,7.8991,7.8978,7.8754,7.8124,7.7751,7.7807,7.7063,7.6961,7.7333,7.8431,7.8992,7.9431,8.0822,8.1481,7.9892,7.8788,7.8111,7.845,7.9363,8.0513,8.0141,7.9545,7.8754,7.6724,7.4559,7.2406,7.1695,7.2304,7.386,7.3849,7.5045,7.713,7.7379,7.7942,7.8809,7.845,7.8382,7.8505,7.7807,7.78,7.8471,7.8388,7.7137,7.4928,7.4598,7.251,6.8827,7.0461,7.2275,7.4082,7.5354,7.6183,7.6589,7.6014,7.5439,7.4886,7.5067,7.439,7.2744,7.1481,7.0083,6.8593,6.5627,6.2726,5.9961,5.5269,0.0,0.0,0.0,0.0,0.0,0.0,0.0,0.0,0.0,5.2758,4.7832,0.0,5.1922,0.0,5.5715,5.913,6.1697,6.1592,0.0,0.0,6.4047,6.4928,6.8298,6.9956,7.1172,7.2126,7.4849,7.6488,7.5983,7.7077,7.795,7.7959,7.7964,7.7802,7.7435,7.7671,7.8101,7.8497,7.8426,7.8553,7.893,7.8775,7.8416,7.8056,7.8327,7.8462,7.8293,7.8394,7.8462,7.8293,7.8259,7.8179,7.8056,7.8022,7.8179,7.8437,7.8145,7.7819,7.8191,7.8346,7.8608,8.2892,8.3375,8.3037,8.2408,8.1642,8.1325,8.182,8.2813,8.2103,8.1562,8.1054,7.8855,7.6995,7.5552,7.5484,7.5958,7.6702,7.6724,7.7379,7.845,7.8496,7.8889,7.9553,7.9172,7.9194,7.9566,7.8855,7.8805,7.9341,7.9245,7.8404,7.7011,7.718,7.5686,7.27,7.2074,7.2617,7.4097,7.5134,7.6082,7.686,7.6454,7.5405,7.3702,7.4018,7.3003,7.0477,6.9383,6.846,6.7629,6.547,6.3255,6.1029,5.7206,5.3943,0.0,0.0,0.0,0.0,0.0,0.0,0.0,0.0,0.0,0.0,0.0,5.4028,5.461,5.8674,6.2134,6.416,6.4763,6.613,6.8864,6.9075,7.0138,7.2961,7.4298,7.5213,7.5755,7.7221,7.8194,7.8086,7.8454,7.8794,7.8955,7.9242,7.9137,7.8481,7.8523,7.8986,7.9657,7.9682,7.9701,8.0141,7.987,7.9452,7.9092,7.9003,7.8969,7.8969,7.8969,7.8969,7.9003,7.8969,7.8969,7.8969,7.9003,7.9126,7.9397,7.9261,7.9003,7.8969,7.9003,7.9126,8.5324,8.4817,8.42,8.393,8.3896,8.3253,8.324,8.3592,8.2834,8.2496,8.2293,8.0365,7.916,7.8563,7.8563,7.8563,7.8563,7.8563,7.8923,7.952,7.952,7.9858,8.0479,8.0479,8.0445,8.031,7.979,7.9418,7.9215,7.8825,7.8431,7.8047,7.8126,7.7719,7.6657,7.4119,7.315,7.3793,7.5134,7.6183,7.686,7.6635,7.51,7.2428,7.2191,7.0804,6.803,6.6485,6.5745,6.5736,6.4392,6.2823,6.1075,5.8671,5.6101,0.0,5.1757,0.0,0.0,0.0,0.0,0.0,0.0,0.0,0.0,5.6132,5.7386,5.8794,6.2281,6.5185,6.7029,6.8089,6.986,7.2732,7.3817,7.4796,7.6165,7.7514,7.8518,7.8953,7.8822,7.921,8.012,7.9744,7.9532,8.0154,8.0309,8.0164,7.9696,7.9518,7.9721,8.0378,8.0378,8.031,8.0242,8.0175,8.0141,8.0175,8.0107,8.0209,8.0107,8.0141,8.0175,8.0141,8.0073,8.0141,8.0209,8.0141,8.0175,8.0141,8.0107,8.0073,8.0073,8.0073,8.0209,8.5366,8.644,8.6318,8.625,8.6264,8.6129,8.5405,8.4356,8.3625,8.2949,8.2395,8.1955,8.1684,8.1562,8.1562,8.1549,8.1596,8.1562,8.165,8.1786,8.1786,8.1853,8.1989,8.1989,8.1663,8.1135,8.1549,8.1143,8.0031,8.1388,8.0656,7.8083,7.8943,7.8211,7.6006,0.0,0.0,0.0,7.6183,7.6758,7.6826,7.5078,7.3319,7.1571,7.0939,0.0,6.7963,6.6485,6.5721,6.5678,6.4412,0.0,0.0,0.0,0.0,0.0,0.0,0.0,0.0,0.0,0.0,0.0,6.0436,6.0042,5.9115,6.0852,6.2708,6.4247,6.6213,6.8649,7.1654,7.2745,7.4079,7.6124,7.6906,7.7851,7.9396,7.9626,7.9612,7.9469,7.9911,8.0016,7.9588,7.9712,8.0289,8.0966,8.1101,8.1291,8.1697,8.1224,8.1169,8.1786,8.1426,8.0898,8.0276,8.0276,8.0344,8.0209,8.0209,8.0209,8.0209,8.0209,8.0209,8.0209,8.0209,8.0209,8.0242,8.0209,8.031,8.0209,8.0242,8.0209,8.0209,8.0209,8.0209,8.6693,8.74,8.7028,8.6893,0.0,8.6893,8.6453,8.5675,8.4945,8.3998,8.2936,8.2949,8.2746,8.2395,8.2395,8.2395,8.2395,8.2395,8.2395,8.2395,8.2395,8.2395,8.2395,8.2395,8.2225,8.1866,8.2192,8.2035,8.1363,8.2221,8.1846,8.0187,8.078,8.0358,7.905,7.8665,7.7921,7.686,7.7244,7.7604,7.7942,7.686,7.5033,7.2496,7.1695,0.0,0.0,0.0,0.0,0.0,0.0,0.0,0.0,0.0,0.0,6.1776,6.099,6.0351,6.0075,6.1729,6.3324,6.4475,6.6271,6.62,6.3577,6.5155,6.675,6.7947,6.9826,7.2099,7.467,7.614,7.7614,7.9267,7.9709,7.9973,8.0056,8.0228,8.0087,7.9598,8.0342,8.0758,8.0263,8.0818,8.1393,8.1765,8.1866,8.2103,8.2712,8.2306,8.2002,8.234,8.2124,8.1731,8.1393,8.1291,8.1122,8.0851,8.0763,8.0581,8.0242,8.0209,8.031,8.0627,8.0763,8.083,8.1224,8.1278,8.1291,8.1291,8.1278,8.1278,8.1245,8.0716,8.0209,8.8206,8.8125,8.755,8.7299,8.7265,8.7279,8.7211,8.7028,0.0,0.0,0.0,8.393,8.349,8.28,8.28,8.28,8.28,8.28,8.2767,8.28,8.28,8.28,8.28,8.28,8.2733,8.2598,8.2733,8.2631,8.2395,8.253,8.2543,8.2428,8.2395,8.2395,8.2361,8.1811,8.0593,7.8834,7.8259,7.8293,7.8877,7.864,7.6927,7.359,7.2665,7.0342,6.6485,6.5459,6.4738,6.4193,6.4042,6.408,6.4332,6.4377,6.4187,6.3846,6.4482,6.4908,6.4897,6.669,6.8222,6.9225,7.1819,7.1853,6.8256,6.9271,7.0432,7.1289,7.3254,7.5184,7.7027,7.8506,8.0024,8.1458,8.154,8.1039,8.0218,8.0432,8.0534,7.9935,8.0813,8.1507,8.1486,8.1968,8.2462,8.2564,8.2598,8.2834,8.3422,8.3219,8.28,8.2712,8.2611,8.253,8.2395,8.2327,8.2158,8.1575,8.1507,8.127,8.0784,8.0581,8.0818,8.1393,8.1507,8.1731,8.2225,8.2293,8.2395,8.2395,8.2395,8.2395,8.2293,8.1447,8.0682,8.8951,8.8917,8.8849,8.8781,8.8781,8.8781,8.8443,8.7786,8.7076,8.6264,8.5499,8.5466,8.5046,8.4309,8.4275,8.4309,8.4275,8.4275,8.4275,8.4275,8.4309,8.4309,8.4275,8.4275,8.395,8.3422,8.3984,8.3633,8.2598,8.3037,8.3016,8.2496,8.2395,8.2428,8.2395,8.2293,8.209,8.1718,7.9295,7.8056,7.8124,7.686,7.5349,7.3556,7.2225,7.059,6.8718,6.7286,6.6459,6.6356,6.5732,6.5963,6.7188,6.7275,6.7826,6.9002,6.9787,7.0218,7.0207,7.1109,7.2496,7.4458,7.6217,7.589,7.2913,7.3341,7.4412,7.5755,7.6216,7.7212,7.8929,7.9456,8.0071,8.1126,8.1059,8.0982,8.1343,8.1288,8.1402,8.1757,8.209,8.2259,8.2272,8.2395,8.2767,8.3186,8.3342,8.3578,8.4153,8.4356,8.4018,8.3524,8.3355,8.3084,8.2699,8.2428,8.2428,8.2293,8.2225,8.2171,8.1955,8.1887,8.1989,8.2205,8.2272,8.234,8.2496,8.2395,8.253,8.2564,8.2598,8.253,8.2564,8.2259,8.209,8.9492,8.9134,8.9134,8.9134,8.9134,8.9134,8.8917,8.8578,8.8226,8.7448,8.6433,8.6399,8.6196,8.5845,8.5845,8.5831,8.5845,8.5831,8.5845,8.5845,8.5831,8.5845,8.5845,8.5845,8.5675,8.5384,8.5249,8.4911,8.4315,8.4153,8.3917,8.3599,8.3612,8.3409,8.3016,8.2983,8.2813,8.2361,8.0695,7.9781,7.9748,7.8686,7.765,7.6555,7.5473,7.4221,7.2732,7.1244,7.0229,6.9846,6.9113,6.9045,6.9711,7.0117,7.0669,7.1357,7.209,7.2699,7.3059,7.4187,7.5439,7.6838,7.7582,7.765,7.6623,7.6487,7.6758,7.7447,7.7515,7.8272,8.0017,8.027,8.0763,8.2037,8.2014,8.1984,8.2075,8.2004,8.2035,8.2395,8.278,8.3016,8.2983,8.3342,8.3667,8.4052,8.4086,8.4255,8.4546,8.458,8.4478,8.4153,8.412,8.3984,8.3633,8.3578,8.3443,8.3071,8.2983,8.28,8.253,8.2428,8.2598,8.2915,8.3016,8.3186,8.3443,8.3599,8.3578,8.3612,8.3612,8.3599,8.3612,8.3612,8.3295,8.9715,8.9357,8.9154,8.9134,8.9134,8.9134,8.9134,8.9134,8.91,8.8463,8.7482,8.7245,8.6961,8.667,8.6839,8.6893,8.6893,8.6893,8.6792,8.667,8.667,8.6636,8.6656,8.667,8.6656,8.6636,8.623,8.5872,8.552,8.5067,8.4796,8.4627,8.458,8.4309,8.3748,8.3761,8.3443,8.2868,8.2171,8.171,8.1541,8.0987,8.0276,7.9384,7.8788,7.7785,7.6263,7.4931,7.3996,7.3443,7.2687,7.2281,7.2349,7.3003,7.3409,7.3477,7.4097,7.4774,7.5359,7.6611,7.7705,7.8428,7.8665,7.9071,7.9689,7.9329,7.8902,7.88,7.8957,7.9673,8.0881,8.1164,8.1613,8.2726,8.2864,8.2746,8.2669,8.2631,8.2733,8.2902,8.3422,8.3761,8.3862,8.4255,8.4512,8.4512,8.458,8.458,8.458,8.458,8.458,8.458,8.458,8.4546,8.458,8.4546,8.4275,8.3795,8.3748,8.3545,8.3139,8.2936,8.3071,8.3625,8.3761,8.393,8.4458,8.4546,8.4478,8.4458,8.4411,8.4512,8.4444,8.4492,8.4242,8.9545,8.9951,8.9357,8.9134,8.9134,8.9134,8.9134,8.9134,8.9134,8.9052,8.8714,8.8206,8.7177,8.6108,8.667,8.6961,8.6961,8.6893,8.6602,8.6075,8.5905,8.5905,8.6041,8.6007,8.5905,8.6041,8.6501,8.6081,8.4931,8.5351,8.5283,8.4695,8.458,8.4593,8.4492,8.4478,8.4444,8.4377,8.3646,8.2949,8.2327,8.2225,8.1515,8.0141,8.004,7.9295,7.7853,7.7041,7.6555,7.642,7.5676,7.527,7.5337,7.6048,7.6454,7.6454,7.7142,7.7616,7.7718,7.8437,7.9261,7.9951,8.0593,8.1202,8.1921,8.1989,8.1663,8.1202,8.1562,8.1889,8.2237,8.2212,8.2242,8.2531,8.2547,8.2681,8.3259,8.3389,8.3659,8.4343,8.4356,8.4478,8.4424,8.4525,8.458,8.4478,8.4559,8.4546,8.4492,8.458,8.458,8.458,8.458,8.458,8.458,8.458,8.4512,8.4444,8.4444,8.4323,8.4187,8.4208,8.4411,8.4187,8.439,8.4458,8.4525,8.458,8.458,8.458,8.458,8.458,8.458,8.458,8.4411,8.9681,8.9526,8.9221,8.9134,8.9134,8.9134,8.9134,8.9134,8.9134,8.8849,8.8511,8.8578,8.8308,8.7766,8.8105,8.8192,8.8206,8.8206,8.8071,8.7766,8.7732,8.7732,8.7732,8.7766,8.7529,8.7076,8.6961,8.6366,8.5452,8.5168,8.4898,8.4627,8.458,8.458,8.458,8.458,8.458,8.458,8.4309,8.3984,8.3646,8.2834,8.2124,8.1549,8.1088,8.0593,7.9917,7.8822,7.82,7.8133,7.7468,7.7075,7.7063,7.7379,7.7536,7.7616,7.8665,7.9295,7.9308,8.0365,8.1177,8.1481,8.1765,8.2103,8.2395,8.28,8.2915,8.2691,8.2475,8.2395,8.2428,8.2395,8.2577,8.2949,8.305,8.3342,8.4052,8.4153,8.4323,8.4546,8.458,8.458,8.458,8.458,8.4424,8.4153,8.4289,8.4478,8.4086,8.4323,8.458,8.458,8.458,8.458,8.458,8.458,8.458,8.458,8.458,8.458,8.458,8.458,8.458,8.458,8.458,8.458,8.4593,8.458,8.458,8.458,8.458,8.458,8.458,8.458,8.458,8.9427,8.9633,8.9492,8.9289,8.9134,8.9134,8.9134,8.9134,8.9134,8.8781,8.8409,8.8883,8.9134,8.9134,8.9134,8.9134,8.9134,8.9134,8.8984,8.8781,8.8612,8.8564,8.8748,8.8342,8.8037,8.7685,8.713,8.6501,8.577,8.4999,8.458,8.458,8.458,8.458,8.4614,8.4796,8.4817,8.4647,8.4783,8.4931,8.4762,8.368,8.2902,8.2699,8.2184,8.1811,8.1608,8.0581,7.9993,7.9993,7.9464,7.9194,7.9206,7.9206,7.9206,7.9274,8.0175,8.0818,8.0818,8.1786,8.2496,8.2678,8.2712,8.2868,8.3287,8.3625,8.3896,8.4078,8.3443,8.3037,8.3003,8.3003,8.324,8.3727,8.3795,8.4052,8.4492,8.458,8.458,8.458,8.458,8.458,8.458,8.458,8.4343,8.3761,8.412,8.4323,8.3795,8.412,8.458,8.458,8.458,8.458,8.458,8.458,8.458,8.458,8.458,8.458,8.458,8.458,8.458,8.458,8.458,8.458,8.458,8.458,8.458,8.458,8.458,8.458,8.458,8.458,8.458,8.8439,9.0895,9.0411,8.9715,8.9134,8.9134,8.9134,8.9134,8.9134,8.9066,8.9018,8.9066,8.9134,8.9134,8.9134,8.9134,8.9134,8.9134,8.8781,8.8158,8.7482,8.7448,8.7936,8.665,8.6379,8.7096,8.6995,8.6501,8.5736,8.4999,8.458,8.458,8.458,8.4614,8.4749,8.5351,8.5351,8.483,8.5384,8.5736,8.5635,8.4898,8.4187,8.3659,8.3389,8.2983,8.2428,8.2259,8.2192,8.2225,8.2022,8.2056,8.2124,8.209,8.1989,8.2056,8.2192,8.2293,8.2259,8.2462,8.2847,8.3355,8.3558,8.4065,8.5229,8.4796,8.4762,8.5567,8.4776,8.4343,8.4343,8.4208,8.4309,8.4424,8.4525,8.4546,8.458,8.458,8.458,8.458,8.458,8.458,8.458,8.458,8.4255,8.3862,8.412,8.4323,8.3781,8.412,8.4512,8.458,8.458,8.458,8.458,8.458,8.458,8.458,8.458,8.458,8.458,8.458,8.458,8.4559,8.4458,8.4458,8.4546,8.458,8.4546,8.4546,8.458,8.458,8.458,8.458,8.458,8.8498,9.058,9.0309,8.9782,8.9134,8.9134,8.9134,8.9134,8.9134,8.9134,8.9134,8.9134,8.9134,8.9134,8.9134,8.9134,8.9134,8.9134,8.8951,8.868,8.8443,8.8463,8.8612,8.8105,8.7732,8.755,8.7096,8.625,8.5134,8.4715,8.458,8.458,8.458,8.483,8.5317,8.5635,8.5635,8.5486,8.6129,8.6298,8.5905,8.5993,8.5946,8.5608,8.4234,8.3402,8.3118,8.2631,8.2395,8.2395,8.2395,8.2395,8.2395,8.2395,8.2395,8.2428,8.2834,8.3118,8.3219,8.4031,8.4687,8.4924,8.4992,8.5351,8.6027,8.5405,8.4931,8.5466,8.508,8.4614,8.458,8.458,8.458,8.458,8.458,8.458,8.458,8.458,8.458,8.458,8.458,8.458,8.458,8.458,8.4289,8.3727,8.412,8.4187,8.3828,8.412,8.458,8.458,8.458,8.458,8.458,8.458,8.458,8.458,8.458,8.458,8.458,8.4512,8.4478,8.4356,8.4255,8.3917,8.3883,8.3984,8.4052,8.4444,8.4492,8.458,8.458,8.458,8.458,8.8846,9.0108,9.0222,8.9782,8.9154,8.9357,8.9458,8.9458,8.9458,8.9458,8.941,8.9221,8.9134,8.9134,8.9134,8.9134,8.9134,8.9134,8.9134,8.91,8.8849,8.8883,8.8984,8.8612,8.8274,8.7922,8.7245,8.6318,8.5473,8.5337,8.5337,8.5358,8.5337,8.5608,8.6095,8.6379,8.6413,8.6366,8.6873,8.7008,8.6602,8.6771,8.7042,8.6974,8.552,8.4471,8.4281,8.3761,8.3355,8.3172,8.3342,8.349,8.3477,8.324,8.324,8.3524,8.3964,8.437,8.464,8.5587,8.6142,8.6129,8.6163,8.6399,8.6758,8.5933,8.5709,8.5858,8.5452,8.4965,8.4931,8.4762,8.458,8.458,8.458,8.458,8.458,8.458,8.458,8.458,8.458,8.458,8.458,8.458,8.4255,8.3592,8.412,8.4289,8.3795,8.412,8.458,8.458,8.458,8.458,8.458,8.458,8.458,8.458,8.458,8.458,8.4546,8.4444,8.4309,8.4187,8.3815,8.3355,8.3219,8.3355,8.3727,8.4187,8.4458,8.458,8.458,8.458,8.458,8.942,9.0306,9.0242,8.9951,8.9458,8.9951,9.0208,9.0188,9.0222,9.0208,9.0154,8.9526,8.9357,8.9221,8.939,8.9221,8.9337,8.9357,8.9269,8.9052,8.8463,8.8531,8.9018,8.7922,8.7617,8.7955,8.7265,8.6927,8.6724,8.6656,8.669,8.6792,8.669,8.669,8.6893,8.7448,8.7516,8.713,8.755,8.7922,8.7888,8.7347,8.7414,8.7854,8.7211,8.6501,8.5838,8.5736,8.5283,8.4796,8.5296,8.577,8.5533,8.4999,8.4931,8.5486,8.5736,8.6108,8.667,8.6805,8.6907,8.6893,8.6893,8.6961,8.713,8.6859,8.6724,8.6771,8.6264,8.5804,8.5601,8.5114,8.4695,8.4614,8.4647,8.4728,8.4614,8.458,8.458,8.458,8.458,8.458,8.458,8.458,8.4323,8.395,8.4153,8.4424,8.3849,8.4221,8.4546,8.458,8.458,8.458,8.458,8.458,8.458,8.458,8.458,8.458,8.4492,8.4424,8.4221,8.4018,8.3274,8.2847,8.3084,8.3219,8.349,8.3917,8.4221,8.458,8.458,8.4546,8.4512,9.1443,9.1715,9.173,9.129,9.0676,9.0865,9.0966,9.0966,9.0966,9.0966,9.0932,9.0696,9.0628,9.0594,9.0608,9.0608,9.0608,9.0575,9.0101,8.9221,8.8883,8.8883,8.8984,8.8646,8.826,8.8023,8.7786,8.738,8.6995,8.6927,8.6893,8.6893,8.6927,8.7164,8.7651,8.7854,8.7651,8.713,8.8125,8.8294,8.7482,8.8037,8.8511,8.868,8.8545,8.8071,8.736,8.6839,8.6467,8.6149,8.6433,8.6569,8.6487,8.6318,8.6318,8.6535,8.6569,8.6602,8.6893,8.738,8.7651,8.7651,8.7637,8.7922,8.8192,8.7482,8.7211,8.7482,8.6974,8.6399,8.5872,8.5601,8.5249,8.4661,8.508,8.5148,8.4762,8.4661,8.458,8.458,8.458,8.458,8.458,8.458,8.4492,8.4289,8.4444,8.4424,8.4356,8.439,8.458,8.458,8.458,8.458,8.458,8.458,8.458,8.458,8.458,8.458,8.4492,8.4255,8.4086,8.3612,8.2868,8.2598,8.2834,8.3037,8.324,8.3849,8.4377,8.4546,8.4546,8.4512,8.4444,9.184,9.2377,9.2392,9.1967,9.1372,9.1575,9.1696,9.1711,9.1711,9.1711,9.1677,9.1406,9.1305,9.1305,9.1305,9.1305,9.1305,9.1305,9.0811,9.0033,8.9898,8.9796,8.9526,8.9187,8.8917,8.8511,8.8409,8.8172,8.7753,8.7719,8.7719,8.7719,8.7719,8.7955,8.8375,8.8395,8.8023,8.755,8.8192,8.824,8.7685,8.8192,8.8815,8.9052,8.91,8.8849,8.8409,8.7955,8.7448,8.6995,8.6893,8.6995,8.7231,8.7062,8.7008,8.7279,8.7333,8.7414,8.7719,8.8158,8.8409,8.8395,8.8395,8.8395,8.8578,8.7854,8.7955,8.7854,8.7583,8.7144,8.6717,8.6332,8.5993,8.554,8.5621,8.5601,8.51,8.5033,8.4864,8.4728,8.458,8.458,8.458,8.458,8.458,8.458,8.458,8.458,8.458,8.458,8.458,8.458,8.458,8.458,8.458,8.458,8.458,8.458,8.458,8.458,8.4559,8.412,8.3815,8.3152,8.2408,8.2272,8.2441,8.2564,8.2767,8.3599,8.4444,8.4546,8.4546,8.4377,8.4343,9.1077,9.2416,9.2474,9.2136,9.1677,9.2203,9.2474,9.2474,9.2474,9.2459,9.2339,9.1913,9.1575,9.1474,9.1691,9.1677,9.1411,9.1102,9.1059,9.0813,9.0576,9.0008,8.9437,8.8879,8.8737,8.9004,8.9018,8.9032,8.8849,8.8849,8.9086,8.8917,8.8883,8.9032,8.8984,8.9052,8.8646,8.7989,8.8091,8.8125,8.7955,8.8125,8.8443,8.91,8.91,8.9052,8.8984,8.8883,8.8342,8.7231,8.713,8.738,8.7786,8.7414,8.7482,8.8023,8.8057,8.8361,8.8883,8.8917,8.8984,8.8984,8.8951,8.8815,8.8375,8.8612,8.8646,8.826,8.8091,8.7989,8.7786,8.7347,8.6961,8.6873,8.6366,8.6007,8.5939,8.5872,8.5432,8.4898,8.4681,8.458,8.458,8.458,8.458,8.458,8.458,8.458,8.458,8.458,8.458,8.458,8.458,8.458,8.458,8.458,8.458,8.458,8.458,8.458,8.458,8.4187,8.3917,8.3186,8.2441,8.2238,8.234,8.2699,8.3037,8.3781,8.4289,8.4492,8.4492,8.4323,8.4289,9.2893,9.3267,9.3267,9.318,9.3011,9.3214,9.3281,9.3281,9.3281,9.3233,9.3214,9.3078,9.2909,9.2977,9.2943,9.3011,9.2413,9.1061,9.0283,8.997,8.8278,8.7623,8.7476,8.7379,8.8007,8.9013,8.9269,8.9134,8.9134,8.9235,8.9168,8.9134,8.9154,8.9134,8.9134,8.9134,8.8714,8.8192,8.8578,8.8463,8.8125,8.8511,8.8883,8.9066,8.9134,8.9134,8.9134,8.9134,8.8984,8.8578,8.7955,8.8057,8.8646,8.8545,8.8511,8.868,8.8781,8.8849,8.9018,8.9134,8.9134,8.9134,8.9134,8.9018,8.8849,8.8984,8.8984,8.8815,8.8815,8.8578,8.8125,8.7854,8.7719,8.7617,8.711,8.6839,8.7022,8.6447,8.5702,8.5452,8.4999,8.4728,8.4762,8.4695,8.4695,8.4661,8.4695,8.4614,8.4627,8.458,8.458,8.458,8.458,8.458,8.458,8.458,8.458,8.458,8.458,8.458,8.458,8.4458,8.4356,8.4086,8.3253,8.2847,8.3274,8.3714,8.4018,8.4018,8.4323,8.458,8.439,8.4221,8.4255,9.2636,9.3586,9.3601,9.3601,9.3601,9.3601,9.3601,9.3601,9.3601,9.3601,9.3601,9.3601,9.3601,9.3601,9.3601,9.2931,9.1918,9.0564,8.9392,8.7904,8.58,8.5809,8.7133,8.8056,8.9066,8.9872,9.0033,9.0067,9.0067,9.0033,8.9864,8.9661,8.956,8.941,8.9134,8.91,8.8748,8.8192,8.8443,8.8395,8.8091,8.8409,8.8815,8.9018,8.9134,8.9134,8.91,8.8815,8.8748,8.8917,8.8714,8.8646,8.9032,8.9134,8.9134,8.9134,8.9134,8.91,8.9134,8.9134,8.9134,8.9134,8.9134,8.9134,8.91,8.9134,8.9134,8.91,8.91,8.8883,8.8578,8.8477,8.8443,8.8395,8.8057,8.7854,8.8037,8.7259,8.665,8.6196,8.5621,8.5236,8.5473,8.5303,8.5134,8.51,8.5168,8.4931,8.4695,8.4661,8.458,8.458,8.458,8.458,8.458,8.458,8.458,8.458,8.458,8.458,8.458,8.458,8.4546,8.4356,8.3862,8.3625,8.3984,8.4153,8.4018,8.412,8.4458,8.4546,8.439,8.4289,8.4323,9.1353,9.3601,9.3601,9.3601,9.3601,9.3601,9.3601,9.3601,9.3601,9.3601,9.3601,9.3601,9.3601,9.362,9.298,9.1981,8.9995,8.8897,8.7518,8.588,8.4569,8.5319,8.8641,8.8961,9.0015,9.0871,9.1271,9.1169,9.1048,9.115,9.0899,9.0459,9.0324,8.9985,8.9661,8.939,8.8849,8.8497,8.8361,8.8361,8.826,8.8361,8.8646,8.9032,8.9134,8.9134,8.8951,8.8612,8.8477,8.9086,8.9032,8.8951,8.9032,8.9134,8.9201,8.9289,8.9357,8.9357,8.939,8.956,8.9458,8.9526,8.9506,8.9255,8.9357,8.9357,8.9289,8.9134,8.9134,8.9052,8.9018,8.9052,8.9018,8.8951,8.8998,8.8748,8.8308,8.8057,8.7739,8.7096,8.6379,8.6332,8.6467,8.6366,8.5905,8.5858,8.5757,8.5351,8.4999,8.4762,8.4695,8.458,8.458,8.458,8.458,8.458,8.458,8.458,8.458,8.458,8.458,8.458,8.458,8.4424,8.412,8.4086,8.4356,8.4356,8.4153,8.4221,8.4559,8.458,8.4546,8.4492,8.4478,9.1335,9.3601,9.3601,9.3601,9.3601,9.3601,9.3601,9.3601,9.3601,9.3601,9.3601,9.3601,9.3556,9.34,9.1715,9.0344,8.8977,8.6093,8.3675,8.3658,8.5078,8.6856,8.868,8.8057,8.8519,9.0546,9.1338,9.1338,9.1387,9.1488,9.1237,9.1102,9.1068,9.0966,9.0744,9.0154,8.9918,8.9647,8.9173,8.8951,8.8951,8.8951,8.9018,8.9221,8.9221,8.9154,8.9086,8.8951,8.8951,8.8951,8.8748,8.8801,8.912,8.9201,8.9424,8.985,8.9985,9.0188,9.0662,9.0696,9.0797,9.071,9.0608,9.0594,9.0019,8.9985,8.9681,8.9289,8.9134,8.9269,8.9289,8.9168,8.9255,8.9289,8.9221,8.912,8.8815,8.8361,8.7989,8.7685,8.7144,8.6738,8.6893,8.6893,8.667,8.6602,8.6264,8.5804,8.5418,8.5067,8.4965,8.4965,8.4864,8.4864,8.458,8.458,8.458,8.458,8.458,8.458,8.458,8.458,8.458,8.4593,8.4525,8.4593,8.458,8.458,8.439,8.4525,8.458,8.458,8.458,8.458,8.458,9.1368,9.3556,9.3601,9.3601,9.3601,9.3601,9.3601,9.3601,9.3601,9.3601,9.3601,9.3601,9.298,9.1839,9.0423,8.8882,8.5946,8.2692,8.1463,8.2489,8.404,8.6369,8.9263,8.8666,8.9154,9.2019,9.2402,9.2402,9.2402,9.23,9.2252,9.1846,9.1812,9.1575,9.1338,9.0932,9.0729,9.0662,9.0357,9.0135,9.0135,9.0135,9.0135,9.0135,9.0135,9.0135,9.0169,9.0169,9.0135,9.0033,8.9748,8.9512,8.9545,8.9647,8.9985,9.056,9.0729,9.0865,9.1203,9.1305,9.1271,9.1338,9.1305,9.1102,9.0831,9.0729,9.056,9.0256,9.0169,9.0135,9.0135,9.0169,9.0135,9.0053,8.9796,8.9627,8.9492,8.8984,8.8511,8.8361,8.7888,8.7786,8.7753,8.7583,8.7448,8.738,8.7313,8.6887,8.6399,8.6014,8.5642,8.5506,8.5317,8.51,8.4728,8.458,8.458,8.458,8.458,8.458,8.458,8.458,8.458,8.4593,8.4593,8.4593,8.458,8.458,8.458,8.458,8.458,8.458,8.458,8.458,8.458,9.1353,9.3586,9.3601,9.3601,9.3601,9.3601,9.3601,9.3601,9.3601,9.3601,9.343,9.3307,9.1681,9.0121,8.877,8.5979,8.2541,8.056,8.0388,8.3375,8.3692,8.6694,8.9676,9.0782,9.1384,9.3599,9.3484,9.3451,9.3451,9.3552,9.3078,9.2692,9.2575,9.2387,9.1812,9.1508,9.1474,9.144,9.1203,9.1082,9.1116,9.1116,9.1116,9.1102,9.1102,9.1068,9.1082,9.1102,9.1203,9.1305,9.1305,9.1034,9.0681,9.0411,9.0696,9.1372,9.1474,9.1643,9.188,9.1826,9.1793,9.1643,9.1725,9.1609,9.1541,9.144,9.1305,9.1237,9.1102,9.1102,9.1285,9.1116,9.1135,9.1068,9.0594,9.0256,9.0087,8.9545,8.9086,8.8951,8.8545,8.8395,8.8477,8.8429,8.8294,8.8125,8.8057,8.7888,8.738,8.6859,8.642,8.6163,8.5993,8.5946,8.5608,8.5067,8.5033,8.4898,8.483,8.4661,8.4647,8.458,8.458,8.458,8.458,8.458,8.458,8.458,8.458,8.458,8.458,8.458,8.458,8.458,8.458,9.132,9.3601,9.3601,9.3601,9.3601,9.3601,9.3601,9.3601,9.3601,9.3586,9.3229,9.1463,9.0454,8.8883,8.5243,8.2186,8.0219,7.9395,8.1222,8.4528,8.5207,8.755,9.0927,9.2066,9.3055,9.4042,9.3941,9.3563,9.3654,9.3567,9.3552,9.3417,9.3349,9.3146,9.2909,9.2624,9.2237,9.2136,9.1812,9.159,9.1556,9.1541,9.1541,9.1541,9.1575,9.1508,9.1454,9.1387,9.1305,9.1305,9.1305,9.1609,9.1764,9.1474,9.1609,9.2034,9.2237,9.2421,9.2841,9.3078,9.318,9.3214,9.3045,9.2759,9.2406,9.2203,9.2049,9.1643,9.1474,9.1372,9.1305,9.1541,9.1387,9.1169,9.0865,9.0391,9.0208,8.9782,8.9289,8.9255,8.9052,8.8883,8.8883,8.8883,8.8748,8.8545,8.8409,8.8308,8.7989,8.7482,8.6961,8.6839,8.6738,8.6724,8.6623,8.6014,8.5621,8.5486,8.5317,8.4864,8.4796,8.4647,8.458,8.458,8.458,8.458,8.458,8.458,8.458,8.458,8.458,8.458,8.458,8.458,8.458,9.2513,9.3586,9.3601,9.3601,9.3601,9.3601,9.3601,9.3601,9.3586,9.2872,9.1651,9.0377,8.8762,8.673,8.4127,8.1476,8.0213,7.9873,8.199,8.4727,8.4896,8.6076,9.0097,9.1405,9.1625,9.1899,9.2431,9.3631,9.4106,9.418,9.3914,9.362,9.3601,9.3601,9.3552,9.3214,9.303,9.2895,9.2638,9.2435,9.2435,9.2435,9.2469,9.2469,9.2469,9.2503,9.2469,9.2469,9.2503,9.2537,9.2503,9.2692,9.2759,9.2759,9.2605,9.2928,9.2996,9.3131,9.3518,9.3601,9.3552,9.3552,9.3601,9.3451,9.3165,9.2996,9.2793,9.2605,9.2469,9.2503,9.2571,9.2435,9.2503,9.2353,9.1778,9.1358,9.1155,9.0594,9.0121,8.9661,8.9357,8.9187,8.9066,8.9066,8.91,8.8951,8.8748,8.8612,8.8511,8.8158,8.7685,8.7448,8.7347,8.7211,8.7164,8.6805,8.6366,8.6196,8.5824,8.5371,8.5067,8.4999,8.4762,8.458,8.458,8.458,8.458,8.458,8.458,8.458,8.458,8.458,8.458,8.458,8.458,9.3601,9.3601,9.3601,9.3601,9.3601,9.3601,9.3601,9.3508,9.2965,9.173,8.9963,8.8642,8.6635,8.4376,8.2833,8.1596,8.0842,8.0943,8.2736,8.4475,8.4326,8.4819,8.6944,8.8863,9.0294,8.9865,9.1334,9.3225,9.3886,9.3863,9.386,9.3903,9.3755,9.3601,9.3552,9.3518,9.3601,9.3601,9.3601,9.3601,9.3601,9.3601,9.3601,9.3601,9.3601,9.3518,9.3417,9.3383,9.3417,9.3417,9.3451,9.3552,9.3601,9.3601,9.3601,9.3601,9.3601,9.3601,9.3601,9.3601,9.3601,9.3601,9.3601,9.3586,9.3552,9.3484,9.3518,9.3601,9.3533,9.3451,9.3349,9.3518,9.3518,9.3315,9.2793,9.2324,9.2034,9.1527,9.0899,9.0391,8.983,8.9492,8.9323,8.9134,8.9134,8.9134,8.8917,8.8917,8.8815,8.8883,8.8545,8.8206,8.7955,8.7685,8.7583,8.7448,8.7177,8.7042,8.6569,8.6061,8.5723,8.5486,8.527,8.5134,8.458,8.458,8.458,8.4614,8.458,8.458,8.458,8.458,8.458,8.458,8.458,9.3601,9.3601,9.3601,9.3601,9.3601,9.3601,9.3571,9.3229,9.1368,9.0264,8.8993,8.5554,8.3483,8.2665,8.1831,8.1125,8.1317,8.2182,8.3678,8.5419,8.537,8.5777,8.7668,8.9388,8.9368,8.8885,9.0421,9.1996,9.2809,9.2588,9.3135,9.3919,9.3806,9.3586,9.3586,9.3586,9.3601,9.3601,9.3601,9.3601,9.3601,9.3601,9.3586,9.3654,9.362,9.3654,9.3721,9.3755,9.3687,9.362,9.3654,9.3654,9.3601,9.3601,9.3601,9.3601,9.3601,9.3601,9.362,9.3601,9.3601,9.3601,9.3601,9.3601,9.3601,9.3601,9.3601,9.3601,9.3601,9.3601,9.3601,9.3601,9.3601,9.3383,9.2996,9.2609,9.2406,9.2387,9.1744,9.1324,9.0831,9.0087,8.9593,8.9323,8.9134,8.9134,8.9134,8.9168,8.9134,8.9134,8.9134,8.8714,8.8545,8.8308,8.8158,8.8023,8.7922,8.7854,8.7313,8.6771,8.6535,8.6264,8.6196,8.5912,8.5303,8.4884,8.5053,8.5019,8.4749,8.458,8.458,8.458,8.458,8.458,8.458,9.3601,9.3601,9.3601,9.3601,9.3601,9.3601,9.2778,9.1463,9.0374,8.829,8.5799,8.3658,8.2151,8.1732,8.2343,8.3057,8.3138,8.3606,8.4318,8.5035,8.5019,8.4797,8.5483,8.7301,8.8142,8.7692,8.8957,9.0293,9.1189,9.2413,9.337,9.3026,9.3788,9.3992,9.3554,9.3571,9.3601,9.3601,9.3601,9.3601,9.3601,9.362,9.3789,9.4146,9.3823,9.3857,9.4112,9.4214,9.3992,9.3924,9.4229,9.4398,9.3958,9.3958,9.4214,9.4248,9.4248,9.4045,9.3687,9.3654,9.3687,9.362,9.362,9.3601,9.3601,9.3601,9.3601,9.3601,9.3601,9.3601,9.3601,9.3601,9.3601,9.3451,9.3199,9.3131,9.2962,9.2861,9.2638,9.2252,9.1831,9.1169,9.0594,9.0507,9.0202,8.9763,8.9627,8.9492,8.9323,8.9134,8.9134,8.9066,8.8998,8.8931,8.8815,8.8714,8.8612,8.8477,8.7989,8.755,8.7347,8.7177,8.6974,8.6569,8.5926,8.5675,8.5696,8.5189,8.4681,8.4614,8.458,8.458,8.458,8.458,8.458,9.3601,9.3601,9.3601,9.3601,9.3508,9.298,9.1651,8.9979,8.8386,8.5913,8.3159,8.1847,8.1166,8.1407,8.2956,8.3965,8.4604,8.5023,8.5192,8.4803,8.4314,8.3917,8.4703,8.6101,8.6526,8.4793,8.7455,8.8649,8.9606,9.1018,9.2071,9.1714,9.3001,9.3427,9.3324,9.3417,9.3601,9.362,9.3857,9.3823,9.3654,9.3601,9.3924,9.4112,9.4146,9.4112,9.4605,9.4958,9.4635,9.4635,9.5108,9.5142,9.4567,9.4721,9.4958,9.4958,9.4992,9.4823,9.4499,9.433,9.4161,9.4093,9.3857,9.389,9.3601,9.3601,9.3601,9.3601,9.3601,9.3601,9.3601,9.3601,9.3601,9.3601,9.3518,9.3586,9.3567,9.3315,9.318,9.2962,9.2658,9.2489,9.2063,9.1962,9.1488,9.0662,9.0222,8.985,8.9526,8.9201,8.9134,8.9134,8.9134,8.9134,8.91,8.91,8.91,8.8998,8.8511,8.8308,8.8105,8.7834,8.7516,8.7042,8.6569,8.6602,8.669,8.5642,8.4647,8.4864,8.4965,8.4695,8.458,8.458,8.458,9.3601,9.3601,9.3556,9.3478,9.3293,9.1101,9.0043,8.8866,8.4996,8.3142,8.1934,8.0457,8.0152,8.11,8.2608,8.3936,8.4814,8.602,8.6289,8.6379,8.6349,8.5451,8.5516,8.5793,8.6223,8.5281,8.6657,8.713,8.7376,8.9031,9.0356,9.1255,9.227,9.2099,9.2653,9.3635,9.3812,9.3924,9.4214,9.4112,9.3823,9.3654,9.3823,9.3992,9.4349,9.4673,9.474,9.5398,9.5567,9.5413,9.5872,9.5838,9.5432,9.5567,9.5702,9.5702,9.5702,9.5669,9.5635,9.5413,9.5533,9.5398,9.5026,9.4417,9.406,9.3721,9.362,9.3789,9.3924,9.3755,9.3687,9.3634,9.3755,9.3601,9.3601,9.3601,9.3601,9.3601,9.3451,9.3484,9.3349,9.3078,9.3045,9.2808,9.2218,9.144,9.0357,8.9985,8.9593,8.9269,8.9168,8.9134,8.9134,8.9134,8.9134,8.9134,8.9134,8.9134,8.8849,8.8815,8.8849,8.8511,8.8105,8.7969,8.7617,8.7651,8.7448,8.6318,8.554,8.5486,8.5283,8.4796,8.458,8.458,8.458,9.27,9.1368,9.1305,9.1305,9.1116,8.8674,8.6758,8.5226,8.331,8.1546,8.0313,8.011,8.0764,8.2069,8.3367,8.4684,8.587,8.6379,8.6648,8.6708,8.6559,8.6349,8.6229,8.6259,8.6429,8.608,8.6499,8.6708,8.6936,8.7668,8.7799,8.9004,9.1426,9.3488,9.4288,9.4214,9.4463,9.4324,9.4455,9.4349,9.3842,9.4112,9.4485,9.5007,9.5093,9.5635,9.6022,9.6277,9.6176,9.6142,9.6683,9.6514,9.6142,9.6311,9.6462,9.6462,9.6462,9.665,9.6785,9.6379,9.5804,9.5785,9.5499,9.5195,9.477,9.4552,9.462,9.4654,9.4499,9.4282,9.4282,9.4248,9.4229,9.3789,9.362,9.3654,9.3601,9.3601,9.3601,9.3552,9.3552,9.3451,9.3484,9.3484,9.2827,9.2116,9.1034,9.0087,8.9715,8.9424,8.9357,8.9289,8.9323,8.9255,8.9255,8.9187,8.9134,8.9134,8.9134,8.9134,8.9134,8.9066,8.8714,8.8646,8.8511,8.8308,8.7786,8.6893,8.6318,8.5993,8.5384,8.4695,8.458,8.458,8.458,9.1478,8.9789,8.8306,8.8161,8.8434,8.6141,8.4139,8.2558,8.1681,8.0816,7.9465,8.0464,8.1811,8.3217,8.4205,8.5372,8.6289,8.6678,8.6678,8.6708,8.6708,8.6708,8.6708,8.6678,8.6648,8.6708,8.6708,8.6708,8.6708,8.6708,8.7434,8.8819,9.0712,9.2495,9.3171,9.4802,9.4922,9.4416,9.5015,9.4928,9.4499,9.4755,9.5161,9.5736,9.5939,9.6293,9.6732,9.6969,9.6988,9.6988,9.7225,9.7311,9.7056,9.6886,9.7172,9.724,9.7274,9.7495,9.7529,9.7225,9.6345,9.6259,9.6176,9.6007,9.5736,9.5315,9.5296,9.5533,9.5263,9.5026,9.5026,9.4992,9.4687,9.4315,9.4127,9.4093,9.3721,9.3601,9.3601,9.3586,9.3601,9.3601,9.3601,9.3552,9.3112,9.2387,9.1474,9.0594,9.0053,8.9816,8.9647,8.9613,8.9579,8.9512,8.9458,8.9289,8.9134,8.9134,8.9134,8.9134,8.9134,8.9134,8.91,8.8917,8.8781,8.868,8.8274,8.7583,8.6941,8.6298,8.5574,8.4796,8.458,8.458,8.458,8.9853,8.9296,8.4783,8.4204,8.5684,8.3624,8.2455,8.1851,8.0115,7.9725,8.0513,8.0913,8.229,8.4126,8.4784,8.5671,8.6469,8.6708,8.6708,8.6708,8.6708,8.6708,8.6708,8.6708,8.6708,8.6708,8.6708,8.6708,8.6708,8.6708,8.7581,8.8379,8.9382,9.005,8.9226,9.2442,9.3696,9.3541,9.556,9.5938,9.5684,9.5635,9.5887,9.6056,9.6597,9.7003,9.7172,9.7529,9.7597,9.7683,9.7717,9.7818,9.7717,9.7683,9.7834,9.7818,9.7852,9.792,9.7953,9.7886,9.7461,9.6969,9.6853,9.6699,9.6108,9.5838,9.5905,9.6277,9.5905,9.577,9.577,9.5717,9.533,9.4924,9.4755,9.462,9.4263,9.3857,9.3924,9.3857,9.3687,9.3601,9.3601,9.3518,9.318,9.2556,9.1778,9.1135,9.0648,9.0106,8.9918,8.9748,8.9715,8.9545,8.9424,8.9255,8.912,8.9134,8.9134,8.9134,8.9134,8.9134,8.91,8.9086,8.9018,8.8883,8.8714,8.8395,8.7651,8.6839,8.5709,8.4999,8.4762,8.4817,8.5087,8.6466,8.4865,8.3176,8.202,8.1275,8.0441,8.0049,7.9895,7.9293,7.9567,8.0842,8.165,8.2978,8.4504,8.5611,8.6229,8.6559,8.6708,8.6708,8.6708,8.6708,8.6708,8.6708,8.6708,8.6708,8.6708,8.6708,8.6708,8.6708,8.6708,8.6896,8.7581,8.8102,8.9025,9.1095,9.3531,9.4486,9.4235,9.561,9.6529,9.5973,9.6259,9.6496,9.6529,9.7157,9.7461,9.7495,9.7818,9.7953,9.7987,9.7987,9.7987,9.7987,9.7987,9.7987,9.7987,9.7987,9.7987,9.7987,9.7953,9.7886,9.7664,9.7529,9.7428,9.7243,9.6766,9.6853,9.6954,9.6683,9.6597,9.6529,9.6529,9.6191,9.5635,9.5432,9.5398,9.5142,9.4654,9.4383,9.4214,9.4093,9.3721,9.3601,9.3601,9.3315,9.3098,9.2455,9.2083,9.1628,9.0648,9.0106,8.9884,8.9715,8.9526,8.9357,8.9255,8.9154,8.9134,8.9134,8.9134,8.9134,8.9134,8.91,8.91,8.91,8.91,8.8883,8.8612,8.8125,8.7347,8.6569,8.598,8.5845,8.598,8.625,8.3989,8.2472,8.1563,8.0323,7.8927,7.8789,7.8789,7.8789,7.8849,7.9746,8.1411,8.2458,8.3835,8.5222,8.6229,8.6708,8.6708,8.6708,8.6708,8.6708,8.6708,8.6708,8.6708,8.6708,8.6708,8.6708,8.6708,8.6708,8.6708,8.6708,8.6797,8.6837,8.6718,8.7909,9.007,9.158,9.3146,9.3455,9.5009,9.6441,9.6509,9.68,9.6868,9.6969,9.7258,9.7578,9.7664,9.7818,9.7987,9.7987,9.7987,9.7987,9.7987,9.7987,9.7987,9.7987,9.7987,9.7987,9.7987,9.7987,9.7953,9.792,9.7987,9.7987,9.7953,9.7495,9.7529,9.7597,9.7461,9.736,9.724,9.724,9.6935,9.6379,9.6176,9.6157,9.5702,9.5195,9.4706,9.4552,9.4112,9.3789,9.3601,9.3601,9.3518,9.3349,9.3131,9.2827,9.2508,9.1561,9.0648,9.0425,9.0188,9.0053,8.9729,8.9289,8.9221,8.9134,8.9134,8.9134,8.9134,8.9134,8.9134,8.9134,8.9134,8.91,8.9018,8.8748,8.8477,8.8308,8.7989,8.7448,8.7062,8.6995,8.7096,8.2389,8.202,7.9793,7.8891,7.8789,7.8789,7.8789,7.8789,7.8789,8.0273,8.2717,8.2717,8.4124,8.6229,8.6708,8.6708,8.6708,8.6708,8.6708,8.6708,8.6708,8.6708,8.6708,8.6708,8.6708,8.6708,8.6708,8.6708,8.6708,8.6708,8.6708,8.6708,8.6708,8.726,8.8102,8.9098,9.09,9.2624,9.45,9.6166,9.7156,9.7274,9.7172,9.7206,9.7258,9.7308,9.7428,9.7698,9.792,9.7987,9.7987,9.7987,9.7987,9.7987,9.7987,9.7987,9.7987,9.7987,9.7987,9.7987,9.7987,9.7987,9.7987,9.7987,9.7953,9.7867,9.7886,9.792,9.7818,9.7886,9.7886,9.7766,9.7597,9.7225,9.6969,9.6631,9.6108,9.5601,9.5127,9.4654,9.4045,9.3687,9.362,9.3601,9.3601,9.3518,9.3349,9.3165,9.2812,9.2426,9.1662,9.1305,9.1034,9.0763,9.0324,8.9661,8.9289,8.9201,8.9134,8.9134,8.9134,8.9134,8.9134,8.9134,8.9134,8.91,8.9018,8.9052,8.9032,8.8849,8.8646,8.8375,8.7786,8.755,8.7482,7.9859,7.9806,7.9101,7.8789,7.8789,7.8789,7.8789,7.8789,7.8819,8.0303,8.2806,8.2806,8.4243,8.6589,8.6708,8.6708,8.6708,8.6708,8.6708,8.6708,8.6708,8.6708,8.6708,8.6708,8.6708,8.6708,8.6708,8.6708,8.6708,8.6708,8.6708,8.6708,8.6708,8.6708,8.6916,8.7269,8.9643,9.1971,9.4106,9.5851,9.7326,9.7554,9.7449,9.7495,9.7461,9.7461,9.7597,9.78,9.7987,9.7987,9.7987,9.7987,9.7987,9.7987,9.7987,9.7987,9.7987,9.7987,9.7987,9.7987,9.7987,9.7987,9.7987,9.7987,9.7987,9.7987,9.7987,9.7987,9.7987,9.7987,9.7987,9.7886,9.7818,9.7664,9.7461,9.7258,9.6785,9.6379,9.5838,9.489,9.4248,9.3687,9.3586,9.3601,9.3601,9.3601,9.3518,9.3383,9.3199,9.2812,9.2358,9.1981,9.1609,9.1271,9.0696,9.0053,8.9593,8.9255,8.9289,8.9255,8.9221,8.9221,8.9168,8.9134,8.9134,8.9134,8.91,8.9134,8.9134,8.9134,8.8917,8.8781,8.8578,8.8274,8.8125,7.8789,7.8789,7.8789,7.8789,7.8789,7.8789,7.8789,7.8789,7.8789,8.0094,8.1919,8.2567,8.3955,8.5721,8.6379,8.6708,8.6708,8.6708,8.6708,8.6708,8.6708,8.6708,8.6708,8.6708,8.6708,8.6708,8.6708,8.6708,8.6708,8.6708,8.6708,8.6708,8.6708,8.6708,8.6758,8.7122,8.8959,9.1416,9.3596,9.5128,9.6399,9.7405,9.7551,9.7631,9.7631,9.7631,9.7698,9.78,9.7987,9.7987,9.7987,9.7987,9.7987,9.7987,9.7987,9.7987,9.7987,9.7987,9.7987,9.7987,9.7987,9.7987,9.7987,9.7987,9.7987,9.7987,9.7987,9.7987,9.7987,9.7987,9.7987,9.7987,9.7987,9.7953,9.7953,9.7953,9.7597,9.724,9.636,9.533,9.4567,9.3857,9.3601,9.3601,9.3601,9.3601,9.3601,9.3552,9.3451,9.3233,9.2778,9.2305,9.1967,9.1628,9.1034,9.0594,9.0222,8.9884,8.9715,8.9647,8.9478,8.9289,8.9221,8.9168,8.9134,8.9134,8.9168,8.9134,8.9134,8.9134,8.9134,8.8998,8.8883,8.8849,8.8781,7.8789,7.8789,7.8789,7.8789,7.8789,7.8789,7.8789,7.8789,7.8789,7.9597,8.0962,8.2088,8.3337,8.4923,8.5821,8.6439,8.6589,8.6708,8.6708,8.6708,8.6708,8.6708,8.6708,8.6708,8.6708,8.6708,8.6708,8.6708,8.6708,8.6708,8.6708,8.6708,8.6708,8.6708,8.6708,8.724,8.894,9.1122,9.2939,9.4444,9.575,9.6535,9.7003,9.7105,9.7138,9.7138,9.7274,9.7563,9.7987,9.7987,9.7987,9.7987,9.7987,9.7987,9.7987,9.7706,9.7597,9.7721,9.7659,9.7597,9.7737,9.7814,9.7987,9.7987,9.7987,9.7987,9.7987,9.7987,9.7987,9.7987,9.7987,9.7987,9.7987,9.7987,9.7987,9.7987,9.7818,9.7292,9.6462,9.5514,9.4687,9.4026,9.3601,9.3601,9.3601,9.3601,9.3601,9.3601,9.3552,9.3484,9.3165,9.2677,9.2556,9.2252,9.1696,9.1271,9.0966,9.0662,9.0377,9.0275,9.0256,8.983,8.9289,8.9255,8.9255,8.9201,8.9201,8.9168,8.9134,8.9134,8.9134,8.9134,8.9134,8.9134,8.91,7.8789,7.8789,7.8789,7.8789,7.8789,7.8789,7.8789,7.8789,7.8789,7.9537,8.0704,8.1302,8.2559,8.4504,8.5222,8.59,8.6589,8.6708,8.6708,8.6708,8.6708,8.6708,8.6708,8.6708,8.6708,8.6708,8.6708,8.6708,8.6708,8.6708,8.6708,8.6708,8.6708,8.6708,8.6817,8.7629,8.9475,9.1068,9.3217,9.5062,9.6847,9.7371,9.7732,9.7698,9.7698,9.7664,9.7732,9.7818,9.7987,9.7987,9.7987,9.7987,9.7987,9.7987,9.7987,9.7768,9.6946,9.7153,9.7407,9.7232,9.709,9.7721,9.7987,9.7987,9.7987,9.7987,9.7987,9.7987,9.7987,9.7987,9.7987,9.7987,9.7987,9.7987,9.7987,9.7987,9.7987,9.7258,9.6496,9.5751,9.4924,9.433,9.3823,9.3634,9.3601,9.3601,9.3601,9.3601,9.3601,9.3552,9.3552,9.3214,9.3315,9.3011,9.2421,9.2034,9.1744,9.1406,9.1102,9.1034,9.1,9.0763,9.0391,8.9695,8.9424,8.9458,8.9357,8.9134,8.9134,8.9134,8.9134,8.9134,8.9134,8.9134,8.9134,7.8789,7.8789,7.8789,7.8789,7.8789,7.8789,7.8789,7.8789,7.8789,7.9226,8.0135,8.1171,8.2548,8.4235,8.5002,8.5751,8.6589,8.6678,8.6708,8.6708,8.6708,8.6708,8.6708,8.6708,8.6708,8.6708,8.6708,8.6708,8.6708,8.6708,8.6708,8.6708,8.6708,8.6738,8.6945,8.8456,8.9948,9.1013,9.3819,9.6014,9.7768,9.7987,9.7987,9.7987,9.7987,9.7987,9.7987,9.7987,9.7987,9.7987,9.7987,9.7987,9.7987,9.7987,9.7987,9.7817,9.7344,9.6916,9.7312,9.7184,9.6755,9.7612,9.7987,9.7987,9.7987,9.7987,9.7987,9.7987,9.7987,9.7987,9.7987,9.7987,9.7987,9.7987,9.7987,9.7987,9.78,9.7326,9.6834,9.6428,9.5499,9.4586,9.4112,9.3721,9.3687,9.3601,9.3601,9.3634,9.3634,9.3601,9.3601,9.3601,9.3601,9.3552,9.3146,9.2827,9.259,9.2218,9.1812,9.1541,9.1406,9.1595,9.1474,9.0628,9.0019,8.985,8.9715,8.9458,8.9168,8.9134,8.9134,8.9134,8.9134,8.9134,8.9134,7.8789,7.8789,7.8789,7.8789,7.8789,7.8789,7.8789,7.8789,7.8789,7.8789,7.9286,8.162,8.2657,8.3675,8.4962,8.596,8.6619,8.6678,8.6708,8.6708,8.6708,8.6708,8.6708,8.6708,8.6708,8.6708,8.6708,8.6708,8.6708,8.6708,8.6708,8.6708,8.6708,8.6728,8.723,8.8571,9.0188,9.1989,9.4208,9.6095,9.7216,9.7987,9.7987,9.7987,9.7987,9.7987,9.7987,9.7987,9.7987,9.7721,9.7597,9.7263,9.6963,9.6755,9.7042,9.6819,9.6386,9.6755,9.7547,9.7375,9.7485,9.7879,9.7956,9.7987,9.7987,9.7987,9.7987,9.7987,9.7987,9.7987,9.7987,9.7987,9.7987,9.7987,9.7987,9.7987,9.7698,9.7428,9.7206,9.6935,9.609,9.5093,9.4485,9.4045,9.389,9.3789,9.3687,9.3668,9.3668,9.3634,9.3601,9.3601,9.3601,9.3552,9.3518,9.3383,9.3098,9.2928,9.2522,9.2083,9.188,9.2252,9.215,9.1338,9.0831,9.0696,9.0256,8.9898,8.9593,8.9323,8.9134,8.9134,8.9134,8.9134,8.9134,7.8789,7.8789,7.8789,7.8789,7.8789,7.8789,7.8789,7.8789,7.8789,7.8789,7.9525,8.1459,8.2806,8.2806,8.3136,8.4453,8.6648,8.6708,8.6708,8.6708,8.6708,8.6708,8.6708,8.6708,8.6708,8.6708,8.6708,8.6708,8.6708,8.6708,8.6708,8.6708,8.6708,8.6777,8.7024,8.8552,9.0373,9.2166,9.4123,9.6046,9.7279,9.7895,9.7987,9.7987,9.7987,9.7987,9.7987,9.7987,9.7987,9.7597,9.6691,9.6078,9.5425,9.4912,9.5012,9.5736,9.5326,9.6159,9.6819,9.6914,9.7153,9.7925,9.7987,9.7987,9.7987,9.7987,9.7987,9.7987,9.7987,9.7987,9.7987,9.7987,9.7987,9.7987,9.7987,9.7987,9.7852,9.7732,9.7597,9.724,9.6699,9.577,9.4958,9.4687,9.4601,9.4432,9.4214,9.4127,9.3668,9.3634,9.3634,9.3601,9.3601,9.3601,9.3586,9.3552,9.3383,9.3349,9.3199,9.2759,9.2658,9.3045,9.274,9.2063,9.1812,9.1696,9.1155,9.0493,9.0121,8.9816,8.9323,8.912,8.9134,8.9134,8.9134]},{"header":{"parameterUnit":"m.s-1","parameterCategory":1,"la1":31.0,"la2":29.5877,"lo1":-88.7671,"lo2":-86.6584,"dy":0.0162,"dx":0.0185,"nx":115,"ny":88,"refTime":"2026-04-06T00:00:00:Z","depth":0,"parameterNumber":3,"parameterNumberName":"V-component_of_WINDS"},"data":[0.0,0.0,0.0,0.0,0.0,0.0,0.0,0.0,0.0,0.0,0.0,0.0,0.0,0.0,0.0,0.0,0.0,0.0,0.0,0.0,0.0,0.0,0.0,0.0,0.0,0.0,0.0,0.0,0.0,0.0,0.0,0.0,0.0,0.0,0.0,0.0,0.0,0.0,0.0,0.0,0.0,0.0,0.0,0.0,0.0,0.0,0.0,0.0,0.0,0.0,0.0,0.0,0.0,0.0,0.0,0.0,0.0,0.0,0.0,0.0,0.0,0.0,0.0,0.0,0.0,0.0,0.0,0.0,0.0,0.0,0.0,0.0,0.0,0.0,0.0,0.0,0.0,0.0,0.0,0.0,0.0,0.0,0.0,0.0,0.0,0.0,0.0,0.0,0.0,0.0,0.0,0.0,0.0,0.0,0.0,0.0,0.0,0.0,0.0,0.0,0.0,0.0,0.0,0.0,0.0,0.0,0.0,0.0,0.0,0.0,0.0,0.0,0.0,0.0,0.0,0.0,0.0,0.0,0.0,0.0,0.0,0.0,0.0,0.0,0.0,0.0,0.0,0.0,0.0,0.0,0.0,0.0,0.0,0.0,0.0,0.0,0.0,0.0,0.0,0.0,0.0,0.0,0.0,0.0,0.0,0.0,0.0,0.0,0.0,0.0,0.0,0.0,0.0,0.0,0.0,0.0,0.0,0.0,0.0,0.0,0.0,0.0,0.0,0.0,0.0,0.0,0.0,0.0,0.0,0.0,0.0,0.0,0.0,0.0,0.0,0.0,0.0,0.0,0.0,0.0,0.0,0.0,0.0,0.0,0.0,0.0,0.0,0.0,0.0,0.0,0.0,0.0,0.0,0.0,0.0,0.0,0.0,0.0,0.0,0.0,0.0,0.0,0.0,0.0,0.0,0.0,0.0,0.0,0.0,0.0,0.0,0.0,0.0,0.0,0.0,0.0,0.0,0.0,0.0,0.0,0.0,0.0,0.0,0.0,0.0,0.0,0.0,0.0,0.0,0.0,0.0,0.0,0.0,0.0,0.0,0.0,0.0,0.0,0.0,0.0,0.0,0.0,0.0,0.0,0.0,0.0,0.0,0.0,0.0,0.0,0.0,0.0,0.0,0.0,0.0,0.0,0.0,0.0,0.0,0.0,0.0,0.0,0.0,0.0,0.0,0.0,0.0,0.0,0.0,0.0,0.0,0.0,0.0,0.0,0.0,0.0,0.0,0.0,0.0,0.0,0.0,0.0,0.0,0.0,0.0,0.0,0.0,0.0,0.0,0.0,0.0,0.0,0.0,0.0,0.0,0.0,0.0,0.0,0.0,0.0,0.0,0.0,0.0,0.0,0.0,0.0,0.0,0.0,0.0,0.0,0.0,0.0,0.0,0.0,0.0,0.0,0.0,0.0,0.0,0.0,0.0,0.0,0.0,0.0,0.0,0.0,0.0,0.0,0.0,0.0,0.0,0.0,0.0,0.0,0.0,0.0,0.0,0.0,0.0,0.0,0.0,0.0,0.0,0.0,0.0,0.0,0.0,0.0,0.0,0.0,0.0,0.0,0.0,0.0,0.0,0.0,0.0,0.0,0.0,0.0,0.0,0.0,0.0,0.0,0.0,0.0,0.0,0.0,0.0,0.0,0.0,0.0,0.0,0.0,0.0,0.0,0.0,0.0,0.0,0.0,0.0,0.0,0.0,0.0,0.0,0.0,0.0,0.0,0.0,0.0,0.0,0.0,0.0,0.0,0.0,0.0,0.0,0.0,0.0,0.0,0.0,0.0,0.0,0.0,0.0,0.0,0.0,0.0,0.0,0.0,0.0,0.0,0.0,0.0,0.0,0.0,0.0,0.0,0.0,0.0,0.0,0.0,0.0,0.0,0.0,0.0,0.0,0.0,0.0,0.0,0.0,0.0,0.0,0.0,0.0,0.0,0.0,0.0,0.0,0.0,0.0,0.0,0.0,0.0,0.0,0.0,0.0,0.0,0.0,0.0,0.0,0.0,0.0,0.0,0.0,0.0,0.0,0.0,0.0,0.0,0.0,0.0,0.0,0.0,0.0,0.0,0.0,0.0,0.0,0.0,0.0,0.0,0.0,0.0,0.0,0.0,0.0,0.0,0.0,0.0,0.0,0.0,0.0,0.0,0.0,0.0,0.0,0.0,0.0,0.0,0.0,0.0,0.0,0.0,0.0,0.0,0.0,0.0,0.0,0.0,0.0,0.0,0.0,0.0,0.0,0.0,0.0,0.0,0.0,0.0,0.0,0.0,0.0,0.0,0.0,0.0,0.0,0.0,0.0,0.0,0.0,0.0,0.0,0.0,0.0,0.0,0.0,0.0,0.0,0.0,0.0,0.0,0.0,0.0,0.0,0.0,0.0,0.0,0.0,0.0,0.0,0.0,0.0,0.0,0.0,0.0,0.0,0.0,0.0,0.0,0.0,0.0,0.0,0.0,0.0,0.0,0.0,0.0,0.0,0.0,0.0,0.0,0.0,0.0,0.0,0.0,0.0,0.0,0.0,0.0,0.0,0.0,0.0,0.0,0.0,0.0,0.0,0.0,0.0,0.0,0.0,0.0,0.0,0.0,0.0,0.0,0.0,0.0,0.0,0.0,0.0,0.0,0.0,0.0,0.0,0.0,0.0,0.0,0.0,0.0,0.0,0.0,0.0,0.0,0.0,0.0,0.0,0.0,0.0,0.0,0.0,0.0,0.0,0.0,0.0,0.0,0.0,0.0,0.0,0.0,0.0,0.0,0.0,0.0,0.0,0.0,0.0,0.0,0.0,0.0,0.0,0.0,0.0,0.0,0.0,0.0,0.0,0.0,0.0,0.0,0.0,0.0,0.0,0.0,0.0,0.0,0.0,0.0,0.0,0.0,0.0,0.0,0.0,0.0,0.0,0.0,0.0,0.0,0.0,0.0,0.0,0.0,0.0,0.0,0.0,0.0,0.0,0.0,0.0,0.0,0.0,0.0,0.0,0.0,0.0,0.0,0.0,0.0,0.0,0.0,0.0,0.0,0.0,0.0,0.0,0.0,0.0,0.0,0.0,0.0,0.0,0.0,0.0,0.0,0.0,0.0,0.0,0.0,0.0,0.0,0.0,0.0,0.0,0.0,0.0,0.0,0.0,0.0,0.0,0.0,0.0,0.0,0.0,0.0,0.0,0.0,0.0,0.0,0.0,0.0,0.0,0.0,0.0,0.0,0.0,0.0,0.0,0.0,0.0,0.0,0.0,0.0,0.0,0.0,0.0,0.0,0.0,0.0,0.0,0.0,0.0,0.0,0.0,0.0,0.0,0.0,0.0,0.0,0.0,0.0,0.0,0.0,0.0,0.0,0.0,0.0,0.0,0.0,0.0,0.0,0.0,0.0,0.0,0.0,0.0,0.0,0.0,0.0,0.0,0.0,0.0,0.0,0.0,0.0,0.0,0.0,0.0,0.0,0.0,0.0,0.0,0.0,0.0,0.0,0.0,0.0,0.0,0.0,0.0,0.0,0.0,0.0,0.0,0.0,0.0,0.0,0.0,0.0,0.0,0.0,0.0,0.0,0.0,0.0,0.0,0.0,0.0,0.0,0.0,0.0,0.0,0.0,0.0,0.0,0.0,0.0,0.0,0.0,0.0,0.0,0.0,0.0,0.0,0.0,0.0,0.0,0.0,0.0,0.0,0.0,0.0,0.0,0.0,0.0,0.0,0.0,0.0,0.0,0.0,0.0,0.0,0.0,0.0,0.0,0.0,0.0,0.0,0.0,0.0,0.0,0.0,0.0,0.0,0.0,0.0,0.0,0.0,0.0,0.0,0.0,0.0,0.0,0.0,0.0,0.0,0.0,0.0,0.0,0.0,0.0,0.0,0.0,0.0,0.0,0.0,0.0,0.0,0.0,0.0,0.0,0.0,0.0,0.0,0.0,0.0,0.0,0.0,0.0,0.0,0.0,0.0,0.0,0.0,0.0,0.0,0.0,0.0,0.0,0.0,0.0,0.0,0.0,0.0,0.0,0.0,0.0,0.0,0.0,0.0,0.0,0.0,0.0,0.0,0.0,0.0,0.0,0.0,0.0,0.0,0.0,0.0,0.0,0.0,0.0,0.0,0.0,0.0,0.0,0.0,0.0,0.0,0.0,0.0,0.0,0.0,0.0,0.0,0.0,0.0,0.0,0.0,0.0,0.0,0.0,0.0,0.0,0.0,0.0,0.0,0.0,0.0,0.0,0.0,0.0,0.0,0.0,0.0,0.0,0.0,0.0,0.0,0.0,0.0,0.0,0.0,0.0,1.7153,0.0,0.0,0.0,0.0,0.0,0.0,0.0,0.0,0.0,0.0,0.0,0.0,0.0,0.0,0.0,0.0,0.0,0.0,0.0,0.0,0.0,0.0,0.0,0.0,0.0,0.0,0.0,0.0,0.0,0.0,0.0,0.0,0.0,0.0,0.0,0.0,0.0,0.0,0.0,0.0,0.0,0.0,0.0,0.0,0.0,0.0,0.0,0.0,0.0,0.0,0.0,0.0,0.0,0.0,0.0,0.0,0.0,0.0,0.0,0.0,0.0,0.0,0.0,0.0,0.0,0.0,0.0,0.0,0.0,0.0,0.0,0.0,0.0,0.0,0.0,0.0,0.0,0.0,0.0,0.0,0.0,0.0,0.0,0.0,0.0,0.0,0.0,0.0,0.0,0.0,0.0,0.0,0.0,0.0,0.0,0.0,0.0,0.0,0.0,0.0,0.0,0.0,0.0,0.0,0.0,0.0,0.0,0.0,0.0,0.0,1.877,1.8876,1.8503,1.7943,1.7233,0.0,0.0,0.0,0.0,0.0,0.0,0.0,0.0,0.0,0.0,0.0,0.0,0.0,0.0,0.0,0.0,0.0,0.0,0.0,0.0,0.0,0.0,0.0,0.0,0.0,0.0,0.0,0.0,0.0,0.0,0.0,0.0,0.0,0.0,0.0,0.0,0.0,0.0,0.0,0.0,0.0,0.0,0.0,0.0,0.0,0.0,0.0,0.0,0.0,0.0,0.0,0.0,0.0,0.0,0.0,0.0,0.0,0.0,0.0,0.0,0.0,0.0,0.0,0.0,0.0,0.0,0.0,0.0,0.0,0.0,0.0,0.0,0.0,0.0,0.0,0.0,0.0,0.0,0.0,0.0,0.0,0.0,0.0,0.0,0.0,0.0,0.0,0.0,0.0,0.0,0.0,0.0,0.0,0.0,0.0,0.0,0.0,0.0,0.0,0.0,0.0,0.0,0.0,0.0,0.0,0.0,0.0,0.0,0.0,0.0,0.0,0.0,1.8744,1.8143,1.722,0.0,0.0,0.0,0.0,0.0,0.0,0.0,0.0,0.0,0.0,0.0,0.0,0.0,0.0,0.0,0.0,0.0,0.0,0.0,0.0,0.0,0.0,0.0,0.0,0.0,0.0,0.0,0.0,0.0,0.0,0.0,0.0,0.0,0.0,0.0,0.0,0.0,0.0,0.0,0.0,0.0,0.0,0.0,0.0,0.0,0.0,0.0,0.0,0.0,0.0,0.0,0.0,0.0,0.0,0.0,0.0,0.0,0.0,0.0,0.0,0.0,0.0,0.0,0.0,0.0,0.0,0.0,0.0,0.0,0.0,0.0,0.0,0.0,0.0,0.0,0.0,0.0,0.0,0.0,0.0,0.0,0.0,0.0,0.0,0.0,0.0,0.0,0.0,0.0,0.0,0.0,0.0,0.0,0.0,0.0,0.0,0.0,0.0,0.0,0.0,0.0,0.0,0.0,0.0,0.0,0.0,0.0,0.0,0.0,0.0,1.8798,1.9334,1.9025,0.0,1.7273,0.0,0.0,0.0,0.0,0.0,0.0,0.0,0.0,0.0,0.0,0.0,0.0,0.0,0.0,0.0,0.0,0.0,0.0,0.0,0.0,0.0,0.0,0.0,0.0,0.0,0.0,0.0,0.0,0.0,0.0,0.0,0.0,0.0,0.0,0.0,0.0,0.0,0.0,0.0,0.0,0.0,0.0,0.0,0.0,0.0,0.0,0.0,0.0,0.0,0.0,0.0,0.0,0.0,0.0,0.0,0.0,0.0,0.0,0.0,0.0,0.0,0.0,0.0,0.0,0.0,0.0,0.0,0.0,0.0,0.0,0.0,0.0,0.0,0.0,0.0,0.0,0.0,0.0,0.0,0.0,0.0,0.0,0.0,0.0,0.0,0.0,0.0,0.0,0.0,0.0,0.0,0.0,0.0,0.0,0.0,0.0,0.0,0.0,0.0,0.0,0.0,0.0,0.0,0.0,0.0,0.0,0.0,0.0,0.0,0.0,0.0,1.9092,1.8477,1.7849,0.0,0.0,0.0,0.0,0.0,0.0,0.0,0.0,0.0,0.0,0.0,0.0,0.0,0.0,0.0,0.0,0.0,0.0,0.0,0.0,0.0,0.0,0.0,0.0,0.0,0.0,0.0,0.0,0.0,0.0,0.0,0.0,0.0,0.0,0.0,0.0,0.0,0.0,0.0,0.0,0.0,0.0,0.0,0.0,0.0,0.0,0.0,0.0,0.0,0.0,0.0,0.0,0.0,0.0,0.0,0.0,0.0,0.0,0.0,0.0,0.0,0.0,0.0,0.0,0.0,0.0,0.0,0.0,0.0,0.0,0.0,0.0,0.0,0.0,0.0,0.0,0.0,0.0,0.0,0.0,0.0,0.0,0.0,0.0,0.0,0.0,0.0,0.0,0.0,0.0,0.0,0.0,0.0,0.0,0.0,0.0,0.0,0.0,0.0,0.0,0.0,0.0,0.0,0.0,0.0,0.0,0.0,0.0,0.0,0.0,1.8584,0.0,1.8744,1.817,1.7595,1.7073,0.0,0.0,0.0,0.0,0.0,0.0,0.0,0.0,0.0,0.0,0.0,0.0,0.0,0.0,0.0,0.0,0.0,0.0,0.0,0.0,0.0,0.0,0.0,0.0,0.0,0.0,0.0,0.0,0.0,0.0,0.0,0.0,0.0,0.0,0.0,0.0,0.0,0.0,0.0,0.0,0.0,0.0,0.0,0.0,0.0,0.0,0.0,0.0,0.0,0.0,0.0,0.0,0.0,0.0,0.0,0.0,0.0,0.0,0.0,0.0,0.0,0.0,0.0,0.0,0.0,0.0,0.0,0.0,0.0,0.0,0.0,0.0,0.0,0.0,0.0,0.0,0.0,0.0,0.0,0.0,0.0,0.0,0.0,0.0,0.0,0.0,0.0,0.0,0.0,0.0,0.0,0.0,0.0,0.0,0.0,0.0,0.0,0.0,0.0,0.0,0.0,0.0,0.0,0.0,0.0,0.0,0.0,0.0,0.0,1.8799,1.8504,1.8517,1.8464,1.7916,0.0,0.0,0.0,0.0,0.0,0.0,0.0,0.0,0.0,0.0,0.0,0.0,0.0,0.0,0.0,0.0,0.0,0.0,0.0,0.0,0.0,0.0,0.0,0.0,0.0,0.0,0.0,0.0,0.0,0.0,0.0,0.0,0.0,0.0,0.0,0.0,0.0,0.0,0.0,0.0,0.0,0.0,0.0,0.0,0.0,0.0,0.0,0.0,0.0,0.0,0.0,0.0,0.0,0.0,0.0,0.0,0.0,0.0,0.0,0.0,0.0,0.0,0.0,0.0,0.0,0.0,0.0,0.0,0.0,0.0,0.0,0.0,0.0,0.0,0.0,0.0,0.0,0.0,0.0,0.0,0.0,0.0,0.0,0.0,0.0,0.0,0.0,0.0,0.0,0.0,0.0,0.0,0.0,0.0,0.0,0.0,0.0,0.0,0.0,0.0,0.0,0.0,0.0,0.0,0.0,0.0,0.0,0.0,0.0,1.8237,1.821,1.8356,1.8704,1.8063,1.7541,0.0,0.0,0.0,0.0,0.0,0.0,0.0,0.0,0.0,0.0,0.0,0.0,0.0,0.0,0.0,0.0,0.0,0.0,0.0,0.0,0.0,0.0,0.0,0.0,0.0,0.0,0.0,0.0,0.0,0.0,0.0,0.0,0.0,0.0,0.0,0.0,0.0,0.0,0.0,0.0,0.0,0.0,0.0,0.0,0.0,0.0,0.0,0.0,0.0,0.0,0.0,0.0,0.0,0.0,0.0,0.0,0.0,0.0,0.0,0.0,0.0,0.0,0.0,0.0,0.0,0.0,0.0,0.0,0.0,0.0,0.0,0.0,0.0,0.0,0.0,0.0,0.0,0.0,0.0,0.0,0.0,0.0,0.0,0.0,0.0,0.0,0.0,0.0,0.0,0.0,0.0,0.0,0.0,0.0,0.0,0.0,0.0,0.0,0.0,0.0,0.0,0.0,0.0,0.0,0.0,0.0,0.0,0.0,0.0,1.7742,0.0,1.8449,0.0,1.7822,1.7314,0.0,0.0,0.0,0.0,0.0,0.0,0.0,0.0,0.0,0.0,0.0,0.0,0.0,0.0,0.0,0.0,0.0,0.0,0.0,0.0,0.0,0.0,0.0,0.0,0.0,0.0,0.0,0.0,0.0,0.0,0.0,0.0,0.0,0.0,0.0,0.0,0.0,0.0,0.0,0.0,0.0,0.0,0.0,0.0,0.0,0.0,0.0,0.0,0.0,0.0,0.0,0.0,0.0,0.0,0.0,0.0,0.0,0.0,0.0,0.0,0.0,0.0,0.0,0.0,0.0,0.0,0.0,0.0,0.0,0.0,0.0,0.0,0.0,0.0,0.0,0.0,0.0,0.0,0.0,0.0,0.0,0.0,0.0,0.0,0.0,0.0,0.0,0.0,0.0,0.0,0.0,0.0,0.0,0.0,0.0,0.0,0.0,0.0,0.0,0.0,0.0,0.0,0.0,0.0,0.0,0.0,0.0,0.0,1.7501,1.8009,1.8878,1.8812,1.7675,1.7862,1.7289,0.0,0.0,0.0,0.0,0.0,0.0,0.0,0.0,0.0,0.0,0.0,0.0,0.0,0.0,0.0,0.0,0.0,0.0,0.0,0.0,0.0,0.0,0.0,0.0,0.0,0.0,0.0,0.0,0.0,0.0,0.0,0.0,0.0,0.0,0.0,0.0,0.0,0.0,0.0,0.0,0.0,0.0,0.0,0.0,0.0,0.0,0.0,0.0,0.0,0.0,0.0,0.0,0.0,0.0,0.0,0.0,0.0,0.0,0.0,0.0,0.0,0.0,0.0,0.0,0.0,0.0,0.0,0.0,0.0,0.0,0.0,0.0,0.0,0.0,0.0,0.0,0.0,0.0,0.0,0.0,0.0,0.0,0.0,0.0,0.0,0.0,0.0,0.0,0.0,0.0,0.0,0.0,0.0,0.0,0.0,0.0,0.0,0.0,0.0,0.0,0.0,0.0,0.0,0.0,0.0,0.0,0.0,0.0,0.0,1.8009,1.8704,1.8985,1.8812,1.7929,1.7395,0.0,0.0,0.0,0.0,0.0,0.0,0.0,0.0,0.0,0.0,0.0,0.0,0.0,0.0,0.0,0.0,0.0,0.0,0.0,0.0,0.0,0.0,0.0,0.0,0.0,0.0,0.0,0.0,0.0,0.0,0.0,0.0,0.0,0.0,0.0,0.0,0.0,0.0,0.0,0.0,0.0,0.0,0.0,0.0,0.0,0.0,0.0,0.0,0.0,0.0,0.0,0.0,0.0,0.0,0.0,0.0,0.0,0.0,0.0,0.0,0.0,0.0,0.0,0.0,0.0,0.0,0.0,0.0,0.0,0.0,0.0,0.0,0.0,0.0,0.0,0.0,0.0,0.0,0.0,0.0,0.0,0.0,0.0,0.0,0.0,0.0,0.0,0.0,0.0,0.0,0.0,0.0,0.0,0.0,0.0,0.0,0.0,0.0,0.0,0.0,0.0,0.0,0.0,0.0,0.0,0.0,0.0,0.0,0.0,1.8862,1.941,1.9651,1.9562,1.8545,1.7862,1.7502,0.0,0.0,0.0,0.0,0.0,0.0,0.0,0.0,0.0,0.0,0.0,0.0,0.0,0.0,0.0,0.0,0.0,0.0,0.0,0.0,0.0,0.0,0.0,0.0,0.0,0.0,0.0,0.0,0.0,0.0,0.0,0.0,0.0,0.0,0.0,0.0,0.0,0.0,0.0,0.0,0.0,0.0,0.0,0.0,0.0,0.0,0.0,0.0,0.0,0.0,0.0,0.0,0.0,0.0,0.0,0.0,0.0,0.0,0.0,0.0,0.0,0.0,0.0,0.0,0.0,0.0,0.0,0.0,0.0,0.0,0.0,0.0,0.0,0.0,0.0,0.0,0.0,0.0,0.0,0.0,0.0,0.0,0.0,0.0,0.0,0.0,0.0,0.0,0.0,0.0,0.0,0.0,0.0,0.0,0.0,0.0,0.0,0.0,0.0,0.0,0.0,0.0,0.0,0.0,0.0,0.0,0.0,0.0,2.033,2.0933,2.0842,1.9945,1.9574,1.8598,0.0,0.0,0.0,0.0,0.0,0.0,0.0,0.0,0.0,0.0,0.0,0.0,0.0,0.0,0.0,0.0,0.0,0.0,0.0,0.0,0.0,0.0,0.0,0.0,0.0,0.0,0.0,0.0,0.0,0.0,0.0,0.0,0.0,0.0,0.0,0.0,0.0,0.0,0.0,0.0,0.0,0.0,0.0,0.0,0.0,0.0,0.0,0.0,0.0,0.0,0.0,0.0,0.0,0.0,0.0,0.0,0.0,0.0,0.0,0.0,0.0,0.0,0.0,0.0,0.0,0.0,0.0,0.0,0.0,0.0,0.0,0.0,0.0,0.0,0.0,0.0,0.0,0.0,0.0,0.0,0.0,0.0,0.0,0.0,0.0,0.0,0.0,0.0,0.0,0.0,0.0,0.0,0.0,0.0,0.0,0.0,0.0,0.0,0.0,0.0,0.0,0.0,0.0,0.0,0.0,0.0,0.0,0.0,0.0,2.1814,2.2645,2.2555,2.1446,2.011,1.9066,0.0,0.0,0.0,0.0,0.0,0.0,0.0,0.0,0.0,0.0,0.0,0.0,0.0,0.0,0.0,0.0,0.0,0.0,0.0,0.0,0.0,0.0,0.0,0.0,0.0,0.0,0.0,0.0,0.0,0.0,0.0,0.0,0.0,0.0,0.0,0.0,0.0,0.0,0.0,0.0,0.0,0.0,0.0,0.0,0.0,0.0,0.0,0.0,0.0,0.0,0.0,0.0,0.0,0.0,0.0,0.0,0.0,0.0,0.0,0.0,0.0,0.0,0.0,0.0,0.0,0.0,0.0,0.0,0.0,0.0,0.0,0.0,0.0,0.0,0.0,0.0,0.0,0.0,0.0,0.0,0.0,0.0,0.0,0.0,0.0,0.0,0.0,0.0,0.0,0.0,0.0,0.0,0.0,0.0,0.0,0.0,0.0,0.0,0.0,0.0,0.0,0.0,0.0,0.0,0.0,0.0,0.0,0.0,2.1496,2.2592,2.3745,2.3946,2.3096,2.151,2.016,0.0,0.0,0.0,0.0,0.0,0.0,0.0,0.0,0.0,0.0,0.0,0.0,0.0,0.0,0.0,0.0,0.0,0.0,0.0,0.0,0.0,0.0,0.0,0.0,0.0,0.0,0.0,0.0,0.0,0.0,0.0,0.0,0.0,0.0,0.0,0.0,0.0,0.0,0.0,0.0,0.0,0.0,0.0,0.0,0.0,0.0,0.0,0.0,0.0,0.0,0.0,0.0,0.0,0.0,0.0,0.0,0.0,0.0,0.0,0.0,0.0,0.0,0.0,0.0,0.0,0.0,0.0,0.0,0.0,0.0,0.0,0.0,0.0,0.0,0.0,0.0,0.0,0.0,0.0,0.0,0.0,0.0,0.0,0.0,0.0,0.0,0.0,0.0,0.0,0.0,0.0,0.0,0.0,0.0,0.0,0.0,0.0,0.0,0.0,0.0,0.0,0.0,0.0,0.0,0.0,0.0,0.0,0.0,2.2382,2.3081,2.4427,2.4997,2.4653,2.3189,2.1456,0.0,0.0,0.0,0.0,0.0,0.0,0.0,0.0,0.0,0.0,0.0,0.0,0.0,0.0,0.0,0.0,0.0,0.0,0.0,0.0,0.0,0.0,0.0,0.0,0.0,0.0,0.0,0.0,0.0,0.0,0.0,0.0,0.0,0.0,0.0,0.0,0.0,0.0,0.0,0.0,0.0,0.0,0.0,0.0,0.0,0.0,0.0,0.0,0.0,0.0,0.0,0.0,0.0,0.0,0.0,0.0,0.0,0.0,0.0,0.0,0.0,0.0,0.0,0.0,0.0,0.0,0.0,0.0,0.0,0.0,0.0,0.0,0.0,0.0,0.0,0.0,0.0,0.0,0.0,0.0,0.0,0.0,0.0,0.0,0.0,0.0,0.0,0.0,0.0,0.0,0.0,0.0,0.0,0.0,0.0,0.0,0.0,0.0,0.0,0.0,0.0,0.0,0.0,0.0,0.0,0.0,0.0,0.0,2.2936,2.4217,2.5005,2.5384,2.5298,2.322,2.1443,0.0,0.0,0.0,0.0,0.0,0.0,0.0,0.0,0.0,0.0,0.0,0.0,0.0,0.0,0.0,0.0,0.0,0.0,0.0,0.0,0.0,0.0,0.0,0.0,0.0,0.0,0.0,0.0,0.0,0.0,0.0,0.0,0.0,0.0,0.0,0.0,0.0,0.0,0.0,0.0,0.0,0.0,0.0,0.0,0.0,0.0,0.0,0.0,1.7488,0.0,0.0,0.0,0.0,0.0,0.0,0.0,0.0,0.0,0.0,0.0,0.0,0.0,0.0,0.0,0.0,0.0,0.0,0.0,0.0,0.0,0.0,0.0,0.0,0.0,0.0,0.0,0.0,0.0,0.0,0.0,0.0,0.0,0.0,0.0,0.0,0.0,0.0,0.0,0.0,0.0,0.0,0.0,0.0,0.0,0.0,0.0,0.0,0.0,0.0,0.0,0.0,0.0,0.0,0.0,0.0,0.0,0.0,0.0,2.3483,2.4791,2.5411,2.5651,2.5445,2.3901,2.2268,0.0,0.0,0.0,0.0,0.0,0.0,0.0,0.0,0.0,0.0,0.0,0.0,0.0,0.0,0.0,0.0,0.0,0.0,0.0,0.0,0.0,0.0,0.0,0.0,0.0,0.0,0.0,0.0,0.0,0.0,0.0,0.0,0.0,0.0,0.0,0.0,0.0,0.0,0.0,0.0,0.0,0.0,0.0,0.0,0.0,0.0,0.0,0.0,0.0,0.0,0.0,0.0,0.0,0.0,0.0,0.0,0.0,0.0,0.0,0.0,0.0,0.0,0.0,0.0,0.0,0.0,0.0,0.0,0.0,0.0,0.0,0.0,0.0,0.0,0.0,0.0,0.0,0.0,0.0,0.0,0.0,0.0,0.0,0.0,0.0,0.0,0.0,0.0,0.0,0.0,0.0,0.0,0.0,0.0,0.0,0.0,0.0,0.0,0.0,0.0,0.0,0.0,0.0,0.0,0.0,0.0,0.0,2.2539,2.3923,2.5189,2.5784,2.5885,2.5499,2.4684,2.3256,2.1187,0.0,0.0,0.0,0.0,0.0,0.0,0.0,0.0,0.0,0.0,0.0,0.0,0.0,0.0,0.0,0.0,0.0,0.0,0.0,0.0,0.0,0.0,0.0,0.0,0.0,0.0,0.0,0.0,0.0,0.0,0.0,0.0,0.0,0.0,0.0,0.0,0.0,0.0,1.53,1.6956,0.0,0.0,0.0,0.0,0.0,0.0,0.0,0.0,1.7903,0.0,0.0,0.0,0.0,0.0,0.0,0.0,0.0,0.0,0.0,0.0,0.0,0.0,0.0,0.0,0.0,0.0,0.0,0.0,0.0,0.0,0.0,0.0,0.0,0.0,0.0,0.0,0.0,0.0,0.0,0.0,0.0,0.0,0.0,0.0,0.0,0.0,0.0,0.0,0.0,0.0,0.0,0.0,0.0,0.0,0.0,0.0,0.0,0.0,0.0,0.0,0.0,0.0,0.0,0.0,0.0,2.2505,2.3046,2.411,2.581,2.6165,2.6066,2.5512,2.4871,2.3439,2.1243,0.0,0.0,0.0,0.0,0.0,0.0,0.0,0.0,0.0,0.0,0.0,0.0,0.0,0.0,0.0,0.0,0.0,0.0,0.0,0.0,0.0,0.0,0.0,0.0,0.0,0.0,0.0,0.0,0.0,0.0,0.0,0.0,0.0,0.0,0.0,0.0,0.0,0.0,0.0,1.8253,1.9359,0.0,0.0,0.0,0.0,0.0,0.0,0.0,0.0,1.8196,0.0,0.0,0.0,0.0,0.0,0.0,0.0,0.0,0.0,0.0,0.0,0.0,0.0,0.0,0.0,0.0,0.0,0.0,0.0,0.0,0.0,0.0,0.0,0.0,0.0,0.0,0.0,0.0,0.0,0.0,0.0,0.0,0.0,0.0,0.0,0.0,0.0,0.0,0.0,0.0,0.0,0.0,0.0,0.0,0.0,0.0,0.0,0.0,0.0,0.0,0.0,0.0,0.0,0.0,0.0,2.2993,2.3995,2.517,2.6626,2.6794,2.6433,2.5512,2.4649,2.322,0.0,0.0,0.0,0.0,0.0,0.0,0.0,0.0,0.0,0.0,0.0,0.0,0.0,0.0,0.0,0.0,0.0,0.0,0.0,0.0,0.0,0.0,0.0,0.0,0.0,0.0,0.0,0.0,0.0,0.0,0.0,0.0,0.0,0.0,0.0,0.0,0.0,0.0,0.0,0.0,1.9322,2.0027,2.057,0.0,0.0,0.0,0.0,0.0,0.0,1.8557,1.841,0.0,0.0,0.0,0.0,0.0,0.0,0.0,0.0,0.0,0.0,0.0,0.0,0.0,0.0,0.0,0.0,0.0,0.0,0.0,0.0,0.0,0.0,0.0,0.0,0.0,0.0,0.0,0.0,0.0,0.0,0.0,0.0,0.0,0.0,0.0,0.0,0.0,0.0,0.0,0.0,0.0,0.0,0.0,0.0,0.0,0.0,0.0,0.0,0.0,0.0,0.0,0.0,0.0,0.0,0.0,2.3371,2.4778,2.6132,2.7416,2.7362,2.6807,2.5785,2.4476,2.2983,0.0,0.0,0.0,0.0,0.0,0.0,0.0,0.0,0.0,0.0,0.0,0.0,0.0,0.0,0.0,0.0,0.0,0.0,0.0,0.0,0.0,0.0,0.0,0.0,0.0,0.0,0.0,0.0,0.0,0.0,0.0,0.0,0.0,0.0,0.0,0.0,0.0,0.0,0.0,0.0,0.0,2.0704,2.1152,2.0254,0.0,0.0,0.0,0.0,1.9107,1.9213,0.0,0.0,0.0,0.0,0.0,0.0,0.0,0.0,0.0,0.0,0.0,0.0,0.0,0.0,0.0,0.0,0.0,0.0,0.0,0.0,0.0,0.0,0.0,0.0,0.0,0.0,0.0,0.0,0.0,0.0,0.0,0.0,0.0,0.0,0.0,0.0,0.0,0.0,0.0,0.0,0.0,0.0,0.0,0.0,0.0,0.0,0.0,0.0,0.0,0.0,0.0,0.0,0.0,0.0,0.0,0.0,2.3679,2.4903,2.6353,2.7985,2.7576,2.7068,2.6633,2.4815,2.3094,0.0,0.0,0.0,0.0,0.0,0.0,0.0,0.0,0.0,0.0,0.0,0.0,0.0,0.0,0.0,0.0,0.0,0.0,0.0,0.0,0.0,0.0,0.0,0.0,0.0,0.0,0.0,0.0,0.0,0.0,0.0,0.0,0.0,0.0,0.0,0.0,0.0,0.0,0.0,0.0,0.0,2.1726,2.1555,2.0722,2.0185,0.0,0.0,2.0292,2.1114,2.163,0.0,0.0,0.0,0.0,0.0,0.0,0.0,0.0,0.0,0.0,0.0,0.0,0.0,0.0,0.0,0.0,0.0,0.0,0.0,0.0,0.0,0.0,0.0,0.0,0.0,0.0,0.0,0.0,0.0,0.0,0.0,0.0,0.0,0.0,0.0,0.0,0.0,0.0,0.0,0.0,0.0,0.0,0.0,0.0,0.0,0.0,0.0,0.0,0.0,0.0,0.0,0.0,0.0,0.0,0.0,2.2074,2.4217,2.5905,2.7354,2.8599,2.8112,2.7489,2.682,2.4521,2.276,0.0,0.0,0.0,0.0,0.0,0.0,0.0,0.0,0.0,0.0,0.0,0.0,0.0,0.0,0.0,0.0,0.0,0.0,0.0,0.0,0.0,0.0,0.0,0.0,0.0,0.0,0.0,0.0,0.0,0.0,0.0,0.0,0.0,0.0,0.0,0.0,0.0,0.0,0.0,0.0,0.0,0.0,2.2061,2.171,0.0,0.0,0.0,2.1694,2.3085,0.0,0.0,0.0,0.0,0.0,0.0,0.0,0.0,0.0,0.0,0.0,0.0,0.0,0.0,0.0,0.0,0.0,0.0,0.0,0.0,0.0,0.0,0.0,0.0,0.0,0.0,0.0,0.0,0.0,0.0,0.0,0.0,0.0,0.0,0.0,0.0,0.0,0.0,0.0,0.0,0.0,0.0,0.0,0.0,0.0,0.0,0.0,0.0,0.0,0.0,0.0,0.0,0.0,0.0,0.0,0.0,0.0,2.4693,2.682,2.839,2.929,2.8813,2.8077,2.7148,2.4796,0.0,0.0,0.0,0.0,0.0,0.0,0.0,0.0,0.0,0.0,0.0,0.0,0.0,0.0,0.0,0.0,0.0,0.0,0.0,0.0,0.0,0.0,0.0,0.0,0.0,0.0,0.0,1.4885,0.0,0.0,0.0,0.0,0.0,0.0,0.0,0.0,0.0,0.0,0.0,0.0,0.0,0.0,2.2178,2.2358,2.2535,2.2628,0.0,0.0,2.3032,2.5067,2.5784,2.6121,0.0,0.0,0.0,0.0,0.0,0.0,0.0,0.0,0.0,0.0,0.0,0.0,0.0,0.0,0.0,0.0,0.0,0.0,0.0,0.0,0.0,0.0,0.0,0.0,0.0,0.0,0.0,0.0,0.0,0.0,0.0,0.0,0.0,0.0,0.0,0.0,0.0,0.0,0.0,0.0,0.0,0.0,0.0,0.0,0.0,0.0,0.0,0.0,0.0,0.0,0.0,0.0,0.0,0.0,0.0,2.5037,2.7362,2.9107,3.0253,2.9722,2.9008,2.8119,2.6312,2.4883,0.0,0.0,0.0,0.0,0.0,0.0,0.0,0.0,0.0,0.0,0.0,0.0,0.0,0.0,0.0,0.0,0.0,0.0,0.0,0.0,0.0,0.0,0.0,0.0,0.0,0.0,0.0,0.0,0.0,0.0,0.0,0.0,0.0,0.0,0.0,0.0,0.0,0.0,0.0,0.0,0.0,2.2388,2.2402,2.2882,2.3536,0.0,0.0,2.4207,2.7045,2.8173,2.879,2.9,0.0,0.0,0.0,0.0,0.0,0.0,0.0,0.0,0.0,0.0,0.0,0.0,0.0,0.0,0.0,0.0,0.0,0.0,0.0,0.0,0.0,0.0,0.0,0.0,0.0,0.0,0.0,0.0,0.0,0.0,0.0,0.0,0.0,0.0,0.0,0.0,0.0,0.0,0.0,0.0,0.0,0.0,0.0,0.0,0.0,0.0,0.0,0.0,0.0,0.0,0.0,0.0,0.0,2.2916,2.5082,2.7235,2.9701,3.2325,3.1756,3.1009,3.0316,2.9961,2.8099,0.0,0.0,0.0,0.0,0.0,0.0,0.0,0.0,0.0,0.0,0.0,0.0,0.0,0.0,0.0,0.0,0.0,0.0,0.0,0.0,0.0,0.0,0.0,0.0,0.0,0.0,0.0,0.0,1.7142,1.7221,1.6898,0.0,0.0,0.0,0.0,0.0,0.0,0.0,0.0,0.0,0.0,2.3514,2.4222,2.4676,0.0,0.0,2.5189,2.5662,2.7639,2.81,2.8202,2.8191,2.8259,0.0,0.0,0.0,0.0,0.0,0.0,0.0,0.0,0.0,0.0,0.0,0.0,0.0,0.0,0.0,0.0,0.0,0.0,0.0,0.0,0.0,0.0,0.0,0.0,0.0,0.0,0.0,0.0,0.0,0.0,0.0,0.0,0.0,0.0,0.0,0.0,0.0,0.0,0.0,0.0,0.0,0.0,0.0,0.0,0.0,0.0,0.0,0.0,0.0,0.0,0.0,0.0,2.318,2.5369,2.7496,3.0314,3.3844,3.3246,3.2895,3.2887,3.2979,3.1088,0.0,0.0,0.0,0.0,0.0,0.0,0.0,0.0,0.0,0.0,0.0,0.0,0.0,0.0,0.0,0.0,0.0,0.0,0.0,0.0,0.0,0.0,0.0,0.0,0.0,0.0,0.0,0.0,1.7756,1.7622,1.7246,0.0,0.0,0.0,0.0,0.0,0.0,0.0,0.0,0.0,0.0,2.4334,2.5112,2.5671,2.5957,2.5877,2.6082,2.6664,2.7918,2.885,2.9339,2.8942,0.0,0.0,0.0,0.0,0.0,0.0,0.0,0.0,0.0,0.0,0.0,0.0,0.0,0.0,0.0,0.0,0.0,0.0,0.0,0.0,0.0,0.0,0.0,0.0,0.0,0.0,0.0,2.6967,0.0,0.0,2.5725,0.0,0.0,0.0,0.0,0.0,0.0,0.0,0.0,0.0,0.0,0.0,0.0,0.0,0.0,0.0,0.0,0.0,0.0,0.0,0.0,0.0,0.0,2.3581,2.5957,2.8322,3.1037,3.4111,3.3963,3.4501,3.5712,3.478,3.3545,3.2061,0.0,0.0,0.0,0.0,0.0,0.0,0.0,0.0,0.0,0.0,0.0,0.0,0.0,0.0,0.0,0.0,0.0,0.0,0.0,0.0,0.0,0.0,0.0,0.0,0.0,0.0,1.7273,1.7233,1.7219,0.0,0.0,0.0,0.0,0.0,0.0,0.0,0.0,0.0,0.0,2.3122,2.4581,2.4666,2.5424,2.5925,2.5625,2.6291,2.7116,2.7997,3.1068,3.314,0.0,0.0,0.0,0.0,0.0,0.0,0.0,0.0,0.0,0.0,0.0,0.0,0.0,0.0,0.0,0.0,0.0,0.0,0.0,0.0,0.0,0.0,0.0,0.0,0.0,0.0,0.0,2.9551,2.9082,0.0,0.0,0.0,0.0,0.0,0.0,0.0,0.0,0.0,0.0,0.0,3.0446,3.1979,0.0,0.0,0.0,0.0,0.0,0.0,0.0,0.0,0.0,0.0,0.0,0.0,2.3995,2.6062,2.9627,3.3134,3.6431,3.7571,3.8154,3.8227,3.8642,3.7017,3.3141,0.0,0.0,0.0,0.0,0.0,0.0,0.0,0.0,0.0,0.0,0.0,0.0,0.0,0.0,0.0,0.0,0.0,0.0,0.0,0.0,0.0,0.0,0.0,0.0,0.0,1.7822,0.0,0.0,0.0,0.0,0.0,0.0,0.0,0.0,0.0,0.0,0.0,2.1577,2.2438,2.4084,2.5386,2.5973,2.6507,2.6961,0.0,0.0,0.0,0.0,0.0,0.0,0.0,0.0,0.0,0.0,0.0,0.0,0.0,0.0,3.5433,3.0343,2.8921,2.8233,2.7219,0.0,0.0,0.0,0.0,0.0,0.0,0.0,0.0,0.0,0.0,0.0,0.0,0.0,0.0,3.1875,0.0,3.0566,0.0,0.0,0.0,0.0,0.0,0.0,0.0,0.0,3.2699,3.4414,3.4889,3.6556,3.6758,0.0,3.4308,3.0147,0.0,0.0,0.0,0.0,0.0,0.0,0.0,0.0,2.5877,2.7456,3.1902,3.5702,3.8622,3.9752,4.0506,4.0879,4.0798,3.8848,3.4886,3.1929,2.9646,0.0,0.0,0.0,0.0,0.0,0.0,0.0,0.0,0.0,0.0,0.0,0.0,0.0,0.0,0.0,0.0,0.0,0.0,0.0,0.0,0.0,0.0,0.0,1.845,0.0,0.0,0.0,0.0,0.0,0.0,0.0,0.0,0.0,2.0733,2.1897,2.3166,2.423,2.5398,2.6233,2.6593,0.0,0.0,0.0,0.0,0.0,0.0,0.0,3.3297,3.2656,3.3746,3.5033,3.6022,3.8492,4.0117,3.9336,0.0,0.0,3.3759,3.2369,3.1733,3.0735,3.2173,3.2994,3.1184,3.103,3.0611,0.0,0.0,0.0,0.0,0.0,0.0,0.0,0.0,3.4551,3.4453,0.0,3.3164,0.0,0.0,0.0,0.0,0.0,3.2949,0.0,0.0,3.8737,4.0059,3.9356,3.9766,3.9589,3.8729,3.8245,3.4934,2.9144,2.6024,0.0,0.0,0.0,0.0,0.0,0.0,2.9098,3.0082,3.4959,3.8578,4.0572,4.0539,4.1456,4.343,4.1269,3.918,3.7363,3.5293,3.3203,3.1074,2.815,0.0,0.0,0.0,0.0,0.0,0.0,0.0,0.0,0.0,0.0,0.0,0.0,0.0,0.0,0.0,0.0,0.0,0.0,0.0,0.0,1.9067,0.0,0.0,0.0,0.0,0.0,0.0,0.0,0.0,0.0,0.0,2.2818,2.3607,2.477,2.6179,0.0,0.0,0.0,0.0,2.7902,2.9168,3.0641,3.1937,3.2654,3.6036,3.8297,3.7418,0.0,0.0,4.0059,4.0742,4.0976,3.9648,4.0566,4.1015,4.0079,3.759,3.598,3.611,3.5814,3.5066,3.4046,3.3587,3.2583,3.8634,0.0,0.0,0.0,0.0,3.6565,3.7326,3.8497,3.8732,3.8361,3.748,3.6448,0.0,0.0,0.0,0.0,0.0,0.0,3.4459,3.6511,3.9238,4.1016,4.1992,4.2402,4.2324,4.1797,4.1348,3.8205,3.2821,3.1349,2.7209,2.0542,0.0,0.0,0.0,0.0,3.0287,3.3148,3.7338,3.9884,4.0683,4.2031,4.2721,4.2792,4.207,4.0605,3.8319,3.7305,3.5684,3.3277,3.0359,0.0,0.0,0.0,0.0,0.0,0.0,0.0,0.0,0.0,0.0,0.0,0.0,0.0,0.0,0.0,0.0,0.0,0.0,0.0,1.9067,1.9467,1.9559,0.0,0.0,0.0,0.0,0.0,0.0,0.0,0.0,0.0,2.7657,2.653,2.565,0.0,0.0,2.6814,2.646,2.85,3.046,3.1533,3.4478,0.0,3.7462,3.8906,3.9966,4.0028,4.1345,4.2402,4.2578,4.334,4.3711,4.3008,4.3203,4.3281,4.2656,4.1015,3.974,3.974,4.0028,4.0219,3.9899,3.8914,3.798,4.2773,4.0507,3.8965,3.8672,3.9238,3.9552,4.0391,4.1523,4.1719,4.1387,4.0664,3.957,3.8086,3.6326,3.5117,0.0,0.0,0.0,3.6879,3.9369,4.0994,4.2519,4.3828,4.4298,4.418,4.3614,4.3124,4.0617,3.625,3.5608,3.2114,2.598,0.0,0.0,2.7977,3.1068,3.3737,3.6092,3.9935,4.1917,4.1907,4.3082,4.3436,4.2929,4.2597,4.166,4.0156,3.9181,3.7832,3.5937,3.3379,3.0906,0.0,0.0,0.0,0.0,0.0,0.0,0.0,0.0,0.0,0.0,0.0,1.7836,0.0,0.0,0.0,0.0,1.8961,1.9972,2.0253,2.0889,0.0,0.0,0.0,0.0,0.0,0.0,0.0,2.3327,2.5446,2.787,3.0495,3.039,3.004,3.0108,3.02,3.0244,3.0251,0.0,3.3715,3.5357,3.7646,3.9689,4.1012,4.169,4.2207,4.2637,4.3634,4.4357,4.4473,4.5058,4.5351,4.5019,4.4902,4.4787,4.4295,4.3379,4.2657,4.252,4.2851,4.3261,4.3633,4.2171,4.0939,4.6699,4.5549,4.2012,4.0937,4.166,4.2402,4.3008,4.3477,4.3808,4.373,4.3282,4.2402,4.1289,4.0,3.8418,0.0,3.957,3.957,4.0879,4.3263,4.3633,4.4237,4.5057,4.5449,4.5256,4.4492,4.4023,4.2352,3.9595,3.865,3.6865,3.4138,3.0615,3.0113,3.2644,3.6229,3.8337,3.8893,4.2462,4.4141,4.3749,4.3711,4.3671,4.3633,4.2909,4.246,4.2304,4.084,3.9608,3.869,3.6502,3.4144,3.1619,0.0,0.0,0.0,0.0,0.0,0.0,0.0,0.0,0.0,0.0,0.0,0.0,0.0,0.0,0.0,2.1496,0.0,2.1787,2.2825,0.0,0.0,0.0,2.1577,2.2248,2.3322,2.4411,2.5426,0.0,0.0,3.2284,3.4814,3.664,3.7043,3.625,3.5779,3.6104,3.6254,3.7375,3.9602,4.0323,4.1298,4.3425,4.4136,4.4433,4.4725,4.5662,4.5898,4.5627,4.582,4.5976,4.5605,4.5627,4.5469,4.5076,4.4862,4.4922,4.4492,4.4433,4.4648,4.5168,4.3617,4.2151,4.8954,4.7073,4.6154,4.5488,4.5098,4.5293,4.582,4.6484,4.6269,4.5896,4.5469,4.4297,4.3047,4.1777,4.1367,4.1718,4.2616,4.2637,4.33,4.4531,4.4647,4.5,4.5529,4.5293,4.5254,4.5353,4.4922,4.3431,4.104,3.879,3.7883,3.8023,3.5233,3.444,3.571,3.7219,3.9293,4.1993,4.3232,4.3984,4.4219,4.3887,4.3555,4.3263,4.334,4.2949,4.1972,4.1269,4.0488,3.9552,3.6144,3.3462,3.184,2.7556,0.0,0.0,0.0,0.0,0.0,0.0,0.0,0.0,0.0,2.1349,1.9568,0.0,2.3594,0.0,2.3901,2.3721,2.2704,2.2875,0.0,0.0,2.3331,2.3652,2.49,2.5483,2.6699,2.9095,3.1003,3.363,3.7574,3.914,4.0686,4.2576,3.9377,3.6772,3.6727,3.8567,4.0225,4.1326,4.3026,4.4641,4.5398,4.551,4.5273,4.5037,4.5193,4.5271,4.5174,4.5232,4.5271,4.5174,4.5154,4.5137,4.5037,4.5018,4.5137,4.5314,4.5117,4.4901,4.5115,4.4609,4.4305,4.953,4.8167,4.7972,4.7578,4.7107,4.6953,4.7268,4.7812,4.7402,4.709,4.6797,4.5527,4.4453,4.3593,4.3554,4.3827,4.4256,4.4297,4.4647,4.5293,4.5291,4.5547,4.5959,4.5681,4.5723,4.5937,4.5527,4.4671,4.3387,4.1665,4.125,4.195,4.0472,3.9873,4.0143,3.9823,4.0694,4.2753,4.3379,4.3926,4.4375,4.4141,4.3535,4.2579,4.2734,4.2148,4.0664,4.0059,3.9078,3.7608,3.5041,3.2622,3.0449,2.8133,2.5549,0.0,0.0,0.0,0.0,0.0,0.0,0.0,0.0,0.0,0.0,0.0,2.6717,2.7302,2.7049,2.6374,2.5132,2.4982,2.5013,2.5171,2.5163,2.6006,2.8258,2.8916,3.0317,3.3161,3.5242,3.7585,4.0595,4.2238,4.3733,4.5355,4.3081,4.1114,4.0936,4.2192,4.3305,4.3786,4.5025,4.6016,4.6269,4.6113,4.59,4.5664,4.5584,4.5564,4.5564,4.5564,4.5564,4.5584,4.5564,4.5564,4.5564,4.5584,4.5683,4.584,4.5762,4.5584,4.5564,4.5584,4.5683,4.9635,4.9031,4.8613,4.8457,4.8437,4.8066,4.8089,4.8262,4.7855,4.7659,4.7542,4.6428,4.5703,4.533,4.533,4.533,4.533,4.533,4.5566,4.594,4.594,4.6135,4.6465,4.6465,4.6445,4.6367,4.6096,4.5881,4.5764,4.5109,4.4855,4.4975,4.4681,4.4448,4.4258,4.2793,4.2207,4.2577,4.3379,4.3984,4.4375,4.4217,4.3359,4.1816,4.168,4.0879,3.9277,3.8361,3.7055,3.5206,3.399,3.2096,2.9377,2.9312,2.8162,0.0,2.6194,0.0,0.0,0.0,0.0,0.0,0.0,0.0,0.0,2.862,3.0192,3.0872,3.065,2.9814,2.8237,2.803,2.7607,2.6765,2.7209,2.8711,3.15,3.2728,3.4447,3.7263,3.9757,4.1564,4.2601,4.4516,4.5918,4.6248,4.6133,4.5759,4.5868,4.5708,4.5824,4.6406,4.6406,4.6367,4.6328,4.6289,4.6269,4.6289,4.625,4.6308,4.625,4.6269,4.6289,4.6269,4.623,4.6269,4.6308,4.6269,4.6289,4.6269,4.625,4.623,4.623,4.623,4.6308,5.1706,4.9969,4.9867,4.9828,4.9805,4.9726,4.934,4.8734,4.8281,4.7891,4.76,4.7346,4.719,4.709,4.709,4.7112,4.7109,4.709,4.7171,4.7249,4.7249,4.7288,4.7366,4.7366,4.7148,4.6814,4.7112,4.6877,4.6148,4.4449,4.4078,4.4911,4.3058,4.2686,4.3744,0.0,0.0,0.0,4.3984,4.4316,4.4355,4.3319,4.2304,4.1348,4.0957,0.0,3.9238,3.8361,3.7729,3.7253,3.47,0.0,0.0,0.0,0.0,0.0,0.0,0.0,0.0,0.0,0.0,0.0,3.3824,3.3004,3.1184,3.3558,3.4804,3.3847,3.4216,3.3366,3.0438,3.0365,2.9789,2.8178,3.0076,3.2023,3.3192,3.5322,3.7787,4.0382,4.1488,4.2797,4.4714,4.5761,4.6326,4.6716,4.6794,4.6933,4.7168,4.6894,4.6833,4.7249,4.7012,4.6677,4.6348,4.6348,4.6387,4.6308,4.6308,4.6308,4.6308,4.6308,4.6308,4.6308,4.6308,4.6308,4.6328,4.6308,4.6367,4.6308,4.6328,4.6308,4.6308,4.6308,4.6308,5.1545,5.0492,5.0278,5.0199,0.0,5.0199,4.9945,4.9496,4.9043,4.8496,4.7913,4.7891,4.7773,4.76,4.76,4.76,4.76,4.76,4.76,4.76,4.76,4.76,4.76,4.76,4.7503,4.7266,4.7483,4.7363,4.6886,4.5928,4.5719,4.6267,4.5065,4.4859,4.5582,4.5389,4.4959,4.4375,4.4569,4.4805,4.5,4.4375,4.332,4.1855,4.1367,0.0,0.0,0.0,0.0,0.0,0.0,0.0,0.0,0.0,0.0,3.1138,3.1898,3.2683,3.3429,3.4393,3.5622,3.7154,3.8262,3.7836,3.5491,3.7145,3.8054,3.7518,3.7249,3.5997,3.3392,3.2467,3.1777,3.1224,3.2432,3.4333,3.7118,3.8941,4.0889,4.3162,4.4163,4.5024,4.6136,4.666,4.6992,4.7207,4.7266,4.7402,4.7754,4.7519,4.7344,4.7539,4.7444,4.7187,4.6992,4.6933,4.6836,4.668,4.6599,4.6523,4.6328,4.6308,4.6367,4.6521,4.6599,4.6638,4.6894,4.6956,4.6933,4.6933,4.6956,4.6956,4.6936,4.6601,4.6308,5.0894,5.0879,5.0547,5.0434,5.0414,5.0391,5.0351,5.0278,0.0,0.0,0.0,4.8457,4.8203,4.7835,4.7835,4.7835,4.7835,4.7835,4.7815,4.7835,4.7835,4.7835,4.7835,4.7835,4.7796,4.7718,4.7796,4.7737,4.76,4.7679,4.7656,4.762,4.76,4.76,4.7581,4.7204,4.6501,4.5486,4.5154,4.5174,4.5568,4.5432,4.4414,4.246,4.1953,4.0586,3.8361,3.7793,3.6534,3.4447,3.4231,3.3491,3.2053,3.3513,3.4376,3.435,3.6273,3.7498,3.7516,3.8552,3.9413,3.9942,4.1465,4.1484,3.9433,4.0019,4.0664,4.1133,4.0189,3.8722,3.6766,3.5339,3.451,3.4734,3.5138,3.7225,4.1149,4.2598,4.3812,4.5687,4.6511,4.7028,4.6987,4.7324,4.764,4.7698,4.7718,4.7855,4.8164,4.8047,4.7835,4.7754,4.7695,4.7679,4.76,4.7561,4.7464,4.7067,4.7028,4.6892,4.6641,4.6523,4.666,4.6992,4.7028,4.7187,4.7503,4.7542,4.76,4.76,4.76,4.76,4.7542,4.7053,4.6582,5.1323,5.1304,5.1265,5.1226,5.1226,5.1226,5.103,5.0683,5.0273,4.9805,4.9332,4.9313,4.9101,4.8737,4.8718,4.8737,4.8718,4.8718,4.8718,4.8718,4.8737,4.8737,4.8718,4.8718,4.8499,4.8164,4.8519,4.8346,4.7718,4.7972,4.793,4.7659,4.76,4.762,4.76,4.7542,4.7425,4.721,4.5781,4.5037,4.5076,4.4375,4.3475,4.2441,4.1699,4.0781,3.9649,3.8848,3.8249,3.7878,3.7474,3.7463,3.7916,3.8159,3.8692,3.9388,4.014,4.0566,4.0585,4.1055,4.1855,4.2988,4.4004,4.3788,4.207,4.2344,4.2989,4.371,4.3534,4.2799,4.1006,4.0321,3.9351,3.7965,3.9645,4.1541,4.2712,4.4712,4.6348,4.7143,4.7425,4.7522,4.75,4.76,4.7815,4.8027,4.8148,4.8284,4.8617,4.8734,4.8538,4.8223,4.8125,4.7969,4.7776,4.762,4.762,4.7542,4.7503,4.7441,4.7346,4.7307,4.7366,4.7461,4.75,4.7539,4.7659,4.76,4.7679,4.7698,4.7718,4.7679,4.7698,4.7522,4.7425,5.1636,5.1397,5.1397,5.1397,5.1397,5.1397,5.1304,5.1109,5.0937,5.0488,4.9902,4.9883,4.9766,4.9594,4.9594,4.9617,4.9594,4.9617,4.9594,4.9594,4.9617,4.9594,4.9594,4.9594,4.9496,4.9297,4.9219,4.9023,4.8649,4.8617,4.848,4.8327,4.8304,4.8187,4.793,4.791,4.7812,4.7581,4.656,4.6033,4.6013,4.543,4.4803,4.4199,4.3574,4.2851,4.1992,4.1133,4.0547,4.0351,3.9902,3.9863,4.0273,4.0507,4.0801,4.1172,4.1621,4.1973,4.2207,4.2832,4.3555,4.4334,4.4764,4.4803,4.4238,4.416,4.4316,4.4686,4.4725,4.3947,4.2043,4.1814,4.154,4.1014,4.2098,4.3506,4.5145,4.6395,4.7363,4.76,4.7793,4.793,4.791,4.8148,4.8366,4.8558,4.8578,4.8675,4.8874,4.8894,4.8835,4.8617,4.8597,4.8519,4.8346,4.8284,4.8206,4.7991,4.791,4.7835,4.7679,4.762,4.7718,4.7871,4.793,4.8027,4.8206,4.8327,4.8284,4.8304,4.8304,4.8327,4.8304,4.8304,4.8151,5.1797,5.1558,5.144,5.1397,5.1397,5.1397,5.1397,5.1397,5.1377,5.1074,5.0508,5.0371,5.0238,5.0039,5.0137,5.0199,5.0199,5.0199,5.0141,5.0039,5.0039,5.0019,5.0063,5.0039,5.0063,5.0019,4.9785,4.9547,4.9375,4.9144,4.8988,4.889,4.8894,4.8737,4.8382,4.8359,4.8206,4.7874,4.7441,4.7146,4.7048,4.6758,4.6348,4.5861,4.5488,4.4881,4.4003,4.3262,4.2695,4.2402,4.1992,4.1758,4.1797,4.2148,4.2383,4.2422,4.2753,4.3144,4.3536,4.4259,4.4863,4.5252,4.5389,4.5623,4.6037,4.5801,4.5525,4.5467,4.5586,4.4962,4.3744,4.3383,4.3537,4.4189,4.4263,4.522,4.7279,4.7737,4.7796,4.7894,4.8164,4.8359,4.8418,4.8675,4.8855,4.8855,4.8894,4.8894,4.8894,4.8894,4.8894,4.8894,4.8894,4.8874,4.8894,4.8874,4.8718,4.8379,4.8382,4.8265,4.803,4.7913,4.7991,4.8281,4.8359,4.8457,4.8792,4.8874,4.8835,4.8792,4.8796,4.8855,4.8815,4.8812,4.8698,5.1699,5.1933,5.1558,5.1397,5.1397,5.1397,5.1397,5.1397,5.1397,5.1382,5.1187,5.0894,5.0332,4.9683,5.0039,5.0238,5.0238,5.0199,5.0,4.9664,4.9566,4.9566,4.9644,4.9625,4.9566,4.9644,4.9941,4.973,4.9066,4.9277,4.9238,4.8929,4.8894,4.8871,4.8812,4.8835,4.8815,4.8776,4.8323,4.7891,4.7561,4.7503,4.7092,4.6269,4.6211,4.5781,4.492,4.4452,4.4199,4.4121,4.3691,4.3457,4.3496,4.3906,4.4141,4.4141,4.451,4.4783,4.4842,4.5314,4.5762,4.613,4.6501,4.6853,4.7327,4.7366,4.7148,4.6853,4.709,4.707,4.7091,4.6899,4.6767,4.6812,4.6941,4.7495,4.7979,4.8144,4.8301,4.8757,4.8734,4.8835,4.8773,4.8832,4.8894,4.8835,4.8851,4.8874,4.8812,4.8894,4.8894,4.8894,4.8894,4.8894,4.8894,4.8894,4.8855,4.8815,4.8815,4.8714,4.8636,4.8679,4.8796,4.8636,4.8753,4.8792,4.8832,4.8894,4.8894,4.8894,4.8894,4.8894,4.8894,4.8894,4.8796,5.1777,5.1655,5.1479,5.1397,5.1397,5.1397,5.1397,5.1397,5.1397,5.1265,5.1069,5.1109,5.0952,5.064,5.0835,5.0918,5.0894,5.0894,5.0816,5.064,5.062,5.062,5.062,5.064,5.0503,5.0273,5.0238,4.9863,4.9336,4.9203,4.9046,4.889,4.8894,4.8894,4.8894,4.8894,4.8894,4.8894,4.8737,4.8519,4.8323,4.7855,4.7444,4.7112,4.6816,4.6501,4.6111,4.5508,4.5177,4.5138,4.4726,4.4471,4.4492,4.4647,4.4766,4.4783,4.5389,4.5781,4.576,4.6428,4.6897,4.7073,4.7207,4.7402,4.76,4.7835,4.7871,4.7712,4.7617,4.76,4.762,4.76,4.7676,4.7891,4.7949,4.8148,4.8558,4.8617,4.8714,4.8874,4.8894,4.8894,4.8894,4.8894,4.8773,4.8617,4.8695,4.8835,4.8578,4.8714,4.8894,4.8894,4.8894,4.8894,4.8894,4.8894,4.8894,4.8894,4.8894,4.8894,4.8894,4.8894,4.8894,4.8894,4.8894,4.8894,4.8871,4.8894,4.8894,4.8894,4.8894,4.8894,4.8894,4.8894,4.8894,5.2447,5.1782,5.1636,5.1519,5.1397,5.1397,5.1397,5.1397,5.1397,5.1226,5.1011,5.1284,5.1397,5.1397,5.1397,5.1397,5.1397,5.1397,5.1343,5.1226,5.1128,5.1133,5.1206,5.0972,5.0796,5.0625,5.0336,4.9941,4.9488,4.9105,4.8894,4.8894,4.8894,4.8894,4.8913,4.8988,4.9031,4.8933,4.9011,4.9066,4.8968,4.8343,4.7894,4.7776,4.7419,4.7204,4.7087,4.6523,4.6213,4.6213,4.5879,4.5723,4.5701,4.5701,4.5701,4.574,4.6289,4.666,4.666,4.7249,4.7659,4.7734,4.7754,4.7874,4.8086,4.8281,4.8437,4.8512,4.8206,4.7972,4.7952,4.7952,4.8089,4.834,4.8379,4.8558,4.8812,4.8894,4.8894,4.8894,4.8894,4.8894,4.8894,4.8894,4.8757,4.8359,4.8597,4.8714,4.8379,4.8597,4.8894,4.8894,4.8894,4.8894,4.8894,4.8894,4.8894,4.8894,4.8894,4.8894,4.8894,4.8894,4.8894,4.8894,4.8894,4.8894,4.8894,4.8894,4.8894,4.8894,4.8894,4.8894,4.8894,4.8894,4.8894,5.4096,5.2643,5.2232,5.1797,5.1397,5.1397,5.1397,5.1397,5.1397,5.1358,5.1362,5.1358,5.1397,5.1397,5.1397,5.1397,5.1397,5.1397,5.1226,5.0898,5.0508,5.0488,5.0738,4.9996,4.984,5.0317,5.0258,4.9941,4.9469,4.9105,4.8894,4.8894,4.8894,4.8913,4.8991,4.9277,4.9277,4.9007,4.9297,4.9469,4.941,4.9046,4.8636,4.8301,4.8144,4.791,4.762,4.7522,4.7483,4.7503,4.7386,4.7405,4.7444,4.7425,4.7366,4.7405,4.7483,4.7542,4.7522,4.764,4.7832,4.8125,4.8242,4.8535,4.9176,4.8988,4.8968,4.9371,4.8945,4.8757,4.8757,4.8679,4.8737,4.8773,4.8832,4.8874,4.8894,4.8894,4.8894,4.8894,4.8894,4.8894,4.8894,4.8894,4.8675,4.8418,4.8597,4.8714,4.8402,4.8597,4.8855,4.8894,4.8894,4.8894,4.8894,4.8894,4.8894,4.8894,4.8894,4.8894,4.8894,4.8894,4.8894,4.8851,4.8792,4.8792,4.8874,4.8894,4.8874,4.8874,4.8894,4.8894,4.8894,4.8894,4.8894,5.4298,5.2329,5.2173,5.1836,5.1397,5.1397,5.1397,5.1397,5.1397,5.1397,5.1397,5.1397,5.1397,5.1397,5.1397,5.1397,5.1397,5.1397,5.1323,5.1167,5.103,5.1074,5.1128,5.0835,5.062,5.0547,5.0317,4.9828,4.9183,4.8972,4.8894,4.8894,4.8894,4.9007,4.9258,4.941,4.941,4.9355,4.9726,4.9824,4.9566,4.9648,4.9652,4.9457,4.8633,4.8122,4.7988,4.7737,4.76,4.76,4.76,4.76,4.76,4.76,4.76,4.762,4.7855,4.7988,4.8047,4.8516,4.8864,4.9,4.9039,4.9277,4.9668,4.934,4.9066,4.9313,4.9121,4.8913,4.8894,4.8894,4.8894,4.8894,4.8894,4.8894,4.8894,4.8894,4.8894,4.8894,4.8894,4.8894,4.8894,4.8894,4.8695,4.834,4.8597,4.8636,4.8398,4.8597,4.8894,4.8894,4.8894,4.8894,4.8894,4.8894,4.8894,4.8894,4.8894,4.8894,4.8894,4.8855,4.8835,4.8734,4.8675,4.848,4.846,4.8519,4.8558,4.8815,4.8812,4.8894,4.8894,4.8894,4.8894,5.4478,5.2286,5.209,5.1836,5.144,5.1558,5.1616,5.1616,5.1616,5.1616,5.1621,5.1479,5.1397,5.1397,5.1397,5.1397,5.1397,5.1397,5.1397,5.1377,5.1265,5.1284,5.1343,5.1128,5.0933,5.0762,5.0371,4.9867,4.9379,4.9301,4.9301,4.9343,4.9301,4.9457,4.9707,4.984,4.9859,4.9863,5.0156,5.0234,5.0,5.0098,5.0254,5.0215,4.9375,4.8769,4.8629,4.8359,4.8125,4.805,4.8148,4.8203,4.8226,4.8089,4.8089,4.8223,4.8476,4.8711,4.8867,4.9414,4.9703,4.9726,4.9746,4.9883,5.0121,4.9676,4.9515,4.957,4.9336,4.9086,4.9066,4.8968,4.8894,4.8894,4.8894,4.8894,4.8894,4.8894,4.8894,4.8894,4.8894,4.8894,4.8894,4.8894,4.8675,4.8262,4.8597,4.8695,4.8379,4.8597,4.8894,4.8894,4.8894,4.8894,4.8894,4.8894,4.8894,4.8894,4.8894,4.8894,4.8874,4.8815,4.8737,4.8636,4.8421,4.8125,4.8047,4.8125,4.834,4.8636,4.8792,4.8894,4.8894,4.8894,4.8894,5.4663,5.2335,5.2134,5.1933,5.1616,5.1933,5.2114,5.207,5.209,5.2114,5.2051,5.1655,5.1558,5.1479,5.1577,5.1479,5.1514,5.1558,5.1475,5.1382,5.1074,5.1113,5.1362,5.0762,5.0586,5.0781,5.0414,5.0219,5.0102,5.0063,5.0082,5.0141,5.0082,5.0082,5.0199,5.0488,5.0527,5.0336,5.0547,5.0762,5.0742,5.043,5.0469,5.0723,5.0351,4.9941,4.9527,4.9469,4.9238,4.8988,4.9215,4.9488,4.9352,4.9105,4.9066,4.9355,4.9469,4.9683,5.0039,5.0117,5.0176,5.0199,5.0199,5.0238,5.0336,5.018,5.0102,5.0098,4.9805,4.9508,4.9391,4.9141,4.8929,4.8913,4.8933,4.8949,4.8913,4.8894,4.8894,4.8894,4.8894,4.8894,4.8894,4.8894,4.8714,4.8499,4.8617,4.8773,4.8441,4.8656,4.8874,4.8894,4.8894,4.8894,4.8894,4.8894,4.8894,4.8894,4.8894,4.8894,4.8812,4.8773,4.8656,4.8538,4.8109,4.7832,4.7969,4.8047,4.8203,4.848,4.8656,4.8894,4.8894,4.8874,4.8855,5.3797,5.3019,5.2994,5.274,5.2319,5.2461,5.2519,5.2519,5.2519,5.2519,5.25,5.2363,5.2324,5.2305,5.228,5.228,5.228,5.226,5.1987,5.1479,5.1284,5.1284,5.1343,5.1148,5.0957,5.082,5.0683,5.0449,5.0258,5.0219,5.0199,5.0199,5.0219,5.0356,5.0605,5.0723,5.0605,5.0336,5.0879,5.0976,5.0508,5.0796,5.1069,5.1167,5.1089,5.0816,5.0406,5.0137,4.9922,4.9769,4.9902,4.998,4.9965,4.9867,4.9867,4.9961,4.998,5.0,5.0199,5.0449,5.0605,5.0605,5.0629,5.0762,5.0918,5.0508,5.0351,5.0508,5.0215,4.9883,4.9547,4.9391,4.9219,4.891,4.9121,4.916,4.8968,4.891,4.8894,4.8894,4.8894,4.8894,4.8894,4.8894,4.8812,4.8695,4.8815,4.8773,4.8734,4.8753,4.8894,4.8894,4.8894,4.8894,4.8894,4.8894,4.8894,4.8894,4.8894,4.8894,4.8812,4.8675,4.8578,4.8304,4.7874,4.7718,4.7855,4.7972,4.8089,4.8441,4.8776,4.8874,4.8874,4.8855,4.8815,5.4199,5.3435,5.341,5.313,5.2754,5.2871,5.2974,5.2949,5.2949,5.2949,5.293,5.2773,5.2715,5.2715,5.2715,5.2715,5.2715,5.2715,5.2397,5.1948,5.187,5.1811,5.1655,5.146,5.1304,5.1069,5.1011,5.0874,5.0664,5.0644,5.0644,5.0644,5.0644,5.0781,5.0991,5.1035,5.082,5.0547,5.0918,5.0913,5.0625,5.0918,5.1245,5.1382,5.1377,5.1265,5.1011,5.0781,5.0488,5.0258,5.0199,5.0258,5.0395,5.0297,5.0234,5.0391,5.0453,5.0469,5.0644,5.0898,5.1011,5.1035,5.1035,5.1035,5.1109,5.0723,5.0781,5.0723,5.0566,5.0312,5.0035,4.9844,4.9648,4.9418,4.9433,4.9391,4.9164,4.9125,4.9027,4.8949,4.8894,4.8894,4.8894,4.8894,4.8894,4.8894,4.8894,4.8894,4.8894,4.8894,4.8894,4.8894,4.8894,4.8894,4.8894,4.8894,4.8894,4.8894,4.8894,4.8894,4.8851,4.8597,4.8421,4.8008,4.7578,4.75,4.7598,4.7698,4.7815,4.8327,4.8815,4.8874,4.8874,4.8776,4.8757,5.5471,5.3524,5.3424,5.3228,5.293,5.3267,5.3424,5.3424,5.3424,5.3449,5.3345,5.3066,5.2871,5.2812,5.2905,5.293,5.2843,5.3296,5.337,5.3326,5.342,5.3383,5.2584,5.2223,5.1847,5.1387,5.1362,5.1338,5.1265,5.1265,5.1401,5.1304,5.1284,5.1338,5.1343,5.1382,5.1148,5.0801,5.0859,5.0879,5.0781,5.0879,5.103,5.1377,5.1377,5.1382,5.1343,5.1284,5.0972,5.0395,5.0336,5.0449,5.0683,5.0469,5.0508,5.082,5.084,5.1016,5.1284,5.1304,5.1343,5.1343,5.1323,5.1245,5.0991,5.1128,5.1148,5.0957,5.0859,5.0801,5.0683,5.043,5.0238,5.0156,4.9863,4.9625,4.9586,4.9547,4.9293,4.9046,4.8952,4.8894,4.8894,4.8894,4.8894,4.8894,4.8894,4.8894,4.8894,4.8894,4.8894,4.8894,4.8894,4.8894,4.8894,4.8894,4.8894,4.8894,4.8894,4.8894,4.8894,4.8636,4.848,4.8027,4.7598,4.748,4.7539,4.7776,4.7972,4.8402,4.8695,4.8812,4.8812,4.8714,4.8695,5.4412,5.3848,5.3848,5.3764,5.3666,5.3783,5.3822,5.3822,5.3822,5.3828,5.3783,5.3705,5.3607,5.3646,5.3627,5.3666,5.3995,5.5122,5.5869,5.6151,5.7568,5.6496,5.4761,5.4105,5.3076,5.1683,5.1475,5.1397,5.1397,5.1455,5.1416,5.1397,5.144,5.1397,5.1397,5.1397,5.1187,5.0918,5.1109,5.1074,5.0879,5.1069,5.1284,5.1358,5.1397,5.1397,5.1397,5.1397,5.1343,5.1109,5.0781,5.084,5.1148,5.1089,5.1069,5.1167,5.1226,5.1265,5.1362,5.1397,5.1397,5.1397,5.1397,5.1362,5.1265,5.1343,5.1343,5.1245,5.1245,5.1109,5.0879,5.0723,5.0644,5.0586,5.0293,5.0137,5.0211,4.9879,4.9449,4.9336,4.9105,4.8949,4.8968,4.8929,4.8929,4.891,4.8929,4.8913,4.889,4.8894,4.8894,4.8894,4.8894,4.8894,4.8894,4.8894,4.8894,4.8894,4.8894,4.8894,4.8894,4.8792,4.8734,4.8578,4.8066,4.7832,4.8109,4.8363,4.8538,4.8538,4.8714,4.8894,4.8753,4.8656,4.8675,5.4771,5.3998,5.3972,5.3972,5.3972,5.3972,5.3972,5.3972,5.3972,5.3972,5.3972,5.3972,5.3972,5.3972,5.3972,5.4502,5.5366,5.6453,5.743,5.8632,6.0322,5.9078,5.6247,5.479,5.3285,5.2149,5.1948,5.1968,5.1968,5.1948,5.185,5.1733,5.1675,5.1621,5.1397,5.1377,5.1206,5.0918,5.103,5.1035,5.0859,5.1011,5.1245,5.1362,5.1397,5.1397,5.1377,5.1245,5.1206,5.1304,5.1187,5.1148,5.1338,5.1397,5.1397,5.1397,5.1397,5.1377,5.1397,5.1397,5.1397,5.1397,5.1397,5.1397,5.1377,5.1397,5.1397,5.1377,5.1377,5.1284,5.1109,5.105,5.103,5.1035,5.084,5.0723,5.0796,5.0347,4.9996,4.9766,4.9433,4.9242,4.9379,4.9281,4.9183,4.9164,4.9203,4.9066,4.8929,4.891,4.8894,4.8894,4.8894,4.8894,4.8894,4.8894,4.8894,4.8894,4.8894,4.8894,4.8894,4.8894,4.8874,4.8734,4.8418,4.8281,4.8519,4.8617,4.8538,4.8597,4.8792,4.8874,4.8753,4.8695,4.8714,5.5844,5.3972,5.3972,5.3972,5.3972,5.3972,5.3972,5.3972,5.3972,5.3972,5.3972,5.3972,5.3972,5.4017,5.4496,5.5336,5.692,5.7834,5.8997,6.0344,6.1373,6.0123,5.6573,5.5185,5.3753,5.2762,5.2695,5.2637,5.2534,5.2592,5.248,5.2226,5.2148,5.1953,5.1733,5.1577,5.1265,5.1094,5.1016,5.1016,5.0957,5.1016,5.1148,5.1338,5.1397,5.1397,5.1323,5.1128,5.105,5.1401,5.1338,5.1323,5.1338,5.1397,5.1436,5.1519,5.1558,5.1558,5.1577,5.1675,5.1616,5.1655,5.1611,5.1499,5.1558,5.1558,5.1519,5.1397,5.1397,5.1382,5.1362,5.1382,5.1362,5.1323,5.1319,5.1206,5.0952,5.084,5.0688,5.0317,4.984,4.9844,4.9922,4.9863,4.9566,4.957,4.9512,4.9277,4.9105,4.8968,4.8929,4.8894,4.8894,4.8894,4.8894,4.8894,4.8894,4.8894,4.8894,4.8894,4.8894,4.8894,4.8894,4.8773,4.8597,4.8578,4.8734,4.8734,4.8617,4.8656,4.8851,4.8894,4.8874,4.8812,4.8835,5.5799,5.3972,5.3972,5.3972,5.3972,5.3972,5.3972,5.3972,5.3972,5.3972,5.3972,5.3972,5.4049,5.4163,5.5551,5.6659,5.7783,6.0108,6.2129,6.2151,6.1001,5.9485,5.7452,5.7048,5.5818,5.3702,5.2734,5.2734,5.2729,5.2787,5.2676,5.2598,5.2578,5.2519,5.2358,5.2051,5.1914,5.1758,5.1484,5.1323,5.1323,5.1323,5.1362,5.1479,5.1479,5.144,5.1401,5.1323,5.1323,5.1323,5.1206,5.1269,5.1421,5.1436,5.1597,5.1875,5.1953,5.207,5.2344,5.2363,5.2422,5.2338,5.228,5.2305,5.1973,5.1953,5.1777,5.1519,5.1397,5.1475,5.1519,5.1416,5.1499,5.1519,5.1479,5.1421,5.1245,5.1016,5.0801,5.0625,5.0312,5.0078,5.0199,5.0199,5.0039,5.0,4.9805,4.9508,4.9316,4.9144,4.9086,4.9086,4.9027,4.9027,4.8894,4.8894,4.8894,4.8894,4.8894,4.8894,4.8894,4.8894,4.8894,4.8871,4.8832,4.8871,4.8894,4.8894,4.8753,4.8832,4.8894,4.8894,4.8894,4.8894,4.8894,5.5819,5.4049,5.3972,5.3972,5.3972,5.3972,5.3972,5.3972,5.3972,5.3972,5.3972,5.3972,5.4496,5.5421,5.6605,5.7858,6.025,6.2916,6.3932,6.3118,6.1832,5.9916,5.7485,5.7546,5.6422,5.3664,5.3315,5.3315,5.3315,5.3256,5.3262,5.3027,5.3008,5.2871,5.2734,5.25,5.2383,5.2344,5.2168,5.2007,5.2007,5.2007,5.2007,5.2007,5.2007,5.2007,5.2026,5.2026,5.2007,5.1948,5.1816,5.168,5.1699,5.1758,5.1953,5.2285,5.2383,5.2461,5.2656,5.2715,5.2695,5.2734,5.2715,5.2598,5.2441,5.2383,5.2285,5.2109,5.2026,5.2007,5.2007,5.2026,5.2007,5.1992,5.1811,5.1714,5.1636,5.1343,5.1069,5.1016,5.0742,5.0683,5.0664,5.0566,5.0488,5.0449,5.041,5.0132,4.9883,4.9691,4.9476,4.9398,4.9258,4.9164,4.8949,4.8894,4.8894,4.8894,4.8894,4.8894,4.8894,4.8894,4.8894,4.8871,4.8871,4.8871,4.8894,4.8894,4.8894,4.8894,4.8894,4.8894,4.8894,4.8894,4.8894,5.5844,5.3998,5.3972,5.3972,5.3972,5.3972,5.3972,5.3972,5.3972,5.3972,5.4112,5.4245,5.5531,5.6793,5.7958,6.0203,6.305,6.4692,6.4844,6.2401,6.2106,5.9653,5.713,5.6177,5.5795,5.421,5.3939,5.392,5.392,5.3978,5.3705,5.3516,5.3482,5.334,5.3008,5.2832,5.2812,5.2793,5.2656,5.2553,5.2573,5.2573,5.2573,5.2598,5.2598,5.2578,5.2553,5.2598,5.2656,5.2715,5.2715,5.2558,5.2388,5.2232,5.2363,5.2754,5.2812,5.291,5.3047,5.2983,5.2963,5.291,5.2924,5.2891,5.2851,5.2793,5.2715,5.2676,5.2598,5.2598,5.267,5.2573,5.2617,5.2578,5.2305,5.2109,5.2012,5.1699,5.1401,5.1323,5.1089,5.1035,5.105,5.1055,5.0976,5.0879,5.084,5.0742,5.0449,5.018,4.9926,4.9746,4.9648,4.9652,4.9457,4.9144,4.9125,4.9046,4.9007,4.891,4.8933,4.8894,4.8894,4.8894,4.8894,4.8894,4.8894,4.8894,4.8894,4.8894,4.8894,4.8894,4.8894,4.8894,4.8894,5.5824,5.3972,5.3972,5.3972,5.3972,5.3972,5.3972,5.3972,5.3972,5.3998,5.4302,5.574,5.6556,5.7928,6.0838,6.3385,6.5177,6.5995,6.4426,6.1695,6.1023,5.8949,5.6165,5.5422,5.4985,5.4535,5.4476,5.4427,5.4037,5.3953,5.3978,5.39,5.3861,5.3744,5.3607,5.3476,5.3287,5.3228,5.3008,5.2846,5.2826,5.2851,5.2851,5.2851,5.2871,5.2832,5.2768,5.2729,5.2715,5.2715,5.2715,5.2891,5.3013,5.2812,5.2891,5.317,5.3287,5.3359,5.3568,5.3705,5.3764,5.3783,5.3685,5.3555,5.3384,5.3267,5.3144,5.291,5.2812,5.2754,5.2715,5.2851,5.2729,5.2637,5.2461,5.2187,5.2114,5.1836,5.1519,5.1499,5.1382,5.1284,5.1284,5.1284,5.1206,5.1089,5.1011,5.0952,5.0801,5.0508,5.0238,5.0137,5.0078,5.0102,5.0043,4.9691,4.9433,4.9355,4.9258,4.9027,4.8988,4.8933,4.8894,4.8894,4.8894,4.8894,4.8894,4.8894,4.8894,4.8894,4.8894,4.8894,4.8894,4.8894,4.8894,5.4903,5.3998,5.3972,5.3972,5.3972,5.3972,5.3972,5.3972,5.3998,5.4603,5.5581,5.6679,5.8681,6.0764,6.2109,6.4483,6.6417,6.6947,6.5218,6.2874,6.1787,6.0201,5.7122,5.6357,5.7115,5.7634,5.7372,5.5774,5.4503,5.4375,5.4289,5.4017,5.3972,5.3972,5.3978,5.3783,5.3711,5.3633,5.3451,5.3334,5.3334,5.3334,5.3354,5.3354,5.3354,5.3373,5.3354,5.3354,5.3373,5.3393,5.3373,5.3516,5.3555,5.3555,5.3432,5.3652,5.3691,5.3769,5.3959,5.3972,5.3978,5.3978,5.3972,5.392,5.3789,5.3691,5.3574,5.3432,5.3354,5.3373,5.3412,5.3334,5.3373,5.332,5.2988,5.2779,5.2661,5.2305,5.2031,5.1733,5.1558,5.146,5.1358,5.1358,5.1377,5.1323,5.1206,5.1128,5.1069,5.0898,5.0625,5.0488,5.043,5.0351,5.0356,5.0117,4.9863,4.9766,4.9551,4.932,4.9144,4.9105,4.8968,4.8894,4.8894,4.8894,4.8894,4.8894,4.8894,4.8894,4.8894,4.8894,4.8894,4.8894,4.8894,5.3972,5.3972,5.3972,5.3972,5.3972,5.3972,5.3972,5.4055,5.4522,5.5526,5.6969,5.8082,6.0627,6.3474,6.4462,6.5524,6.7797,6.7919,6.6849,6.515,6.4123,6.2619,6.0526,5.9798,5.9764,6.0686,6.074,5.8608,5.6413,5.5843,5.5081,5.4386,5.4095,5.3972,5.3978,5.3959,5.3972,5.3972,5.3972,5.3972,5.3972,5.3972,5.3972,5.3972,5.3972,5.3959,5.39,5.3881,5.39,5.39,5.392,5.3978,5.3972,5.3972,5.3972,5.3972,5.3972,5.3972,5.3972,5.3972,5.3972,5.3972,5.3972,5.3998,5.3978,5.3939,5.3959,5.3972,5.3933,5.392,5.3861,5.3959,5.3959,5.3842,5.3574,5.3371,5.317,5.2876,5.248,5.2187,5.1831,5.1636,5.1538,5.1397,5.1397,5.1397,5.1304,5.1304,5.1245,5.1284,5.1089,5.0894,5.0781,5.0625,5.0566,5.0488,5.0332,5.0254,4.998,4.9687,4.9492,4.9355,4.9261,4.9183,4.8894,4.8894,4.8894,4.8913,4.8894,4.8894,4.8894,4.8894,4.8894,4.8894,4.8894,5.3972,5.3972,5.3972,5.3972,5.3972,5.3972,5.4023,5.4302,5.5819,5.6712,5.7758,6.0603,6.2517,6.4042,6.6414,6.7396,6.8082,6.8692,6.8291,6.6737,6.61,6.4601,6.2281,6.2554,6.2649,6.3401,6.3461,6.1579,5.9554,5.8666,5.6899,5.5288,5.4398,5.3998,5.3998,5.3998,5.3972,5.3972,5.3972,5.3972,5.3972,5.3972,5.3998,5.4037,5.4017,5.4037,5.4076,5.4095,5.4056,5.4017,5.4037,5.4037,5.3972,5.3972,5.3972,5.3972,5.3972,5.3972,5.4017,5.3972,5.3972,5.3972,5.3972,5.3972,5.3972,5.3972,5.3972,5.3972,5.3972,5.3972,5.3972,5.3972,5.3972,5.3881,5.3691,5.3502,5.3384,5.334,5.2969,5.2759,5.2441,5.2012,5.1694,5.1538,5.1397,5.1397,5.1397,5.1416,5.1397,5.1397,5.1397,5.1187,5.1089,5.0952,5.0898,5.082,5.0762,5.0723,5.041,5.0098,4.9961,4.9805,4.9766,4.9633,4.9281,4.907,4.9167,4.9148,4.8991,4.8894,4.8894,4.8894,4.8894,4.8894,4.8894,5.3972,5.3972,5.3972,5.3972,5.3972,5.3972,5.4685,5.574,5.6609,5.8334,6.0391,6.2151,6.4003,6.5854,6.856,6.9654,6.98,7.0154,6.9971,6.8975,6.8311,6.7337,6.6337,6.5824,6.5744,6.6796,6.6806,6.6319,6.3999,6.1022,5.845,5.7076,5.528,5.4232,5.4286,5.4023,5.3972,5.3972,5.3972,5.3972,5.3972,5.4017,5.4115,5.4355,5.4134,5.4154,5.4336,5.4394,5.4232,5.4193,5.4369,5.4466,5.4213,5.4213,5.4394,5.4414,5.4414,5.4297,5.4056,5.4037,5.4056,5.4017,5.4017,5.3972,5.3972,5.3972,5.3972,5.3972,5.3972,5.3972,5.3972,5.3972,5.3972,5.392,5.3808,5.3769,5.3672,5.3613,5.3451,5.3262,5.3052,5.2637,5.2305,5.2221,5.2046,5.1792,5.1714,5.1636,5.1538,5.1397,5.1397,5.1358,5.1319,5.128,5.1245,5.1187,5.1128,5.105,5.0801,5.0547,5.043,5.0332,5.0215,4.998,4.9609,4.9496,4.9539,4.9246,4.8952,4.8913,4.8894,4.8894,4.8894,4.8894,4.8894,5.3972,5.3972,5.3972,5.3972,5.4055,5.4496,5.5581,5.6944,5.8259,6.0297,6.2558,6.3695,6.5434,6.7668,6.9531,7.0455,7.1031,7.1382,7.1485,7.1158,7.0709,7.0026,6.9321,6.8834,6.9367,7.111,6.9955,6.9455,6.8022,6.5185,6.1957,5.9952,5.7341,5.5963,5.5144,5.4445,5.3972,5.4017,5.4154,5.4134,5.4037,5.3972,5.4193,5.4336,5.4355,5.4336,5.4655,5.4824,5.4603,5.4603,5.4876,5.4896,5.4564,5.4687,5.4824,5.4824,5.4844,5.4746,5.4525,5.4427,5.433,5.4291,5.4154,5.4173,5.3972,5.3972,5.3972,5.3972,5.3972,5.3972,5.3972,5.3972,5.3972,5.3972,5.3959,5.3998,5.3953,5.3842,5.3764,5.3672,5.3496,5.3398,5.3119,5.3061,5.2787,5.2344,5.209,5.1875,5.1655,5.1436,5.1397,5.1397,5.1397,5.1397,5.1377,5.1377,5.1377,5.1319,5.1069,5.0952,5.0835,5.0679,5.0527,5.0254,4.998,5.0,5.0082,4.9476,4.8933,4.9027,4.9086,4.8929,4.8894,4.8894,4.8894,5.3972,5.3972,5.4049,5.4106,5.427,5.6032,5.6916,5.7883,6.1048,6.2581,6.3583,6.5007,6.6551,6.7976,6.9278,7.043,7.1207,7.2139,7.2365,7.2441,7.2415,7.1662,7.1281,7.1314,7.1591,7.144,7.1434,7.1904,7.1667,6.9091,6.61,6.3564,5.9957,5.8779,5.7161,5.5155,5.4231,5.4193,5.4394,5.4336,5.4134,5.4037,5.4134,5.4232,5.4473,5.4694,5.4733,5.5078,5.5176,5.5052,5.5351,5.5332,5.5098,5.5176,5.5254,5.5254,5.5254,5.5234,5.5215,5.5052,5.5156,5.5078,5.4863,5.4512,5.4271,5.4076,5.4017,5.4115,5.4193,5.4095,5.4056,5.3992,5.4095,5.3972,5.3972,5.3972,5.3972,5.3972,5.392,5.3939,5.3861,5.3705,5.3685,5.3549,5.3242,5.2793,5.2168,5.1953,5.1694,5.1475,5.1416,5.1397,5.1397,5.1397,5.1397,5.1397,5.1397,5.1397,5.1265,5.1245,5.1265,5.1069,5.0835,5.0757,5.0586,5.0605,5.0488,4.9867,4.9418,4.9355,4.9238,4.8988,4.8894,4.8894,4.8894,5.4741,5.5819,5.5849,5.5849,5.6007,5.8034,5.9627,6.0861,6.2423,6.389,6.5,6.6479,6.7769,6.8826,6.9953,7.1058,7.2014,7.2441,7.2666,7.2717,7.2591,7.2415,7.2315,7.234,7.2442,7.219,7.2541,7.2717,7.2384,7.1309,7.09,6.791,6.2836,5.8702,5.6654,5.6017,5.5055,5.4595,5.4602,5.4473,5.418,5.4336,5.4551,5.4818,5.4902,5.5215,5.5403,5.5586,5.5527,5.5508,5.582,5.5723,5.5508,5.5605,5.5657,5.5657,5.5657,5.5801,5.5879,5.5644,5.5312,5.5267,5.5137,5.4961,5.4681,5.459,5.4629,5.4648,5.4525,5.4433,5.4433,5.4414,5.4369,5.4115,5.4017,5.4037,5.3972,5.3972,5.3972,5.3978,5.3978,5.392,5.3939,5.3939,5.3594,5.3183,5.2558,5.2012,5.1797,5.1597,5.1558,5.1519,5.1538,5.1499,5.1499,5.146,5.1397,5.1397,5.1397,5.1397,5.1397,5.1358,5.1187,5.1148,5.1069,5.0952,5.0683,5.0199,4.9867,4.9648,4.9297,4.8929,4.8894,4.8894,4.8894,5.5715,5.7098,5.831,5.8457,5.8256,6.0107,6.1764,6.3028,6.378,6.4935,6.6642,6.7518,6.8648,6.9828,7.0656,7.1636,7.2365,7.2692,7.2692,7.2717,7.2717,7.2717,7.2717,7.2692,7.2666,7.2717,7.2717,7.2717,7.2717,7.2717,7.1596,6.9237,6.5944,6.2096,6.0002,5.7315,5.6508,5.6136,5.5272,5.4876,5.4525,5.4707,5.4941,5.5273,5.539,5.556,5.5813,5.595,5.5996,5.5996,5.6133,5.6218,5.6035,5.5937,5.6067,5.6106,5.6126,5.6289,5.6308,5.6133,5.5625,5.554,5.5527,5.543,5.5273,5.5065,5.5019,5.5156,5.5,5.4863,5.4863,5.4844,5.4668,5.4453,5.431,5.4291,5.4076,5.3972,5.3972,5.3998,5.3972,5.3972,5.3972,5.3978,5.3724,5.334,5.2812,5.2305,5.1992,5.1855,5.1758,5.1738,5.1719,5.168,5.1616,5.1519,5.1397,5.1397,5.1397,5.1397,5.1397,5.1397,5.1377,5.1304,5.1226,5.1167,5.0933,5.0566,5.0195,4.9824,4.9437,4.8988,4.8894,4.8894,4.8894,5.707,5.7506,6.1211,6.1741,6.0486,6.2197,6.3163,6.3626,6.5057,6.6454,6.7521,6.7894,6.9049,7.0629,7.1182,7.1887,7.2516,7.2717,7.2717,7.2717,7.2717,7.2717,7.2717,7.2717,7.2717,7.2717,7.2717,7.2717,7.2717,7.2717,7.1477,7.03,6.8508,6.6976,6.697,6.2316,5.9763,5.8913,5.6887,5.5704,5.5208,5.5215,5.5325,5.5423,5.5735,5.597,5.6067,5.6308,5.6348,5.6433,5.6452,5.6511,5.6452,5.6433,5.6484,5.6511,5.653,5.657,5.6589,5.655,5.6269,5.595,5.5918,5.5794,5.5488,5.5332,5.5371,5.5586,5.5371,5.5293,5.5293,5.5228,5.5039,5.4805,5.4707,5.4629,5.4388,5.4154,5.4193,5.4154,5.4056,5.3972,5.3972,5.3959,5.3764,5.3437,5.2988,5.2617,5.2368,5.2056,5.1914,5.1816,5.1797,5.1699,5.1597,5.1499,5.1421,5.1397,5.1397,5.1397,5.1397,5.1397,5.1377,5.1401,5.1362,5.1284,5.1187,5.1035,5.0605,5.0137,4.9515,4.9105,4.8968,4.9031,4.9187,5.9844,6.1164,6.2536,6.3471,6.4108,6.4778,6.5076,6.5204,6.5874,6.6764,6.7797,6.8475,6.9627,7.0907,7.1836,7.2315,7.2591,7.2717,7.2717,7.2717,7.2717,7.2717,7.2717,7.2717,7.2717,7.2717,7.2717,7.2717,7.2717,7.2717,7.2431,7.1477,7.071,6.9164,6.5881,6.2164,6.0194,5.935,5.7413,5.5696,5.541,5.554,5.5677,5.5696,5.6094,5.6269,5.6289,5.6511,5.6589,5.6609,5.6609,5.6609,5.6609,5.6609,5.6609,5.6609,5.6609,5.6609,5.6609,5.6589,5.655,5.6387,5.6308,5.625,5.6179,5.5833,5.5918,5.5976,5.582,5.5735,5.5696,5.5696,5.5501,5.5215,5.5098,5.5078,5.4896,5.4648,5.4492,5.4394,5.4291,5.4076,5.3972,5.3972,5.3842,5.375,5.3379,5.3164,5.2935,5.2368,5.2056,5.1894,5.1797,5.1655,5.1558,5.1499,5.144,5.1397,5.1397,5.1397,5.1397,5.1397,5.1377,5.1377,5.1377,5.1377,5.1284,5.1128,5.0879,5.043,4.998,4.9672,4.9594,4.9672,4.9828,6.1901,6.314,6.3868,6.4863,6.6008,6.6112,6.6112,6.6112,6.6162,6.6915,6.8274,6.9152,7.0307,7.151,7.2315,7.2717,7.2717,7.2717,7.2717,7.2717,7.2717,7.2717,7.2717,7.2717,7.2717,7.2717,7.2717,7.2717,7.2717,7.2717,7.255,7.2502,7.2644,7.095,6.7796,6.5474,6.3087,6.1783,5.9512,5.7163,5.6353,5.5852,5.5891,5.595,5.6152,5.6301,5.6387,5.6511,5.6609,5.6609,5.6609,5.6609,5.6609,5.6609,5.6609,5.6609,5.6609,5.6609,5.6609,5.6609,5.6589,5.657,5.6609,5.6609,5.6589,5.6289,5.6308,5.6348,5.6269,5.6211,5.6106,5.6106,5.593,5.5644,5.5527,5.5481,5.5254,5.4961,5.4713,5.459,5.4336,5.4115,5.3972,5.3972,5.3959,5.3861,5.3769,5.3594,5.3443,5.2896,5.2368,5.2207,5.207,5.1992,5.1772,5.1519,5.1479,5.1397,5.1397,5.1397,5.1397,5.1397,5.1397,5.1397,5.1397,5.1377,5.1362,5.1206,5.105,5.0952,5.0801,5.0488,5.0297,5.0258,5.0317,6.3184,6.3471,6.5266,6.6051,6.6112,6.6112,6.6112,6.6112,6.6112,6.732,6.9331,6.9331,7.051,7.2315,7.2717,7.2717,7.2717,7.2717,7.2717,7.2717,7.2717,7.2717,7.2717,7.2717,7.2717,7.2717,7.2717,7.2717,7.2717,7.2717,7.2717,7.2717,7.2717,7.1931,7.071,6.926,6.6613,6.392,6.1113,5.8606,5.6873,5.6126,5.6067,5.6087,5.6152,5.6145,5.625,5.6406,5.657,5.6609,5.6609,5.6609,5.6609,5.6609,5.6609,5.6609,5.6609,5.6609,5.6609,5.6609,5.6609,5.6609,5.6609,5.6609,5.6589,5.6504,5.655,5.657,5.6511,5.655,5.655,5.6445,5.6348,5.6133,5.595,5.5755,5.5488,5.5195,5.4922,5.4648,5.4297,5.4056,5.4017,5.3972,5.3972,5.3959,5.3861,5.3789,5.3619,5.3429,5.2955,5.2715,5.2558,5.2402,5.2148,5.1733,5.1519,5.1436,5.1397,5.1397,5.1397,5.1397,5.1397,5.1397,5.1397,5.1377,5.1362,5.1382,5.1338,5.1265,5.1148,5.0991,5.0683,5.0547,5.0508,6.5248,6.5313,6.586,6.6112,6.6112,6.6112,6.6112,6.6112,6.6137,6.7345,6.9406,6.9406,7.061,7.2616,7.2717,7.2717,7.2717,7.2717,7.2717,7.2717,7.2717,7.2717,7.2717,7.2717,7.2717,7.2717,7.2717,7.2717,7.2717,7.2717,7.2717,7.2717,7.2717,7.2717,7.2408,7.1859,6.8553,6.5262,6.2214,5.9713,5.7508,5.65,5.6369,5.6289,5.6269,5.6269,5.6348,5.6465,5.6609,5.6609,5.6609,5.6609,5.6609,5.6609,5.6609,5.6609,5.6609,5.6609,5.6609,5.6609,5.6609,5.6609,5.6609,5.6609,5.6609,5.6609,5.6609,5.6609,5.6609,5.6609,5.6609,5.655,5.6511,5.6387,5.6269,5.6152,5.5879,5.5644,5.5332,5.4785,5.4414,5.4056,5.3998,5.3972,5.3972,5.3972,5.3959,5.3881,5.3808,5.3619,5.339,5.3105,5.2891,5.2695,5.2363,5.1992,5.1694,5.1499,5.1519,5.1499,5.1479,5.1479,5.1416,5.1397,5.1397,5.1397,5.1377,5.1397,5.1397,5.1397,5.1304,5.1226,5.1109,5.0933,5.0879,6.6112,6.6112,6.6112,6.6112,6.6112,6.6112,6.6112,6.6112,6.6112,6.7169,6.8701,6.9205,7.0407,7.1888,7.2441,7.2717,7.2717,7.2717,7.2717,7.2717,7.2717,7.2717,7.2717,7.2717,7.2717,7.2717,7.2717,7.2717,7.2717,7.2717,7.2717,7.2717,7.2717,7.2717,7.2597,7.2098,6.9502,6.6037,6.2909,6.0713,5.8749,5.6912,5.6427,5.6367,5.6367,5.6367,5.6406,5.6465,5.6609,5.6609,5.6609,5.6609,5.6609,5.6609,5.6609,5.6609,5.6609,5.6609,5.6609,5.6609,5.6609,5.6609,5.6609,5.6609,5.6609,5.6609,5.6609,5.6609,5.6609,5.6609,5.6609,5.6609,5.6609,5.6589,5.6589,5.6589,5.6348,5.6106,5.5599,5.5039,5.4564,5.4154,5.3972,5.3972,5.3972,5.3972,5.3972,5.3978,5.392,5.3828,5.3599,5.3326,5.313,5.2935,5.2558,5.2305,5.209,5.1894,5.1797,5.1758,5.166,5.1519,5.1479,5.1416,5.1397,5.1397,5.1416,5.1397,5.1397,5.1397,5.1397,5.1319,5.1284,5.1265,5.1226,6.6112,6.6112,6.6112,6.6112,6.6112,6.6112,6.6112,6.6112,6.6112,6.6789,6.7897,6.8804,6.9928,7.1259,7.2012,7.2491,7.2616,7.2717,7.2717,7.2717,7.2717,7.2717,7.2717,7.2717,7.2717,7.2717,7.2717,7.2717,7.2717,7.2717,7.2717,7.2717,7.2717,7.2717,7.2717,7.1955,6.9527,6.6508,6.3875,6.17,5.9505,5.7539,5.597,5.6028,5.6048,5.6048,5.6126,5.6328,5.6609,5.6609,5.6609,5.6609,5.6609,5.6609,5.6609,5.7016,5.7202,5.6989,5.7096,5.7202,5.6963,5.6829,5.6609,5.6609,5.6609,5.6609,5.6609,5.6609,5.6609,5.6609,5.6609,5.6609,5.6609,5.6609,5.6609,5.6609,5.6511,5.6172,5.5657,5.5111,5.4668,5.4252,5.3972,5.3972,5.3972,5.3972,5.3972,5.3972,5.3978,5.3939,5.3789,5.3541,5.3437,5.3262,5.2974,5.2695,5.2519,5.2344,5.2212,5.2153,5.2109,5.1831,5.1519,5.1499,5.1499,5.1436,5.1436,5.1416,5.1397,5.1397,5.1397,5.1397,5.1397,5.1397,5.1377,6.6112,6.6112,6.6112,6.6112,6.6112,6.6112,6.6112,6.6112,6.6112,6.6739,6.7719,6.8221,6.9275,7.0907,7.151,7.2039,7.2616,7.2717,7.2717,7.2717,7.2717,7.2717,7.2717,7.2717,7.2717,7.2717,7.2717,7.2717,7.2717,7.2717,7.2717,7.2717,7.2717,7.2717,7.2526,7.1357,6.8773,6.6583,6.3469,6.0817,5.8084,5.7356,5.6426,5.6406,5.6406,5.6387,5.6426,5.6511,5.6609,5.6609,5.6609,5.6609,5.6609,5.6609,5.6609,5.6909,5.8071,5.78,5.7448,5.7667,5.7906,5.6989,5.6609,5.6609,5.6609,5.6609,5.6609,5.6609,5.6609,5.6609,5.6609,5.6609,5.6609,5.6609,5.6609,5.6609,5.6609,5.6152,5.5677,5.5247,5.4805,5.4427,5.4134,5.3992,5.3972,5.3972,5.3972,5.3972,5.3972,5.3978,5.3978,5.3783,5.3842,5.3666,5.3359,5.317,5.2969,5.2773,5.2598,5.2558,5.2539,5.2402,5.2187,5.1753,5.1597,5.1616,5.1558,5.1397,5.1397,5.1397,5.1397,5.1397,5.1397,5.1397,5.1397,6.6112,6.6112,6.6112,6.6112,6.6112,6.6112,6.6112,6.6112,6.6112,6.6441,6.7241,6.8073,6.9228,7.0681,7.1286,7.1913,7.2616,7.2692,7.2717,7.2717,7.2717,7.2717,7.2717,7.2717,7.2717,7.2717,7.2717,7.2717,7.2717,7.2717,7.2717,7.2717,7.2717,7.2621,7.2311,7.0204,6.8088,6.6657,6.2577,5.9451,5.6909,5.6609,5.6609,5.6609,5.6609,5.6609,5.6609,5.6609,5.6609,5.6609,5.6609,5.6609,5.6609,5.6609,5.6609,5.6902,5.7555,5.8197,5.7608,5.7747,5.8388,5.7176,5.6609,5.6609,5.6609,5.6609,5.6609,5.6609,5.6609,5.6609,5.6609,5.6609,5.6609,5.6609,5.6609,5.6609,5.6465,5.6191,5.5872,5.5638,5.5137,5.4609,5.4336,5.4076,5.4056,5.3972,5.3972,5.3992,5.3992,5.3972,5.3972,5.3972,5.3972,5.3978,5.3744,5.3594,5.3457,5.3242,5.3008,5.2851,5.2773,5.2915,5.2812,5.2324,5.1973,5.1875,5.1797,5.1616,5.1416,5.1397,5.1397,5.1397,5.1397,5.1397,5.1397,6.6112,6.6112,6.6112,6.6112,6.6112,6.6112,6.6112,6.6112,6.6112,6.6112,6.6492,6.845,6.928,7.0134,7.1213,7.2089,7.2641,7.2692,7.2717,7.2717,7.2717,7.2717,7.2717,7.2717,7.2717,7.2717,7.2717,7.2717,7.2717,7.2717,7.2717,7.2717,7.2717,7.2693,7.1906,7.0059,6.7769,6.5237,6.206,5.932,5.7694,5.6609,5.6609,5.6609,5.6609,5.6609,5.6609,5.6609,5.6609,5.6989,5.7202,5.7614,5.8118,5.8388,5.7985,5.8282,5.8921,5.8388,5.7209,5.7502,5.7316,5.6796,5.6662,5.6609,5.6609,5.6609,5.6609,5.6609,5.6609,5.6609,5.6609,5.6609,5.6609,5.6609,5.6609,5.6609,5.6406,5.625,5.6087,5.593,5.5442,5.4902,5.4551,5.4297,5.4173,5.4115,5.4056,5.4011,5.4011,5.3992,5.3972,5.3972,5.3972,5.3978,5.3959,5.3881,5.375,5.3652,5.3418,5.3164,5.3047,5.3262,5.3203,5.2734,5.2441,5.2363,5.2109,5.187,5.1694,5.1538,5.1397,5.1397,5.1397,5.1397,5.1397,6.6112,6.6112,6.6112,6.6112,6.6112,6.6112,6.6112,6.6112,6.6112,6.6112,6.6692,6.8277,6.9406,6.9406,6.9682,7.0786,7.2666,7.2717,7.2717,7.2717,7.2717,7.2717,7.2717,7.2717,7.2717,7.2717,7.2717,7.2717,7.2717,7.2717,7.2717,7.2717,7.2717,7.2573,7.2217,7.0083,6.7523,6.4986,6.2188,5.9399,5.7588,5.6769,5.6609,5.6609,5.6609,5.6609,5.6609,5.6609,5.6609,5.7202,5.8494,5.9346,6.0318,6.105,6.0894,5.9823,6.0474,5.9215,5.8282,5.8124,5.78,5.6715,5.6609,5.6609,5.6609,5.6609,5.6609,5.6609,5.6609,5.6609,5.6609,5.6609,5.6609,5.6609,5.6609,5.6609,5.653,5.6426,5.6348,5.6106,5.5794,5.5293,5.4824,5.4668,5.4583,5.4486,5.4394,5.431,5.4011,5.3992,5.3992,5.3972,5.3972,5.3972,5.3998,5.3978,5.3881,5.3861,5.3808,5.3555,5.3496,5.3685,5.351,5.3119,5.3008,5.2974,5.2661,5.2246,5.2031,5.1855,5.1538,5.1421,5.1397,5.1397,5.1397]}]]